<?xml version="1.0" encoding="UTF-8"?>
<gpx creator="Wikiloc - http://www.wikiloc.com" version="1.1" xmlns="http://www.topografix.com/GPX/1/1" xmlns:xsi="http://www.w3.org/2001/XMLSchema-instance" xsi:schemaLocation="http://www.topografix.com/GPX/1/1 http://www.topografix.com/GPX/1/1/gpx.xsd">
  <trk>
    <name>Ruta del Santuari de Lord, Tossal de Vall-llonga, cincles de Malagana </name>
    <cmt></cmt>
    <desc></desc>
    <trkseg>
      <trkpt lat="42.117963" lon="1.581770">
        <ele>0.0</ele>
        <time>2014-01-11T13:08:24Z</time>
      </trkpt>
      <trkpt lat="42.117963" lon="1.581771">
        <ele>0.0</ele>
        <time>2014-01-11T13:08:44Z</time>
      </trkpt>
      <trkpt lat="42.117963" lon="1.581770">
        <ele>0.0</ele>
        <time>2014-01-11T13:09:04Z</time>
      </trkpt>
      <trkpt lat="42.117961" lon="1.581769">
        <ele>0.0</ele>
        <time>2014-01-11T13:09:24Z</time>
      </trkpt>
      <trkpt lat="42.117958" lon="1.581765">
        <ele>0.0</ele>
        <time>2014-01-11T13:09:44Z</time>
      </trkpt>
      <trkpt lat="42.117955" lon="1.581760">
        <ele>0.0</ele>
        <time>2014-01-11T13:10:04Z</time>
      </trkpt>
      <trkpt lat="42.117929" lon="1.581727">
        <ele>0.0</ele>
        <time>2014-01-11T13:10:24Z</time>
      </trkpt>
      <trkpt lat="42.117932" lon="1.581729">
        <ele>0.0</ele>
        <time>2014-01-11T13:10:44Z</time>
      </trkpt>
      <trkpt lat="42.117909" lon="1.581713">
        <ele>0.0</ele>
        <time>2014-01-11T13:11:04Z</time>
      </trkpt>
      <trkpt lat="42.117877" lon="1.581710">
        <ele>0.0</ele>
        <time>2014-01-11T13:11:24Z</time>
      </trkpt>
      <trkpt lat="42.117786" lon="1.581611">
        <ele>0.0</ele>
        <time>2014-01-11T13:11:44Z</time>
      </trkpt>
      <trkpt lat="42.117724" lon="1.581522">
        <ele>0.0</ele>
        <time>2014-01-11T13:12:04Z</time>
      </trkpt>
      <trkpt lat="42.117648" lon="1.581451">
        <ele>0.0</ele>
        <time>2014-01-11T13:12:24Z</time>
      </trkpt>
      <trkpt lat="42.117580" lon="1.581334">
        <ele>0.0</ele>
        <time>2014-01-11T13:12:44Z</time>
      </trkpt>
      <trkpt lat="42.117548" lon="1.581181">
        <ele>0.0</ele>
        <time>2014-01-11T13:13:04Z</time>
      </trkpt>
      <trkpt lat="42.117564" lon="1.581081">
        <ele>0.0</ele>
        <time>2014-01-11T13:13:24Z</time>
      </trkpt>
      <trkpt lat="42.117567" lon="1.581066">
        <ele>0.0</ele>
        <time>2014-01-11T13:13:44Z</time>
      </trkpt>
      <trkpt lat="42.117529" lon="1.580957">
        <ele>0.0</ele>
        <time>2014-01-11T13:14:04Z</time>
      </trkpt>
      <trkpt lat="42.117477" lon="1.580900">
        <ele>0.0</ele>
        <time>2014-01-11T13:14:24Z</time>
      </trkpt>
      <trkpt lat="42.117418" lon="1.580864">
        <ele>0.0</ele>
        <time>2014-01-11T13:14:44Z</time>
      </trkpt>
      <trkpt lat="42.117430" lon="1.580922">
        <ele>0.0</ele>
        <time>2014-01-11T13:15:04Z</time>
      </trkpt>
      <trkpt lat="42.117413" lon="1.580923">
        <ele>0.0</ele>
        <time>2014-01-11T13:15:24Z</time>
      </trkpt>
      <trkpt lat="42.117378" lon="1.580957">
        <ele>0.0</ele>
        <time>2014-01-11T13:15:44Z</time>
      </trkpt>
      <trkpt lat="42.117411" lon="1.581006">
        <ele>0.0</ele>
        <time>2014-01-11T13:16:04Z</time>
      </trkpt>
      <trkpt lat="42.117399" lon="1.581144">
        <ele>0.0</ele>
        <time>2014-01-11T13:16:24Z</time>
      </trkpt>
      <trkpt lat="42.117334" lon="1.581174">
        <ele>0.0</ele>
        <time>2014-01-11T13:16:44Z</time>
      </trkpt>
      <trkpt lat="42.117296" lon="1.581169">
        <ele>0.0</ele>
        <time>2014-01-11T13:17:04Z</time>
      </trkpt>
      <trkpt lat="42.117335" lon="1.581269">
        <ele>0.0</ele>
        <time>2014-01-11T13:17:24Z</time>
      </trkpt>
      <trkpt lat="42.117249" lon="1.581247">
        <ele>0.0</ele>
        <time>2014-01-11T13:17:44Z</time>
      </trkpt>
      <trkpt lat="42.117238" lon="1.581240">
        <ele>0.0</ele>
        <time>2014-01-11T13:18:04Z</time>
      </trkpt>
      <trkpt lat="42.117212" lon="1.581232">
        <ele>0.0</ele>
        <time>2014-01-11T13:18:24Z</time>
      </trkpt>
      <trkpt lat="42.117131" lon="1.581205">
        <ele>0.0</ele>
        <time>2014-01-11T13:18:44Z</time>
      </trkpt>
      <trkpt lat="42.117061" lon="1.581158">
        <ele>0.0</ele>
        <time>2014-01-11T13:19:04Z</time>
      </trkpt>
      <trkpt lat="42.117049" lon="1.581107">
        <ele>0.0</ele>
        <time>2014-01-11T13:19:24Z</time>
      </trkpt>
      <trkpt lat="42.117031" lon="1.581045">
        <ele>0.0</ele>
        <time>2014-01-11T13:19:44Z</time>
      </trkpt>
      <trkpt lat="42.116987" lon="1.580983">
        <ele>0.0</ele>
        <time>2014-01-11T13:20:04Z</time>
      </trkpt>
      <trkpt lat="42.116977" lon="1.581017">
        <ele>0.0</ele>
        <time>2014-01-11T13:20:24Z</time>
      </trkpt>
      <trkpt lat="42.116997" lon="1.581051">
        <ele>0.0</ele>
        <time>2014-01-11T13:20:44Z</time>
      </trkpt>
      <trkpt lat="42.116995" lon="1.581090">
        <ele>0.0</ele>
        <time>2014-01-11T13:21:04Z</time>
      </trkpt>
      <trkpt lat="42.116991" lon="1.581095">
        <ele>0.0</ele>
        <time>2014-01-11T13:21:24Z</time>
      </trkpt>
      <trkpt lat="42.116987" lon="1.581105">
        <ele>0.0</ele>
        <time>2014-01-11T13:21:44Z</time>
      </trkpt>
      <trkpt lat="42.116979" lon="1.581214">
        <ele>0.0</ele>
        <time>2014-01-11T13:22:04Z</time>
      </trkpt>
      <trkpt lat="42.117035" lon="1.581326">
        <ele>0.0</ele>
        <time>2014-01-11T13:22:24Z</time>
      </trkpt>
      <trkpt lat="42.117027" lon="1.581392">
        <ele>0.0</ele>
        <time>2014-01-11T13:22:44Z</time>
      </trkpt>
      <trkpt lat="42.117010" lon="1.581393">
        <ele>0.0</ele>
        <time>2014-01-11T13:23:04Z</time>
      </trkpt>
      <trkpt lat="42.117013" lon="1.581402">
        <ele>0.0</ele>
        <time>2014-01-11T13:23:24Z</time>
      </trkpt>
      <trkpt lat="42.117019" lon="1.581416">
        <ele>0.0</ele>
        <time>2014-01-11T13:23:44Z</time>
      </trkpt>
      <trkpt lat="42.117046" lon="1.581463">
        <ele>0.0</ele>
        <time>2014-01-11T13:24:04Z</time>
      </trkpt>
      <trkpt lat="42.117033" lon="1.581469">
        <ele>0.0</ele>
        <time>2014-01-11T13:24:24Z</time>
      </trkpt>
      <trkpt lat="42.117015" lon="1.581529">
        <ele>0.0</ele>
        <time>2014-01-11T13:24:44Z</time>
      </trkpt>
      <trkpt lat="42.116990" lon="1.581610">
        <ele>0.0</ele>
        <time>2014-01-11T13:25:04Z</time>
      </trkpt>
      <trkpt lat="42.116985" lon="1.581695">
        <ele>0.0</ele>
        <time>2014-01-11T13:25:24Z</time>
      </trkpt>
      <trkpt lat="42.116985" lon="1.581702">
        <ele>0.0</ele>
        <time>2014-01-11T13:25:44Z</time>
      </trkpt>
      <trkpt lat="42.116994" lon="1.581711">
        <ele>0.0</ele>
        <time>2014-01-11T13:26:04Z</time>
      </trkpt>
      <trkpt lat="42.116989" lon="1.581706">
        <ele>0.0</ele>
        <time>2014-01-11T13:26:24Z</time>
      </trkpt>
      <trkpt lat="42.116979" lon="1.581707">
        <ele>0.0</ele>
        <time>2014-01-11T13:26:44Z</time>
      </trkpt>
      <trkpt lat="42.116959" lon="1.581652">
        <ele>0.0</ele>
        <time>2014-01-11T13:27:04Z</time>
      </trkpt>
      <trkpt lat="42.116937" lon="1.581585">
        <ele>0.0</ele>
        <time>2014-01-11T13:27:24Z</time>
      </trkpt>
      <trkpt lat="42.116929" lon="1.581505">
        <ele>0.0</ele>
        <time>2014-01-11T13:27:44Z</time>
      </trkpt>
      <trkpt lat="42.116925" lon="1.581425">
        <ele>0.0</ele>
        <time>2014-01-11T13:28:04Z</time>
      </trkpt>
      <trkpt lat="42.116892" lon="1.581401">
        <ele>0.0</ele>
        <time>2014-01-11T13:28:24Z</time>
      </trkpt>
      <trkpt lat="42.116858" lon="1.581414">
        <ele>0.0</ele>
        <time>2014-01-11T13:28:44Z</time>
      </trkpt>
      <trkpt lat="42.116824" lon="1.581423">
        <ele>0.0</ele>
        <time>2014-01-11T13:29:04Z</time>
      </trkpt>
      <trkpt lat="42.116783" lon="1.581419">
        <ele>0.0</ele>
        <time>2014-01-11T13:29:24Z</time>
      </trkpt>
      <trkpt lat="42.116691" lon="1.581352">
        <ele>0.0</ele>
        <time>2014-01-11T13:29:44Z</time>
      </trkpt>
      <trkpt lat="42.116687" lon="1.581346">
        <ele>0.0</ele>
        <time>2014-01-11T13:30:04Z</time>
      </trkpt>
      <trkpt lat="42.116663" lon="1.581369">
        <ele>0.0</ele>
        <time>2014-01-11T13:30:24Z</time>
      </trkpt>
      <trkpt lat="42.116708" lon="1.581436">
        <ele>0.0</ele>
        <time>2014-01-11T13:30:44Z</time>
      </trkpt>
      <trkpt lat="42.116687" lon="1.581446">
        <ele>0.0</ele>
        <time>2014-01-11T13:31:04Z</time>
      </trkpt>
      <trkpt lat="42.116629" lon="1.581398">
        <ele>0.0</ele>
        <time>2014-01-11T13:31:24Z</time>
      </trkpt>
      <trkpt lat="42.116627" lon="1.581393">
        <ele>0.0</ele>
        <time>2014-01-11T13:31:44Z</time>
      </trkpt>
      <trkpt lat="42.116622" lon="1.581357">
        <ele>0.0</ele>
        <time>2014-01-11T13:32:04Z</time>
      </trkpt>
      <trkpt lat="42.116618" lon="1.581350">
        <ele>0.0</ele>
        <time>2014-01-11T13:32:24Z</time>
      </trkpt>
      <trkpt lat="42.116613" lon="1.581316">
        <ele>0.0</ele>
        <time>2014-01-11T13:32:44Z</time>
      </trkpt>
      <trkpt lat="42.116582" lon="1.581214">
        <ele>0.0</ele>
        <time>2014-01-11T13:33:04Z</time>
      </trkpt>
      <trkpt lat="42.116581" lon="1.581164">
        <ele>0.0</ele>
        <time>2014-01-11T13:33:24Z</time>
      </trkpt>
      <trkpt lat="42.116507" lon="1.581149">
        <ele>0.0</ele>
        <time>2014-01-11T13:33:44Z</time>
      </trkpt>
      <trkpt lat="42.116416" lon="1.581218">
        <ele>0.0</ele>
        <time>2014-01-11T13:34:04Z</time>
      </trkpt>
      <trkpt lat="42.116404" lon="1.581248">
        <ele>0.0</ele>
        <time>2014-01-11T13:34:24Z</time>
      </trkpt>
      <trkpt lat="42.116361" lon="1.581360">
        <ele>0.0</ele>
        <time>2014-01-11T13:34:44Z</time>
      </trkpt>
      <trkpt lat="42.116307" lon="1.581473">
        <ele>0.0</ele>
        <time>2014-01-11T13:35:04Z</time>
      </trkpt>
      <trkpt lat="42.116277" lon="1.581488">
        <ele>0.0</ele>
        <time>2014-01-11T13:35:24Z</time>
      </trkpt>
      <trkpt lat="42.116148" lon="1.581562">
        <ele>0.0</ele>
        <time>2014-01-11T13:35:44Z</time>
      </trkpt>
      <trkpt lat="42.116119" lon="1.581585">
        <ele>0.0</ele>
        <time>2014-01-11T13:36:04Z</time>
      </trkpt>
      <trkpt lat="42.116027" lon="1.581634">
        <ele>0.0</ele>
        <time>2014-01-11T13:36:24Z</time>
      </trkpt>
      <trkpt lat="42.115932" lon="1.581667">
        <ele>0.0</ele>
        <time>2014-01-11T13:36:44Z</time>
      </trkpt>
      <trkpt lat="42.115842" lon="1.581708">
        <ele>0.0</ele>
        <time>2014-01-11T13:37:04Z</time>
      </trkpt>
      <trkpt lat="42.115778" lon="1.581731">
        <ele>0.0</ele>
        <time>2014-01-11T13:37:24Z</time>
      </trkpt>
      <trkpt lat="42.115755" lon="1.581745">
        <ele>0.0</ele>
        <time>2014-01-11T13:37:44Z</time>
      </trkpt>
      <trkpt lat="42.115680" lon="1.581779">
        <ele>0.0</ele>
        <time>2014-01-11T13:38:04Z</time>
      </trkpt>
      <trkpt lat="42.115559" lon="1.581908">
        <ele>0.0</ele>
        <time>2014-01-11T13:38:24Z</time>
      </trkpt>
      <trkpt lat="42.115429" lon="1.581963">
        <ele>0.0</ele>
        <time>2014-01-11T13:38:44Z</time>
      </trkpt>
      <trkpt lat="42.115413" lon="1.581968">
        <ele>0.0</ele>
        <time>2014-01-11T13:39:04Z</time>
      </trkpt>
      <trkpt lat="42.115353" lon="1.581952">
        <ele>0.0</ele>
        <time>2014-01-11T13:39:24Z</time>
      </trkpt>
      <trkpt lat="42.115337" lon="1.581932">
        <ele>0.0</ele>
        <time>2014-01-11T13:39:44Z</time>
      </trkpt>
      <trkpt lat="42.115326" lon="1.581970">
        <ele>0.0</ele>
        <time>2014-01-11T13:40:04Z</time>
      </trkpt>
      <trkpt lat="42.115299" lon="1.582030">
        <ele>0.0</ele>
        <time>2014-01-11T13:40:24Z</time>
      </trkpt>
      <trkpt lat="42.115297" lon="1.582030">
        <ele>0.0</ele>
        <time>2014-01-11T13:40:44Z</time>
      </trkpt>
      <trkpt lat="42.115298" lon="1.582028">
        <ele>0.0</ele>
        <time>2014-01-11T13:41:04Z</time>
      </trkpt>
      <trkpt lat="42.115276" lon="1.582027">
        <ele>0.0</ele>
        <time>2014-01-11T13:41:24Z</time>
      </trkpt>
      <trkpt lat="42.115279" lon="1.582024">
        <ele>0.0</ele>
        <time>2014-01-11T13:41:44Z</time>
      </trkpt>
      <trkpt lat="42.115259" lon="1.582070">
        <ele>0.0</ele>
        <time>2014-01-11T13:42:04Z</time>
      </trkpt>
      <trkpt lat="42.115288" lon="1.582273">
        <ele>0.0</ele>
        <time>2014-01-11T13:42:24Z</time>
      </trkpt>
      <trkpt lat="42.115302" lon="1.582335">
        <ele>0.0</ele>
        <time>2014-01-11T13:42:44Z</time>
      </trkpt>
      <trkpt lat="42.115357" lon="1.582470">
        <ele>0.0</ele>
        <time>2014-01-11T13:43:04Z</time>
      </trkpt>
      <trkpt lat="42.115402" lon="1.582544">
        <ele>0.0</ele>
        <time>2014-01-11T13:43:24Z</time>
      </trkpt>
      <trkpt lat="42.115407" lon="1.582620">
        <ele>0.0</ele>
        <time>2014-01-11T13:43:44Z</time>
      </trkpt>
      <trkpt lat="42.115369" lon="1.582715">
        <ele>0.0</ele>
        <time>2014-01-11T13:44:04Z</time>
      </trkpt>
      <trkpt lat="42.115333" lon="1.582736">
        <ele>0.0</ele>
        <time>2014-01-11T13:44:24Z</time>
      </trkpt>
      <trkpt lat="42.115281" lon="1.582738">
        <ele>0.0</ele>
        <time>2014-01-11T13:44:44Z</time>
      </trkpt>
      <trkpt lat="42.115272" lon="1.582740">
        <ele>0.0</ele>
        <time>2014-01-11T13:45:04Z</time>
      </trkpt>
      <trkpt lat="42.115192" lon="1.582809">
        <ele>0.0</ele>
        <time>2014-01-11T13:45:24Z</time>
      </trkpt>
      <trkpt lat="42.115188" lon="1.582815">
        <ele>0.0</ele>
        <time>2014-01-11T13:45:44Z</time>
      </trkpt>
      <trkpt lat="42.115148" lon="1.582856">
        <ele>0.0</ele>
        <time>2014-01-11T13:46:04Z</time>
      </trkpt>
      <trkpt lat="42.115165" lon="1.582960">
        <ele>0.0</ele>
        <time>2014-01-11T13:46:24Z</time>
      </trkpt>
      <trkpt lat="42.115170" lon="1.583012">
        <ele>0.0</ele>
        <time>2014-01-11T13:46:44Z</time>
      </trkpt>
      <trkpt lat="42.115175" lon="1.583132">
        <ele>0.0</ele>
        <time>2014-01-11T13:47:04Z</time>
      </trkpt>
      <trkpt lat="42.115169" lon="1.583332">
        <ele>0.0</ele>
        <time>2014-01-11T13:47:24Z</time>
      </trkpt>
      <trkpt lat="42.115155" lon="1.583371">
        <ele>0.0</ele>
        <time>2014-01-11T13:47:44Z</time>
      </trkpt>
      <trkpt lat="42.115112" lon="1.583450">
        <ele>0.0</ele>
        <time>2014-01-11T13:48:04Z</time>
      </trkpt>
      <trkpt lat="42.115029" lon="1.583621">
        <ele>0.0</ele>
        <time>2014-01-11T13:48:24Z</time>
      </trkpt>
      <trkpt lat="42.115026" lon="1.583633">
        <ele>0.0</ele>
        <time>2014-01-11T13:48:44Z</time>
      </trkpt>
      <trkpt lat="42.114894" lon="1.583833">
        <ele>0.0</ele>
        <time>2014-01-11T13:49:04Z</time>
      </trkpt>
      <trkpt lat="42.114873" lon="1.583854">
        <ele>0.0</ele>
        <time>2014-01-11T13:49:24Z</time>
      </trkpt>
      <trkpt lat="42.114859" lon="1.583874">
        <ele>0.0</ele>
        <time>2014-01-11T13:49:44Z</time>
      </trkpt>
      <trkpt lat="42.114853" lon="1.583916">
        <ele>0.0</ele>
        <time>2014-01-11T13:50:04Z</time>
      </trkpt>
      <trkpt lat="42.114853" lon="1.583997">
        <ele>0.0</ele>
        <time>2014-01-11T13:50:24Z</time>
      </trkpt>
      <trkpt lat="42.114881" lon="1.584027">
        <ele>0.0</ele>
        <time>2014-01-11T13:50:44Z</time>
      </trkpt>
      <trkpt lat="42.114903" lon="1.584044">
        <ele>0.0</ele>
        <time>2014-01-11T13:51:04Z</time>
      </trkpt>
      <trkpt lat="42.115057" lon="1.584129">
        <ele>0.0</ele>
        <time>2014-01-11T13:51:24Z</time>
      </trkpt>
      <trkpt lat="42.115082" lon="1.584138">
        <ele>0.0</ele>
        <time>2014-01-11T13:51:44Z</time>
      </trkpt>
      <trkpt lat="42.115083" lon="1.584152">
        <ele>0.0</ele>
        <time>2014-01-11T13:52:04Z</time>
      </trkpt>
      <trkpt lat="42.115114" lon="1.584194">
        <ele>0.0</ele>
        <time>2014-01-11T13:52:24Z</time>
      </trkpt>
      <trkpt lat="42.115093" lon="1.584288">
        <ele>0.0</ele>
        <time>2014-01-11T13:52:44Z</time>
      </trkpt>
      <trkpt lat="42.115059" lon="1.584376">
        <ele>0.0</ele>
        <time>2014-01-11T13:53:04Z</time>
      </trkpt>
      <trkpt lat="42.115026" lon="1.584421">
        <ele>0.0</ele>
        <time>2014-01-11T13:53:24Z</time>
      </trkpt>
      <trkpt lat="42.115021" lon="1.584439">
        <ele>0.0</ele>
        <time>2014-01-11T13:53:44Z</time>
      </trkpt>
      <trkpt lat="42.115015" lon="1.584454">
        <ele>0.0</ele>
        <time>2014-01-11T13:54:04Z</time>
      </trkpt>
      <trkpt lat="42.115009" lon="1.584468">
        <ele>0.0</ele>
        <time>2014-01-11T13:54:24Z</time>
      </trkpt>
      <trkpt lat="42.114979" lon="1.584513">
        <ele>0.0</ele>
        <time>2014-01-11T13:54:44Z</time>
      </trkpt>
      <trkpt lat="42.114919" lon="1.584618">
        <ele>0.0</ele>
        <time>2014-01-11T13:55:04Z</time>
      </trkpt>
      <trkpt lat="42.114830" lon="1.584710">
        <ele>0.0</ele>
        <time>2014-01-11T13:55:24Z</time>
      </trkpt>
      <trkpt lat="42.114829" lon="1.584702">
        <ele>0.0</ele>
        <time>2014-01-11T13:55:44Z</time>
      </trkpt>
      <trkpt lat="42.114702" lon="1.584932">
        <ele>0.0</ele>
        <time>2014-01-11T13:56:04Z</time>
      </trkpt>
      <trkpt lat="42.114689" lon="1.584929">
        <ele>0.0</ele>
        <time>2014-01-11T13:56:24Z</time>
      </trkpt>
      <trkpt lat="42.114631" lon="1.585016">
        <ele>0.0</ele>
        <time>2014-01-11T13:56:44Z</time>
      </trkpt>
      <trkpt lat="42.114520" lon="1.585195">
        <ele>0.0</ele>
        <time>2014-01-11T13:57:04Z</time>
      </trkpt>
      <trkpt lat="42.114430" lon="1.585322">
        <ele>0.0</ele>
        <time>2014-01-11T13:57:24Z</time>
      </trkpt>
      <trkpt lat="42.114409" lon="1.585325">
        <ele>0.0</ele>
        <time>2014-01-11T13:57:44Z</time>
      </trkpt>
      <trkpt lat="42.114385" lon="1.585332">
        <ele>0.0</ele>
        <time>2014-01-11T13:58:04Z</time>
      </trkpt>
      <trkpt lat="42.114303" lon="1.585414">
        <ele>0.0</ele>
        <time>2014-01-11T13:58:24Z</time>
      </trkpt>
      <trkpt lat="42.114168" lon="1.585596">
        <ele>0.0</ele>
        <time>2014-01-11T13:58:44Z</time>
      </trkpt>
      <trkpt lat="42.114174" lon="1.585646">
        <ele>0.0</ele>
        <time>2014-01-11T13:59:04Z</time>
      </trkpt>
      <trkpt lat="42.114143" lon="1.585683">
        <ele>0.0</ele>
        <time>2014-01-11T13:59:24Z</time>
      </trkpt>
      <trkpt lat="42.114020" lon="1.585756">
        <ele>0.0</ele>
        <time>2014-01-11T13:59:44Z</time>
      </trkpt>
      <trkpt lat="42.113933" lon="1.585793">
        <ele>0.0</ele>
        <time>2014-01-11T14:00:04Z</time>
      </trkpt>
      <trkpt lat="42.113825" lon="1.585920">
        <ele>0.0</ele>
        <time>2014-01-11T14:00:24Z</time>
      </trkpt>
      <trkpt lat="42.113762" lon="1.585959">
        <ele>0.0</ele>
        <time>2014-01-11T14:00:44Z</time>
      </trkpt>
      <trkpt lat="42.113693" lon="1.585986">
        <ele>0.0</ele>
        <time>2014-01-11T14:01:04Z</time>
      </trkpt>
      <trkpt lat="42.113633" lon="1.586050">
        <ele>0.0</ele>
        <time>2014-01-11T14:01:24Z</time>
      </trkpt>
      <trkpt lat="42.113634" lon="1.586114">
        <ele>0.0</ele>
        <time>2014-01-11T14:01:44Z</time>
      </trkpt>
      <trkpt lat="42.113568" lon="1.586228">
        <ele>0.0</ele>
        <time>2014-01-11T14:02:04Z</time>
      </trkpt>
      <trkpt lat="42.113476" lon="1.586359">
        <ele>0.0</ele>
        <time>2014-01-11T14:02:24Z</time>
      </trkpt>
      <trkpt lat="42.113385" lon="1.586530">
        <ele>0.0</ele>
        <time>2014-01-11T14:02:44Z</time>
      </trkpt>
      <trkpt lat="42.113362" lon="1.586587">
        <ele>0.0</ele>
        <time>2014-01-11T14:03:04Z</time>
      </trkpt>
      <trkpt lat="42.113355" lon="1.586605">
        <ele>0.0</ele>
        <time>2014-01-11T14:03:24Z</time>
      </trkpt>
      <trkpt lat="42.113336" lon="1.586639">
        <ele>0.0</ele>
        <time>2014-01-11T14:03:44Z</time>
      </trkpt>
      <trkpt lat="42.113316" lon="1.586657">
        <ele>0.0</ele>
        <time>2014-01-11T14:04:04Z</time>
      </trkpt>
      <trkpt lat="42.113314" lon="1.586694">
        <ele>0.0</ele>
        <time>2014-01-11T14:04:24Z</time>
      </trkpt>
      <trkpt lat="42.113298" lon="1.586720">
        <ele>0.0</ele>
        <time>2014-01-11T14:04:44Z</time>
      </trkpt>
      <trkpt lat="42.113272" lon="1.586806">
        <ele>0.0</ele>
        <time>2014-01-11T14:05:04Z</time>
      </trkpt>
      <trkpt lat="42.113213" lon="1.586958">
        <ele>0.0</ele>
        <time>2014-01-11T14:05:24Z</time>
      </trkpt>
      <trkpt lat="42.113207" lon="1.586994">
        <ele>0.0</ele>
        <time>2014-01-11T14:05:44Z</time>
      </trkpt>
      <trkpt lat="42.113214" lon="1.587108">
        <ele>0.0</ele>
        <time>2014-01-11T14:06:04Z</time>
      </trkpt>
      <trkpt lat="42.113273" lon="1.587152">
        <ele>0.0</ele>
        <time>2014-01-11T14:06:24Z</time>
      </trkpt>
      <trkpt lat="42.113270" lon="1.587164">
        <ele>0.0</ele>
        <time>2014-01-11T14:06:44Z</time>
      </trkpt>
      <trkpt lat="42.113269" lon="1.587165">
        <ele>0.0</ele>
        <time>2014-01-11T14:07:04Z</time>
      </trkpt>
      <trkpt lat="42.113281" lon="1.587211">
        <ele>0.0</ele>
        <time>2014-01-11T14:07:24Z</time>
      </trkpt>
      <trkpt lat="42.113286" lon="1.587213">
        <ele>0.0</ele>
        <time>2014-01-11T14:07:44Z</time>
      </trkpt>
      <trkpt lat="42.113290" lon="1.587215">
        <ele>0.0</ele>
        <time>2014-01-11T14:08:04Z</time>
      </trkpt>
      <trkpt lat="42.113325" lon="1.587229">
        <ele>0.0</ele>
        <time>2014-01-11T14:08:24Z</time>
      </trkpt>
      <trkpt lat="42.113352" lon="1.587240">
        <ele>0.0</ele>
        <time>2014-01-11T14:08:44Z</time>
      </trkpt>
      <trkpt lat="42.113359" lon="1.587239">
        <ele>0.0</ele>
        <time>2014-01-11T14:09:04Z</time>
      </trkpt>
      <trkpt lat="42.113438" lon="1.587228">
        <ele>0.0</ele>
        <time>2014-01-11T14:09:24Z</time>
      </trkpt>
      <trkpt lat="42.113504" lon="1.587214">
        <ele>0.0</ele>
        <time>2014-01-11T14:09:44Z</time>
      </trkpt>
      <trkpt lat="42.113529" lon="1.587219">
        <ele>0.0</ele>
        <time>2014-01-11T14:10:04Z</time>
      </trkpt>
      <trkpt lat="42.113652" lon="1.587181">
        <ele>0.0</ele>
        <time>2014-01-11T14:10:24Z</time>
      </trkpt>
      <trkpt lat="42.113755" lon="1.587025">
        <ele>0.0</ele>
        <time>2014-01-11T14:10:44Z</time>
      </trkpt>
      <trkpt lat="42.113718" lon="1.586903">
        <ele>0.0</ele>
        <time>2014-01-11T14:11:04Z</time>
      </trkpt>
      <trkpt lat="42.113704" lon="1.586876">
        <ele>0.0</ele>
        <time>2014-01-11T14:11:24Z</time>
      </trkpt>
      <trkpt lat="42.113655" lon="1.586779">
        <ele>0.0</ele>
        <time>2014-01-11T14:11:44Z</time>
      </trkpt>
      <trkpt lat="42.113632" lon="1.586750">
        <ele>0.0</ele>
        <time>2014-01-11T14:12:04Z</time>
      </trkpt>
      <trkpt lat="42.113724" lon="1.586685">
        <ele>0.0</ele>
        <time>2014-01-11T14:12:24Z</time>
      </trkpt>
      <trkpt lat="42.113726" lon="1.586671">
        <ele>0.0</ele>
        <time>2014-01-11T14:12:44Z</time>
      </trkpt>
      <trkpt lat="42.113748" lon="1.586624">
        <ele>0.0</ele>
        <time>2014-01-11T14:13:04Z</time>
      </trkpt>
      <trkpt lat="42.113774" lon="1.586597">
        <ele>0.0</ele>
        <time>2014-01-11T14:13:24Z</time>
      </trkpt>
      <trkpt lat="42.113796" lon="1.586663">
        <ele>0.0</ele>
        <time>2014-01-11T14:13:44Z</time>
      </trkpt>
      <trkpt lat="42.113776" lon="1.586691">
        <ele>0.0</ele>
        <time>2014-01-11T14:14:04Z</time>
      </trkpt>
      <trkpt lat="42.113747" lon="1.586756">
        <ele>0.0</ele>
        <time>2014-01-11T14:14:24Z</time>
      </trkpt>
      <trkpt lat="42.113785" lon="1.586681">
        <ele>0.0</ele>
        <time>2014-01-11T14:14:44Z</time>
      </trkpt>
      <trkpt lat="42.113799" lon="1.586655">
        <ele>0.0</ele>
        <time>2014-01-11T14:15:04Z</time>
      </trkpt>
      <trkpt lat="42.113869" lon="1.586593">
        <ele>0.0</ele>
        <time>2014-01-11T14:15:24Z</time>
      </trkpt>
      <trkpt lat="42.113868" lon="1.586614">
        <ele>0.0</ele>
        <time>2014-01-11T14:15:44Z</time>
      </trkpt>
      <trkpt lat="42.113878" lon="1.586684">
        <ele>0.0</ele>
        <time>2014-01-11T14:16:04Z</time>
      </trkpt>
      <trkpt lat="42.113878" lon="1.586691">
        <ele>0.0</ele>
        <time>2014-01-11T14:16:24Z</time>
      </trkpt>
      <trkpt lat="42.113886" lon="1.586713">
        <ele>0.0</ele>
        <time>2014-01-11T14:16:44Z</time>
      </trkpt>
      <trkpt lat="42.113920" lon="1.586651">
        <ele>0.0</ele>
        <time>2014-01-11T14:17:04Z</time>
      </trkpt>
      <trkpt lat="42.113942" lon="1.586633">
        <ele>0.0</ele>
        <time>2014-01-11T14:17:24Z</time>
      </trkpt>
      <trkpt lat="42.113940" lon="1.586657">
        <ele>0.0</ele>
        <time>2014-01-11T14:17:44Z</time>
      </trkpt>
      <trkpt lat="42.113942" lon="1.586666">
        <ele>0.0</ele>
        <time>2014-01-11T14:18:04Z</time>
      </trkpt>
      <trkpt lat="42.113943" lon="1.586677">
        <ele>0.0</ele>
        <time>2014-01-11T14:18:24Z</time>
      </trkpt>
      <trkpt lat="42.113963" lon="1.586809">
        <ele>0.0</ele>
        <time>2014-01-11T14:18:44Z</time>
      </trkpt>
      <trkpt lat="42.113969" lon="1.586856">
        <ele>0.0</ele>
        <time>2014-01-11T14:19:04Z</time>
      </trkpt>
      <trkpt lat="42.114000" lon="1.586860">
        <ele>0.0</ele>
        <time>2014-01-11T14:19:24Z</time>
      </trkpt>
      <trkpt lat="42.114040" lon="1.586831">
        <ele>0.0</ele>
        <time>2014-01-11T14:19:44Z</time>
      </trkpt>
      <trkpt lat="42.114028" lon="1.586888">
        <ele>0.0</ele>
        <time>2014-01-11T14:20:04Z</time>
      </trkpt>
      <trkpt lat="42.114024" lon="1.586923">
        <ele>0.0</ele>
        <time>2014-01-11T14:20:24Z</time>
      </trkpt>
      <trkpt lat="42.113986" lon="1.586994">
        <ele>0.0</ele>
        <time>2014-01-11T14:20:44Z</time>
      </trkpt>
      <trkpt lat="42.113941" lon="1.587061">
        <ele>0.0</ele>
        <time>2014-01-11T14:21:04Z</time>
      </trkpt>
      <trkpt lat="42.113921" lon="1.587095">
        <ele>0.0</ele>
        <time>2014-01-11T14:21:24Z</time>
      </trkpt>
      <trkpt lat="42.113840" lon="1.587173">
        <ele>0.0</ele>
        <time>2014-01-11T14:21:44Z</time>
      </trkpt>
      <trkpt lat="42.113815" lon="1.587196">
        <ele>0.0</ele>
        <time>2014-01-11T14:22:04Z</time>
      </trkpt>
      <trkpt lat="42.113754" lon="1.587247">
        <ele>0.0</ele>
        <time>2014-01-11T14:22:24Z</time>
      </trkpt>
      <trkpt lat="42.113739" lon="1.587284">
        <ele>0.0</ele>
        <time>2014-01-11T14:22:44Z</time>
      </trkpt>
      <trkpt lat="42.113674" lon="1.587336">
        <ele>0.0</ele>
        <time>2014-01-11T14:23:04Z</time>
      </trkpt>
      <trkpt lat="42.113650" lon="1.587352">
        <ele>0.0</ele>
        <time>2014-01-11T14:23:24Z</time>
      </trkpt>
      <trkpt lat="42.113581" lon="1.587432">
        <ele>0.0</ele>
        <time>2014-01-11T14:23:44Z</time>
      </trkpt>
      <trkpt lat="42.113578" lon="1.587436">
        <ele>0.0</ele>
        <time>2014-01-11T14:24:04Z</time>
      </trkpt>
      <trkpt lat="42.113587" lon="1.587458">
        <ele>0.0</ele>
        <time>2014-01-11T14:24:24Z</time>
      </trkpt>
      <trkpt lat="42.113578" lon="1.587462">
        <ele>0.0</ele>
        <time>2014-01-11T14:24:44Z</time>
      </trkpt>
      <trkpt lat="42.113568" lon="1.587467">
        <ele>0.0</ele>
        <time>2014-01-11T14:25:04Z</time>
      </trkpt>
      <trkpt lat="42.113556" lon="1.587490">
        <ele>0.0</ele>
        <time>2014-01-11T14:25:24Z</time>
      </trkpt>
      <trkpt lat="42.113518" lon="1.587576">
        <ele>0.0</ele>
        <time>2014-01-11T14:25:44Z</time>
      </trkpt>
      <trkpt lat="42.113496" lon="1.587604">
        <ele>0.0</ele>
        <time>2014-01-11T14:26:04Z</time>
      </trkpt>
      <trkpt lat="42.113486" lon="1.587613">
        <ele>0.0</ele>
        <time>2014-01-11T14:26:24Z</time>
      </trkpt>
      <trkpt lat="42.113465" lon="1.587636">
        <ele>0.0</ele>
        <time>2014-01-11T14:26:44Z</time>
      </trkpt>
      <trkpt lat="42.113455" lon="1.587637">
        <ele>0.0</ele>
        <time>2014-01-11T14:27:04Z</time>
      </trkpt>
      <trkpt lat="42.113444" lon="1.587632">
        <ele>0.0</ele>
        <time>2014-01-11T14:27:24Z</time>
      </trkpt>
      <trkpt lat="42.113407" lon="1.587624">
        <ele>0.0</ele>
        <time>2014-01-11T14:27:44Z</time>
      </trkpt>
      <trkpt lat="42.113381" lon="1.587616">
        <ele>0.0</ele>
        <time>2014-01-11T14:28:04Z</time>
      </trkpt>
      <trkpt lat="42.113372" lon="1.587636">
        <ele>0.0</ele>
        <time>2014-01-11T14:28:24Z</time>
      </trkpt>
      <trkpt lat="42.113371" lon="1.587639">
        <ele>0.0</ele>
        <time>2014-01-11T14:28:44Z</time>
      </trkpt>
      <trkpt lat="42.113356" lon="1.587673">
        <ele>0.0</ele>
        <time>2014-01-11T14:29:04Z</time>
      </trkpt>
      <trkpt lat="42.113354" lon="1.587679">
        <ele>0.0</ele>
        <time>2014-01-11T14:29:24Z</time>
      </trkpt>
      <trkpt lat="42.113317" lon="1.587777">
        <ele>0.0</ele>
        <time>2014-01-11T14:29:44Z</time>
      </trkpt>
      <trkpt lat="42.113307" lon="1.587825">
        <ele>0.0</ele>
        <time>2014-01-11T14:30:04Z</time>
      </trkpt>
      <trkpt lat="42.113292" lon="1.587889">
        <ele>0.0</ele>
        <time>2014-01-11T14:30:24Z</time>
      </trkpt>
      <trkpt lat="42.113273" lon="1.587966">
        <ele>0.0</ele>
        <time>2014-01-11T14:30:44Z</time>
      </trkpt>
      <trkpt lat="42.113246" lon="1.588045">
        <ele>0.0</ele>
        <time>2014-01-11T14:31:04Z</time>
      </trkpt>
      <trkpt lat="42.113210" lon="1.588115">
        <ele>0.0</ele>
        <time>2014-01-11T14:31:24Z</time>
      </trkpt>
      <trkpt lat="42.113152" lon="1.588278">
        <ele>0.0</ele>
        <time>2014-01-11T14:31:44Z</time>
      </trkpt>
      <trkpt lat="42.113207" lon="1.588114">
        <ele>0.0</ele>
        <time>2014-01-11T14:32:04Z</time>
      </trkpt>
      <trkpt lat="42.113243" lon="1.588052">
        <ele>0.0</ele>
        <time>2014-01-11T14:32:24Z</time>
      </trkpt>
      <trkpt lat="42.113266" lon="1.587968">
        <ele>0.0</ele>
        <time>2014-01-11T14:32:44Z</time>
      </trkpt>
      <trkpt lat="42.113293" lon="1.587889">
        <ele>0.0</ele>
        <time>2014-01-11T14:33:04Z</time>
      </trkpt>
      <trkpt lat="42.113331" lon="1.587819">
        <ele>0.0</ele>
        <time>2014-01-11T14:33:24Z</time>
      </trkpt>
      <trkpt lat="42.113383" lon="1.587765">
        <ele>0.0</ele>
        <time>2014-01-11T14:33:44Z</time>
      </trkpt>
      <trkpt lat="42.113418" lon="1.587741">
        <ele>0.0</ele>
        <time>2014-01-11T14:34:04Z</time>
      </trkpt>
      <trkpt lat="42.113478" lon="1.587750">
        <ele>0.0</ele>
        <time>2014-01-11T14:34:24Z</time>
      </trkpt>
      <trkpt lat="42.113512" lon="1.587781">
        <ele>0.0</ele>
        <time>2014-01-11T14:34:44Z</time>
      </trkpt>
      <trkpt lat="42.113531" lon="1.587774">
        <ele>0.0</ele>
        <time>2014-01-11T14:35:04Z</time>
      </trkpt>
      <trkpt lat="42.113558" lon="1.587764">
        <ele>0.0</ele>
        <time>2014-01-11T14:35:24Z</time>
      </trkpt>
      <trkpt lat="42.113618" lon="1.587708">
        <ele>0.0</ele>
        <time>2014-01-11T14:35:44Z</time>
      </trkpt>
      <trkpt lat="42.113601" lon="1.587653">
        <ele>0.0</ele>
        <time>2014-01-11T14:36:04Z</time>
      </trkpt>
      <trkpt lat="42.113651" lon="1.587622">
        <ele>0.0</ele>
        <time>2014-01-11T14:36:24Z</time>
      </trkpt>
      <trkpt lat="42.113699" lon="1.587555">
        <ele>0.0</ele>
        <time>2014-01-11T14:36:44Z</time>
      </trkpt>
      <trkpt lat="42.113745" lon="1.587520">
        <ele>0.0</ele>
        <time>2014-01-11T14:37:04Z</time>
      </trkpt>
      <trkpt lat="42.113777" lon="1.587500">
        <ele>0.0</ele>
        <time>2014-01-11T14:37:24Z</time>
      </trkpt>
      <trkpt lat="42.113839" lon="1.587420">
        <ele>0.0</ele>
        <time>2014-01-11T14:37:44Z</time>
      </trkpt>
      <trkpt lat="42.113920" lon="1.587361">
        <ele>0.0</ele>
        <time>2014-01-11T14:38:04Z</time>
      </trkpt>
      <trkpt lat="42.114060" lon="1.587191">
        <ele>0.0</ele>
        <time>2014-01-11T14:38:24Z</time>
      </trkpt>
      <trkpt lat="42.114138" lon="1.587021">
        <ele>0.0</ele>
        <time>2014-01-11T14:38:44Z</time>
      </trkpt>
      <trkpt lat="42.114154" lon="1.586938">
        <ele>0.0</ele>
        <time>2014-01-11T14:39:04Z</time>
      </trkpt>
      <trkpt lat="42.114177" lon="1.586884">
        <ele>0.0</ele>
        <time>2014-01-11T14:39:24Z</time>
      </trkpt>
      <trkpt lat="42.114249" lon="1.586794">
        <ele>0.0</ele>
        <time>2014-01-11T14:39:44Z</time>
      </trkpt>
      <trkpt lat="42.114287" lon="1.586740">
        <ele>0.0</ele>
        <time>2014-01-11T14:40:04Z</time>
      </trkpt>
      <trkpt lat="42.114300" lon="1.586715">
        <ele>0.0</ele>
        <time>2014-01-11T14:40:24Z</time>
      </trkpt>
      <trkpt lat="42.114384" lon="1.586547">
        <ele>0.0</ele>
        <time>2014-01-11T14:40:44Z</time>
      </trkpt>
      <trkpt lat="42.114552" lon="1.586341">
        <ele>0.0</ele>
        <time>2014-01-11T14:41:04Z</time>
      </trkpt>
      <trkpt lat="42.114598" lon="1.586296">
        <ele>0.0</ele>
        <time>2014-01-11T14:41:24Z</time>
      </trkpt>
      <trkpt lat="42.114791" lon="1.586093">
        <ele>0.0</ele>
        <time>2014-01-11T14:41:44Z</time>
      </trkpt>
      <trkpt lat="42.114970" lon="1.585829">
        <ele>0.0</ele>
        <time>2014-01-11T14:42:04Z</time>
      </trkpt>
      <trkpt lat="42.115077" lon="1.585635">
        <ele>0.0</ele>
        <time>2014-01-11T14:42:24Z</time>
      </trkpt>
      <trkpt lat="42.115203" lon="1.585396">
        <ele>0.0</ele>
        <time>2014-01-11T14:42:44Z</time>
      </trkpt>
      <trkpt lat="42.115443" lon="1.585106">
        <ele>0.0</ele>
        <time>2014-01-11T14:43:04Z</time>
      </trkpt>
      <trkpt lat="42.115549" lon="1.584959">
        <ele>0.0</ele>
        <time>2014-01-11T14:43:24Z</time>
      </trkpt>
      <trkpt lat="42.115692" lon="1.584820">
        <ele>0.0</ele>
        <time>2014-01-11T14:43:44Z</time>
      </trkpt>
      <trkpt lat="42.115814" lon="1.584701">
        <ele>0.0</ele>
        <time>2014-01-11T14:44:04Z</time>
      </trkpt>
      <trkpt lat="42.115910" lon="1.584540">
        <ele>0.0</ele>
        <time>2014-01-11T14:44:24Z</time>
      </trkpt>
      <trkpt lat="42.115983" lon="1.584454">
        <ele>0.0</ele>
        <time>2014-01-11T14:44:44Z</time>
      </trkpt>
      <trkpt lat="42.116043" lon="1.584347">
        <ele>0.0</ele>
        <time>2014-01-11T14:45:04Z</time>
      </trkpt>
      <trkpt lat="42.116101" lon="1.584264">
        <ele>0.0</ele>
        <time>2014-01-11T14:45:24Z</time>
      </trkpt>
      <trkpt lat="42.116106" lon="1.584236">
        <ele>0.0</ele>
        <time>2014-01-11T14:45:44Z</time>
      </trkpt>
      <trkpt lat="42.116098" lon="1.584176">
        <ele>0.0</ele>
        <time>2014-01-11T14:46:04Z</time>
      </trkpt>
      <trkpt lat="42.116158" lon="1.584088">
        <ele>0.0</ele>
        <time>2014-01-11T14:46:24Z</time>
      </trkpt>
      <trkpt lat="42.116207" lon="1.584061">
        <ele>0.0</ele>
        <time>2014-01-11T14:46:44Z</time>
      </trkpt>
      <trkpt lat="42.116292" lon="1.583910">
        <ele>0.0</ele>
        <time>2014-01-11T14:47:04Z</time>
      </trkpt>
      <trkpt lat="42.116393" lon="1.583783">
        <ele>0.0</ele>
        <time>2014-01-11T14:47:24Z</time>
      </trkpt>
      <trkpt lat="42.116472" lon="1.583726">
        <ele>0.0</ele>
        <time>2014-01-11T14:47:44Z</time>
      </trkpt>
      <trkpt lat="42.116531" lon="1.583696">
        <ele>0.0</ele>
        <time>2014-01-11T14:48:04Z</time>
      </trkpt>
      <trkpt lat="42.116583" lon="1.583651">
        <ele>0.0</ele>
        <time>2014-01-11T14:48:24Z</time>
      </trkpt>
      <trkpt lat="42.116653" lon="1.583593">
        <ele>0.0</ele>
        <time>2014-01-11T14:48:44Z</time>
      </trkpt>
      <trkpt lat="42.116631" lon="1.583561">
        <ele>0.0</ele>
        <time>2014-01-11T14:49:04Z</time>
      </trkpt>
      <trkpt lat="42.116569" lon="1.583532">
        <ele>0.0</ele>
        <time>2014-01-11T14:49:24Z</time>
      </trkpt>
      <trkpt lat="42.116574" lon="1.583482">
        <ele>0.0</ele>
        <time>2014-01-11T14:49:44Z</time>
      </trkpt>
      <trkpt lat="42.116591" lon="1.583481">
        <ele>0.0</ele>
        <time>2014-01-11T14:50:04Z</time>
      </trkpt>
      <trkpt lat="42.116597" lon="1.583477">
        <ele>0.0</ele>
        <time>2014-01-11T14:50:24Z</time>
      </trkpt>
      <trkpt lat="42.116610" lon="1.583465">
        <ele>0.0</ele>
        <time>2014-01-11T14:50:44Z</time>
      </trkpt>
      <trkpt lat="42.116617" lon="1.583459">
        <ele>0.0</ele>
        <time>2014-01-11T14:51:04Z</time>
      </trkpt>
      <trkpt lat="42.116615" lon="1.583460">
        <ele>0.0</ele>
        <time>2014-01-11T14:51:24Z</time>
      </trkpt>
      <trkpt lat="42.116607" lon="1.583442">
        <ele>0.0</ele>
        <time>2014-01-11T14:51:44Z</time>
      </trkpt>
      <trkpt lat="42.116607" lon="1.583438">
        <ele>0.0</ele>
        <time>2014-01-11T14:52:04Z</time>
      </trkpt>
      <trkpt lat="42.116622" lon="1.583418">
        <ele>0.0</ele>
        <time>2014-01-11T14:52:24Z</time>
      </trkpt>
      <trkpt lat="42.116637" lon="1.583377">
        <ele>0.0</ele>
        <time>2014-01-11T14:52:44Z</time>
      </trkpt>
      <trkpt lat="42.116648" lon="1.583364">
        <ele>0.0</ele>
        <time>2014-01-11T14:53:04Z</time>
      </trkpt>
      <trkpt lat="42.116708" lon="1.583286">
        <ele>0.0</ele>
        <time>2014-01-11T14:53:24Z</time>
      </trkpt>
      <trkpt lat="42.116770" lon="1.583188">
        <ele>0.0</ele>
        <time>2014-01-11T14:53:44Z</time>
      </trkpt>
      <trkpt lat="42.116879" lon="1.583098">
        <ele>0.0</ele>
        <time>2014-01-11T14:54:04Z</time>
      </trkpt>
      <trkpt lat="42.116943" lon="1.583000">
        <ele>0.0</ele>
        <time>2014-01-11T14:54:24Z</time>
      </trkpt>
      <trkpt lat="42.116978" lon="1.582944">
        <ele>0.0</ele>
        <time>2014-01-11T14:54:44Z</time>
      </trkpt>
      <trkpt lat="42.116995" lon="1.582924">
        <ele>0.0</ele>
        <time>2014-01-11T14:55:04Z</time>
      </trkpt>
      <trkpt lat="42.117011" lon="1.582905">
        <ele>0.0</ele>
        <time>2014-01-11T14:55:24Z</time>
      </trkpt>
      <trkpt lat="42.117016" lon="1.582896">
        <ele>0.0</ele>
        <time>2014-01-11T14:55:44Z</time>
      </trkpt>
      <trkpt lat="42.117022" lon="1.582889">
        <ele>0.0</ele>
        <time>2014-01-11T14:56:04Z</time>
      </trkpt>
      <trkpt lat="42.117051" lon="1.582839">
        <ele>0.0</ele>
        <time>2014-01-11T14:56:24Z</time>
      </trkpt>
      <trkpt lat="42.117067" lon="1.582821">
        <ele>0.0</ele>
        <time>2014-01-11T14:56:44Z</time>
      </trkpt>
      <trkpt lat="42.117057" lon="1.582807">
        <ele>0.0</ele>
        <time>2014-01-11T14:57:04Z</time>
      </trkpt>
      <trkpt lat="42.117068" lon="1.582779">
        <ele>0.0</ele>
        <time>2014-01-11T14:57:24Z</time>
      </trkpt>
      <trkpt lat="42.117278" lon="1.582656">
        <ele>0.0</ele>
        <time>2014-01-11T14:57:44Z</time>
      </trkpt>
      <trkpt lat="42.117413" lon="1.582560">
        <ele>0.0</ele>
        <time>2014-01-11T14:58:04Z</time>
      </trkpt>
      <trkpt lat="42.117436" lon="1.582535">
        <ele>0.0</ele>
        <time>2014-01-11T14:58:24Z</time>
      </trkpt>
      <trkpt lat="42.117463" lon="1.582500">
        <ele>0.0</ele>
        <time>2014-01-11T14:58:44Z</time>
      </trkpt>
      <trkpt lat="42.117495" lon="1.582432">
        <ele>0.0</ele>
        <time>2014-01-11T14:59:04Z</time>
      </trkpt>
      <trkpt lat="42.117572" lon="1.582320">
        <ele>0.0</ele>
        <time>2014-01-11T14:59:24Z</time>
      </trkpt>
      <trkpt lat="42.117645" lon="1.582225">
        <ele>0.0</ele>
        <time>2014-01-11T14:59:44Z</time>
      </trkpt>
      <trkpt lat="42.117710" lon="1.582157">
        <ele>0.0</ele>
        <time>2014-01-11T15:00:04Z</time>
      </trkpt>
      <trkpt lat="42.117787" lon="1.582089">
        <ele>0.0</ele>
        <time>2014-01-11T15:00:24Z</time>
      </trkpt>
      <trkpt lat="42.117874" lon="1.581916">
        <ele>0.0</ele>
        <time>2014-01-11T15:00:44Z</time>
      </trkpt>
      <trkpt lat="42.117897" lon="1.581874">
        <ele>0.0</ele>
        <time>2014-01-11T15:01:04Z</time>
      </trkpt>
      <trkpt lat="42.117966" lon="1.581796">
        <ele>0.0</ele>
        <time>2014-01-11T15:01:24Z</time>
      </trkpt>
      <trkpt lat="42.118084" lon="1.581744">
        <ele>0.0</ele>
        <time>2014-01-11T15:01:44Z</time>
      </trkpt>
      <trkpt lat="42.118120" lon="1.581733">
        <ele>0.0</ele>
        <time>2014-01-11T15:02:04Z</time>
      </trkpt>
      <trkpt lat="42.118143" lon="1.581720">
        <ele>0.0</ele>
        <time>2014-01-11T15:02:24Z</time>
      </trkpt>
      <trkpt lat="42.118156" lon="1.581713">
        <ele>0.0</ele>
        <time>2014-01-11T15:02:44Z</time>
      </trkpt>
      <trkpt lat="42.118269" lon="1.581634">
        <ele>0.0</ele>
        <time>2014-01-11T15:03:04Z</time>
      </trkpt>
      <trkpt lat="42.118360" lon="1.581552">
        <ele>0.0</ele>
        <time>2014-01-11T15:03:24Z</time>
      </trkpt>
      <trkpt lat="42.118417" lon="1.581515">
        <ele>0.0</ele>
        <time>2014-01-11T15:03:44Z</time>
      </trkpt>
      <trkpt lat="42.118505" lon="1.581443">
        <ele>0.0</ele>
        <time>2014-01-11T15:04:04Z</time>
      </trkpt>
      <trkpt lat="42.118555" lon="1.581405">
        <ele>0.0</ele>
        <time>2014-01-11T15:04:24Z</time>
      </trkpt>
      <trkpt lat="42.118562" lon="1.581399">
        <ele>0.0</ele>
        <time>2014-01-11T15:04:44Z</time>
      </trkpt>
      <trkpt lat="42.118597" lon="1.581336">
        <ele>0.0</ele>
        <time>2014-01-11T15:05:04Z</time>
      </trkpt>
      <trkpt lat="42.118693" lon="1.581205">
        <ele>0.0</ele>
        <time>2014-01-11T15:05:24Z</time>
      </trkpt>
      <trkpt lat="42.118725" lon="1.581088">
        <ele>0.0</ele>
        <time>2014-01-11T15:05:44Z</time>
      </trkpt>
      <trkpt lat="42.118730" lon="1.581071">
        <ele>0.0</ele>
        <time>2014-01-11T15:06:04Z</time>
      </trkpt>
      <trkpt lat="42.118787" lon="1.580968">
        <ele>0.0</ele>
        <time>2014-01-11T15:06:24Z</time>
      </trkpt>
      <trkpt lat="42.118842" lon="1.580899">
        <ele>0.0</ele>
        <time>2014-01-11T15:06:44Z</time>
      </trkpt>
      <trkpt lat="42.118962" lon="1.580574">
        <ele>0.0</ele>
        <time>2014-01-11T15:07:04Z</time>
      </trkpt>
      <trkpt lat="42.119057" lon="1.580401">
        <ele>0.0</ele>
        <time>2014-01-11T15:07:24Z</time>
      </trkpt>
      <trkpt lat="42.119126" lon="1.580372">
        <ele>0.0</ele>
        <time>2014-01-11T15:07:44Z</time>
      </trkpt>
      <trkpt lat="42.119175" lon="1.580342">
        <ele>0.0</ele>
        <time>2014-01-11T15:08:04Z</time>
      </trkpt>
      <trkpt lat="42.119208" lon="1.580328">
        <ele>0.0</ele>
        <time>2014-01-11T15:08:24Z</time>
      </trkpt>
      <trkpt lat="42.119263" lon="1.580309">
        <ele>0.0</ele>
        <time>2014-01-11T15:08:44Z</time>
      </trkpt>
      <trkpt lat="42.119339" lon="1.580253">
        <ele>0.0</ele>
        <time>2014-01-11T15:09:04Z</time>
      </trkpt>
      <trkpt lat="42.119376" lon="1.580221">
        <ele>0.0</ele>
        <time>2014-01-11T15:09:24Z</time>
      </trkpt>
      <trkpt lat="42.119396" lon="1.580195">
        <ele>0.0</ele>
        <time>2014-01-11T15:09:44Z</time>
      </trkpt>
      <trkpt lat="42.119468" lon="1.580032">
        <ele>0.0</ele>
        <time>2014-01-11T15:10:04Z</time>
      </trkpt>
      <trkpt lat="42.119467" lon="1.580026">
        <ele>0.0</ele>
        <time>2014-01-11T15:10:24Z</time>
      </trkpt>
      <trkpt lat="42.119485" lon="1.579855">
        <ele>0.0</ele>
        <time>2014-01-11T15:10:44Z</time>
      </trkpt>
      <trkpt lat="42.119484" lon="1.579807">
        <ele>0.0</ele>
        <time>2014-01-11T15:11:04Z</time>
      </trkpt>
      <trkpt lat="42.119492" lon="1.579724">
        <ele>0.0</ele>
        <time>2014-01-11T15:11:24Z</time>
      </trkpt>
      <trkpt lat="42.119508" lon="1.579637">
        <ele>0.0</ele>
        <time>2014-01-11T15:11:44Z</time>
      </trkpt>
      <trkpt lat="42.119538" lon="1.579494">
        <ele>0.0</ele>
        <time>2014-01-11T15:12:04Z</time>
      </trkpt>
      <trkpt lat="42.119543" lon="1.579467">
        <ele>0.0</ele>
        <time>2014-01-11T15:12:24Z</time>
      </trkpt>
      <trkpt lat="42.119542" lon="1.579468">
        <ele>0.0</ele>
        <time>2014-01-11T15:12:44Z</time>
      </trkpt>
      <trkpt lat="42.119539" lon="1.579459">
        <ele>0.0</ele>
        <time>2014-01-11T15:13:04Z</time>
      </trkpt>
      <trkpt lat="42.119537" lon="1.579459">
        <ele>0.0</ele>
        <time>2014-01-11T15:13:24Z</time>
      </trkpt>
      <trkpt lat="42.119543" lon="1.579458">
        <ele>0.0</ele>
        <time>2014-01-11T15:13:44Z</time>
      </trkpt>
      <trkpt lat="42.119557" lon="1.579452">
        <ele>0.0</ele>
        <time>2014-01-11T15:14:04Z</time>
      </trkpt>
      <trkpt lat="42.119561" lon="1.579451">
        <ele>0.0</ele>
        <time>2014-01-11T15:14:24Z</time>
      </trkpt>
      <trkpt lat="42.119576" lon="1.579417">
        <ele>0.0</ele>
        <time>2014-01-11T15:14:44Z</time>
      </trkpt>
      <trkpt lat="42.119605" lon="1.579411">
        <ele>0.0</ele>
        <time>2014-01-11T15:15:04Z</time>
      </trkpt>
      <trkpt lat="42.119576" lon="1.579404">
        <ele>0.0</ele>
        <time>2014-01-11T15:15:24Z</time>
      </trkpt>
      <trkpt lat="42.119642" lon="1.579165">
        <ele>0.0</ele>
        <time>2014-01-11T15:15:44Z</time>
      </trkpt>
      <trkpt lat="42.119745" lon="1.578864">
        <ele>0.0</ele>
        <time>2014-01-11T15:16:04Z</time>
      </trkpt>
      <trkpt lat="42.119777" lon="1.578722">
        <ele>0.0</ele>
        <time>2014-01-11T15:16:24Z</time>
      </trkpt>
      <trkpt lat="42.119855" lon="1.578551">
        <ele>0.0</ele>
        <time>2014-01-11T15:16:44Z</time>
      </trkpt>
      <trkpt lat="42.119966" lon="1.578351">
        <ele>0.0</ele>
        <time>2014-01-11T15:17:04Z</time>
      </trkpt>
      <trkpt lat="42.120051" lon="1.578156">
        <ele>0.0</ele>
        <time>2014-01-11T15:17:24Z</time>
      </trkpt>
      <trkpt lat="42.120119" lon="1.577973">
        <ele>0.0</ele>
        <time>2014-01-11T15:17:44Z</time>
      </trkpt>
      <trkpt lat="42.120169" lon="1.577859">
        <ele>0.0</ele>
        <time>2014-01-11T15:18:04Z</time>
      </trkpt>
      <trkpt lat="42.120239" lon="1.577806">
        <ele>0.0</ele>
        <time>2014-01-11T15:18:24Z</time>
      </trkpt>
      <trkpt lat="42.120342" lon="1.577772">
        <ele>0.0</ele>
        <time>2014-01-11T15:18:44Z</time>
      </trkpt>
      <trkpt lat="42.120492" lon="1.577720">
        <ele>0.0</ele>
        <time>2014-01-11T15:19:04Z</time>
      </trkpt>
      <trkpt lat="42.120608" lon="1.577661">
        <ele>0.0</ele>
        <time>2014-01-11T15:19:24Z</time>
      </trkpt>
      <trkpt lat="42.120712" lon="1.577555">
        <ele>0.0</ele>
        <time>2014-01-11T15:19:44Z</time>
      </trkpt>
      <trkpt lat="42.120860" lon="1.577341">
        <ele>0.0</ele>
        <time>2014-01-11T15:20:04Z</time>
      </trkpt>
      <trkpt lat="42.120996" lon="1.577153">
        <ele>0.0</ele>
        <time>2014-01-11T15:20:24Z</time>
      </trkpt>
      <trkpt lat="42.121102" lon="1.576998">
        <ele>0.0</ele>
        <time>2014-01-11T15:20:44Z</time>
      </trkpt>
      <trkpt lat="42.121177" lon="1.576878">
        <ele>0.0</ele>
        <time>2014-01-11T15:21:04Z</time>
      </trkpt>
      <trkpt lat="42.121292" lon="1.576711">
        <ele>0.0</ele>
        <time>2014-01-11T15:21:24Z</time>
      </trkpt>
      <trkpt lat="42.121355" lon="1.576635">
        <ele>0.0</ele>
        <time>2014-01-11T15:21:44Z</time>
      </trkpt>
      <trkpt lat="42.121424" lon="1.576600">
        <ele>0.0</ele>
        <time>2014-01-11T15:22:04Z</time>
      </trkpt>
      <trkpt lat="42.121525" lon="1.576632">
        <ele>0.0</ele>
        <time>2014-01-11T15:22:24Z</time>
      </trkpt>
      <trkpt lat="42.121654" lon="1.576680">
        <ele>0.0</ele>
        <time>2014-01-11T15:22:44Z</time>
      </trkpt>
      <trkpt lat="42.121715" lon="1.576697">
        <ele>0.0</ele>
        <time>2014-01-11T15:23:04Z</time>
      </trkpt>
      <trkpt lat="42.121785" lon="1.576684">
        <ele>0.0</ele>
        <time>2014-01-11T15:23:24Z</time>
      </trkpt>
      <trkpt lat="42.121901" lon="1.576625">
        <ele>0.0</ele>
        <time>2014-01-11T15:23:44Z</time>
      </trkpt>
      <trkpt lat="42.122022" lon="1.576551">
        <ele>0.0</ele>
        <time>2014-01-11T15:24:04Z</time>
      </trkpt>
      <trkpt lat="42.122118" lon="1.576463">
        <ele>0.0</ele>
        <time>2014-01-11T15:24:24Z</time>
      </trkpt>
      <trkpt lat="42.122189" lon="1.576365">
        <ele>0.0</ele>
        <time>2014-01-11T15:24:44Z</time>
      </trkpt>
      <trkpt lat="42.122293" lon="1.576268">
        <ele>0.0</ele>
        <time>2014-01-11T15:25:04Z</time>
      </trkpt>
      <trkpt lat="42.122353" lon="1.576231">
        <ele>0.0</ele>
        <time>2014-01-11T15:25:24Z</time>
      </trkpt>
      <trkpt lat="42.122390" lon="1.576228">
        <ele>0.0</ele>
        <time>2014-01-11T15:25:44Z</time>
      </trkpt>
      <trkpt lat="42.122464" lon="1.576262">
        <ele>0.0</ele>
        <time>2014-01-11T15:26:04Z</time>
      </trkpt>
      <trkpt lat="42.122576" lon="1.576291">
        <ele>0.0</ele>
        <time>2014-01-11T15:26:24Z</time>
      </trkpt>
      <trkpt lat="42.122640" lon="1.576297">
        <ele>0.0</ele>
        <time>2014-01-11T15:26:44Z</time>
      </trkpt>
      <trkpt lat="42.122757" lon="1.576289">
        <ele>0.0</ele>
        <time>2014-01-11T15:27:04Z</time>
      </trkpt>
      <trkpt lat="42.122836" lon="1.576274">
        <ele>0.0</ele>
        <time>2014-01-11T15:27:24Z</time>
      </trkpt>
      <trkpt lat="42.122957" lon="1.576204">
        <ele>0.0</ele>
        <time>2014-01-11T15:27:44Z</time>
      </trkpt>
      <trkpt lat="42.123058" lon="1.576134">
        <ele>0.0</ele>
        <time>2014-01-11T15:28:04Z</time>
      </trkpt>
      <trkpt lat="42.123150" lon="1.576116">
        <ele>0.0</ele>
        <time>2014-01-11T15:28:24Z</time>
      </trkpt>
      <trkpt lat="42.123255" lon="1.576058">
        <ele>0.0</ele>
        <time>2014-01-11T15:28:44Z</time>
      </trkpt>
      <trkpt lat="42.123354" lon="1.575990">
        <ele>0.0</ele>
        <time>2014-01-11T15:29:04Z</time>
      </trkpt>
      <trkpt lat="42.123430" lon="1.575897">
        <ele>0.0</ele>
        <time>2014-01-11T15:29:24Z</time>
      </trkpt>
      <trkpt lat="42.123493" lon="1.575811">
        <ele>0.0</ele>
        <time>2014-01-11T15:29:44Z</time>
      </trkpt>
      <trkpt lat="42.123560" lon="1.575668">
        <ele>0.0</ele>
        <time>2014-01-11T15:30:04Z</time>
      </trkpt>
      <trkpt lat="42.123641" lon="1.575561">
        <ele>0.0</ele>
        <time>2014-01-11T15:30:24Z</time>
      </trkpt>
      <trkpt lat="42.123765" lon="1.575446">
        <ele>0.0</ele>
        <time>2014-01-11T15:30:44Z</time>
      </trkpt>
      <trkpt lat="42.123848" lon="1.575403">
        <ele>0.0</ele>
        <time>2014-01-11T15:31:04Z</time>
      </trkpt>
      <trkpt lat="42.123981" lon="1.575373">
        <ele>0.0</ele>
        <time>2014-01-11T15:31:24Z</time>
      </trkpt>
      <trkpt lat="42.124087" lon="1.575380">
        <ele>0.0</ele>
        <time>2014-01-11T15:31:44Z</time>
      </trkpt>
      <trkpt lat="42.124261" lon="1.575414">
        <ele>0.0</ele>
        <time>2014-01-11T15:32:04Z</time>
      </trkpt>
      <trkpt lat="42.124316" lon="1.575424">
        <ele>0.0</ele>
        <time>2014-01-11T15:32:24Z</time>
      </trkpt>
      <trkpt lat="42.124378" lon="1.575403">
        <ele>0.0</ele>
        <time>2014-01-11T15:32:44Z</time>
      </trkpt>
      <trkpt lat="42.124464" lon="1.575306">
        <ele>0.0</ele>
        <time>2014-01-11T15:33:04Z</time>
      </trkpt>
      <trkpt lat="42.124553" lon="1.575248">
        <ele>0.0</ele>
        <time>2014-01-11T15:33:24Z</time>
      </trkpt>
      <trkpt lat="42.124670" lon="1.575239">
        <ele>0.0</ele>
        <time>2014-01-11T15:33:44Z</time>
      </trkpt>
      <trkpt lat="42.124760" lon="1.575217">
        <ele>0.0</ele>
        <time>2014-01-11T15:34:04Z</time>
      </trkpt>
      <trkpt lat="42.124942" lon="1.575230">
        <ele>0.0</ele>
        <time>2014-01-11T15:34:24Z</time>
      </trkpt>
      <trkpt lat="42.125058" lon="1.575279">
        <ele>0.0</ele>
        <time>2014-01-11T15:34:44Z</time>
      </trkpt>
      <trkpt lat="42.125142" lon="1.575287">
        <ele>0.0</ele>
        <time>2014-01-11T15:35:04Z</time>
      </trkpt>
      <trkpt lat="42.125231" lon="1.575222">
        <ele>0.0</ele>
        <time>2014-01-11T15:35:24Z</time>
      </trkpt>
      <trkpt lat="42.125316" lon="1.575173">
        <ele>0.0</ele>
        <time>2014-01-11T15:35:44Z</time>
      </trkpt>
      <trkpt lat="42.125539" lon="1.575073">
        <ele>0.0</ele>
        <time>2014-01-11T15:36:04Z</time>
      </trkpt>
      <trkpt lat="42.125708" lon="1.574991">
        <ele>0.0</ele>
        <time>2014-01-11T15:36:24Z</time>
      </trkpt>
      <trkpt lat="42.125867" lon="1.574893">
        <ele>0.0</ele>
        <time>2014-01-11T15:36:44Z</time>
      </trkpt>
      <trkpt lat="42.125970" lon="1.574866">
        <ele>0.0</ele>
        <time>2014-01-11T15:37:04Z</time>
      </trkpt>
      <trkpt lat="42.126019" lon="1.574901">
        <ele>0.0</ele>
        <time>2014-01-11T15:37:24Z</time>
      </trkpt>
      <trkpt lat="42.126060" lon="1.574963">
        <ele>0.0</ele>
        <time>2014-01-11T15:37:44Z</time>
      </trkpt>
      <trkpt lat="42.126164" lon="1.575232">
        <ele>0.0</ele>
        <time>2014-01-11T15:38:04Z</time>
      </trkpt>
      <trkpt lat="42.126231" lon="1.575433">
        <ele>0.0</ele>
        <time>2014-01-11T15:38:24Z</time>
      </trkpt>
      <trkpt lat="42.126279" lon="1.575524">
        <ele>0.0</ele>
        <time>2014-01-11T15:38:44Z</time>
      </trkpt>
      <trkpt lat="42.126365" lon="1.575560">
        <ele>0.0</ele>
        <time>2014-01-11T15:39:04Z</time>
      </trkpt>
      <trkpt lat="42.126425" lon="1.575532">
        <ele>0.0</ele>
        <time>2014-01-11T15:39:24Z</time>
      </trkpt>
      <trkpt lat="42.126643" lon="1.575165">
        <ele>0.0</ele>
        <time>2014-01-11T15:39:44Z</time>
      </trkpt>
      <trkpt lat="42.126865" lon="1.574850">
        <ele>0.0</ele>
        <time>2014-01-11T15:40:04Z</time>
      </trkpt>
      <trkpt lat="42.126978" lon="1.574697">
        <ele>0.0</ele>
        <time>2014-01-11T15:40:24Z</time>
      </trkpt>
      <trkpt lat="42.127062" lon="1.574600">
        <ele>0.0</ele>
        <time>2014-01-11T15:40:44Z</time>
      </trkpt>
      <trkpt lat="42.127153" lon="1.574538">
        <ele>0.0</ele>
        <time>2014-01-11T15:41:04Z</time>
      </trkpt>
      <trkpt lat="42.127223" lon="1.574532">
        <ele>0.0</ele>
        <time>2014-01-11T15:41:24Z</time>
      </trkpt>
      <trkpt lat="42.127298" lon="1.574582">
        <ele>0.0</ele>
        <time>2014-01-11T15:41:44Z</time>
      </trkpt>
      <trkpt lat="42.127339" lon="1.574709">
        <ele>0.0</ele>
        <time>2014-01-11T15:42:04Z</time>
      </trkpt>
      <trkpt lat="42.127373" lon="1.574827">
        <ele>0.0</ele>
        <time>2014-01-11T15:42:24Z</time>
      </trkpt>
      <trkpt lat="42.127453" lon="1.574924">
        <ele>0.0</ele>
        <time>2014-01-11T15:42:44Z</time>
      </trkpt>
      <trkpt lat="42.127525" lon="1.574944">
        <ele>0.0</ele>
        <time>2014-01-11T15:43:04Z</time>
      </trkpt>
      <trkpt lat="42.127643" lon="1.574953">
        <ele>0.0</ele>
        <time>2014-01-11T15:43:24Z</time>
      </trkpt>
      <trkpt lat="42.127758" lon="1.574986">
        <ele>0.0</ele>
        <time>2014-01-11T15:43:44Z</time>
      </trkpt>
      <trkpt lat="42.127855" lon="1.574946">
        <ele>0.0</ele>
        <time>2014-01-11T15:44:04Z</time>
      </trkpt>
      <trkpt lat="42.127930" lon="1.574834">
        <ele>0.0</ele>
        <time>2014-01-11T15:44:24Z</time>
      </trkpt>
      <trkpt lat="42.128049" lon="1.574564">
        <ele>0.0</ele>
        <time>2014-01-11T15:44:44Z</time>
      </trkpt>
      <trkpt lat="42.128185" lon="1.574314">
        <ele>0.0</ele>
        <time>2014-01-11T15:45:04Z</time>
      </trkpt>
      <trkpt lat="42.128350" lon="1.574131">
        <ele>0.0</ele>
        <time>2014-01-11T15:45:24Z</time>
      </trkpt>
      <trkpt lat="42.128503" lon="1.573900">
        <ele>0.0</ele>
        <time>2014-01-11T15:45:44Z</time>
      </trkpt>
      <trkpt lat="42.128640" lon="1.573765">
        <ele>0.0</ele>
        <time>2014-01-11T15:46:04Z</time>
      </trkpt>
      <trkpt lat="42.128645" lon="1.573779">
        <ele>0.0</ele>
        <time>2014-01-11T15:46:24Z</time>
      </trkpt>
      <trkpt lat="42.128633" lon="1.573693">
        <ele>0.0</ele>
        <time>2014-01-11T15:46:44Z</time>
      </trkpt>
      <trkpt lat="42.128651" lon="1.573620">
        <ele>0.0</ele>
        <time>2014-01-11T15:47:04Z</time>
      </trkpt>
      <trkpt lat="42.128654" lon="1.573609">
        <ele>0.0</ele>
        <time>2014-01-11T15:47:24Z</time>
      </trkpt>
      <trkpt lat="42.128651" lon="1.573604">
        <ele>0.0</ele>
        <time>2014-01-11T15:47:44Z</time>
      </trkpt>
      <trkpt lat="42.128653" lon="1.573592">
        <ele>0.0</ele>
        <time>2014-01-11T15:48:04Z</time>
      </trkpt>
      <trkpt lat="42.128652" lon="1.573572">
        <ele>0.0</ele>
        <time>2014-01-11T15:48:24Z</time>
      </trkpt>
      <trkpt lat="42.128651" lon="1.573544">
        <ele>0.0</ele>
        <time>2014-01-11T15:48:44Z</time>
      </trkpt>
      <trkpt lat="42.128660" lon="1.573532">
        <ele>0.0</ele>
        <time>2014-01-11T15:49:04Z</time>
      </trkpt>
      <trkpt lat="42.128675" lon="1.573505">
        <ele>0.0</ele>
        <time>2014-01-11T15:49:24Z</time>
      </trkpt>
      <trkpt lat="42.128682" lon="1.573478">
        <ele>0.0</ele>
        <time>2014-01-11T15:49:44Z</time>
      </trkpt>
      <trkpt lat="42.128712" lon="1.573353">
        <ele>0.0</ele>
        <time>2014-01-11T15:50:04Z</time>
      </trkpt>
      <trkpt lat="42.128733" lon="1.573285">
        <ele>0.0</ele>
        <time>2014-01-11T15:50:24Z</time>
      </trkpt>
      <trkpt lat="42.128739" lon="1.573219">
        <ele>0.0</ele>
        <time>2014-01-11T15:50:44Z</time>
      </trkpt>
      <trkpt lat="42.128744" lon="1.573114">
        <ele>0.0</ele>
        <time>2014-01-11T15:51:04Z</time>
      </trkpt>
      <trkpt lat="42.128761" lon="1.573065">
        <ele>0.0</ele>
        <time>2014-01-11T15:51:24Z</time>
      </trkpt>
      <trkpt lat="42.128775" lon="1.573050">
        <ele>0.0</ele>
        <time>2014-01-11T15:51:44Z</time>
      </trkpt>
      <trkpt lat="42.128811" lon="1.572940">
        <ele>0.0</ele>
        <time>2014-01-11T15:52:04Z</time>
      </trkpt>
      <trkpt lat="42.128789" lon="1.572890">
        <ele>0.0</ele>
        <time>2014-01-11T15:52:24Z</time>
      </trkpt>
      <trkpt lat="42.128750" lon="1.572842">
        <ele>0.0</ele>
        <time>2014-01-11T15:52:44Z</time>
      </trkpt>
      <trkpt lat="42.128740" lon="1.572756">
        <ele>0.0</ele>
        <time>2014-01-11T15:53:04Z</time>
      </trkpt>
      <trkpt lat="42.128742" lon="1.572673">
        <ele>0.0</ele>
        <time>2014-01-11T15:53:24Z</time>
      </trkpt>
      <trkpt lat="42.128766" lon="1.572536">
        <ele>0.0</ele>
        <time>2014-01-11T15:53:44Z</time>
      </trkpt>
      <trkpt lat="42.128773" lon="1.572497">
        <ele>0.0</ele>
        <time>2014-01-11T15:54:04Z</time>
      </trkpt>
      <trkpt lat="42.128811" lon="1.572373">
        <ele>0.0</ele>
        <time>2014-01-11T15:54:24Z</time>
      </trkpt>
      <trkpt lat="42.128863" lon="1.572242">
        <ele>0.0</ele>
        <time>2014-01-11T15:54:44Z</time>
      </trkpt>
      <trkpt lat="42.128888" lon="1.572188">
        <ele>0.0</ele>
        <time>2014-01-11T15:55:04Z</time>
      </trkpt>
      <trkpt lat="42.128919" lon="1.572177">
        <ele>0.0</ele>
        <time>2014-01-11T15:55:24Z</time>
      </trkpt>
      <trkpt lat="42.128954" lon="1.572225">
        <ele>0.0</ele>
        <time>2014-01-11T15:55:44Z</time>
      </trkpt>
      <trkpt lat="42.128978" lon="1.572194">
        <ele>0.0</ele>
        <time>2014-01-11T15:56:04Z</time>
      </trkpt>
      <trkpt lat="42.129030" lon="1.572067">
        <ele>0.0</ele>
        <time>2014-01-11T15:56:24Z</time>
      </trkpt>
      <trkpt lat="42.129060" lon="1.571993">
        <ele>0.0</ele>
        <time>2014-01-11T15:56:44Z</time>
      </trkpt>
      <trkpt lat="42.129104" lon="1.571909">
        <ele>0.0</ele>
        <time>2014-01-11T15:57:04Z</time>
      </trkpt>
      <trkpt lat="42.129165" lon="1.571875">
        <ele>0.0</ele>
        <time>2014-01-11T15:57:24Z</time>
      </trkpt>
      <trkpt lat="42.129183" lon="1.571923">
        <ele>0.0</ele>
        <time>2014-01-11T15:57:44Z</time>
      </trkpt>
      <trkpt lat="42.129199" lon="1.571936">
        <ele>0.0</ele>
        <time>2014-01-11T15:58:04Z</time>
      </trkpt>
      <trkpt lat="42.129195" lon="1.571934">
        <ele>0.0</ele>
        <time>2014-01-11T15:58:24Z</time>
      </trkpt>
      <trkpt lat="42.129209" lon="1.571933">
        <ele>0.0</ele>
        <time>2014-01-11T15:58:44Z</time>
      </trkpt>
      <trkpt lat="42.129342" lon="1.572047">
        <ele>0.0</ele>
        <time>2014-01-11T15:59:04Z</time>
      </trkpt>
      <trkpt lat="42.129371" lon="1.572047">
        <ele>0.0</ele>
        <time>2014-01-11T15:59:24Z</time>
      </trkpt>
      <trkpt lat="42.129400" lon="1.572128">
        <ele>0.0</ele>
        <time>2014-01-11T15:59:44Z</time>
      </trkpt>
      <trkpt lat="42.129444" lon="1.572173">
        <ele>0.0</ele>
        <time>2014-01-11T16:00:04Z</time>
      </trkpt>
      <trkpt lat="42.129450" lon="1.572159">
        <ele>0.0</ele>
        <time>2014-01-11T16:00:24Z</time>
      </trkpt>
      <trkpt lat="42.129458" lon="1.572159">
        <ele>0.0</ele>
        <time>2014-01-11T16:00:44Z</time>
      </trkpt>
      <trkpt lat="42.129449" lon="1.572209">
        <ele>0.0</ele>
        <time>2014-01-11T16:01:04Z</time>
      </trkpt>
      <trkpt lat="42.129489" lon="1.572207">
        <ele>0.0</ele>
        <time>2014-01-11T16:01:24Z</time>
      </trkpt>
      <trkpt lat="42.129486" lon="1.572143">
        <ele>0.0</ele>
        <time>2014-01-11T16:01:44Z</time>
      </trkpt>
      <trkpt lat="42.129575" lon="1.572077">
        <ele>0.0</ele>
        <time>2014-01-11T16:02:04Z</time>
      </trkpt>
      <trkpt lat="42.129634" lon="1.572055">
        <ele>0.0</ele>
        <time>2014-01-11T16:02:24Z</time>
      </trkpt>
      <trkpt lat="42.129644" lon="1.572019">
        <ele>0.0</ele>
        <time>2014-01-11T16:02:44Z</time>
      </trkpt>
      <trkpt lat="42.129662" lon="1.571962">
        <ele>0.0</ele>
        <time>2014-01-11T16:03:04Z</time>
      </trkpt>
      <trkpt lat="42.129697" lon="1.571930">
        <ele>0.0</ele>
        <time>2014-01-11T16:03:24Z</time>
      </trkpt>
      <trkpt lat="42.129712" lon="1.571985">
        <ele>0.0</ele>
        <time>2014-01-11T16:03:44Z</time>
      </trkpt>
      <trkpt lat="42.129708" lon="1.571987">
        <ele>0.0</ele>
        <time>2014-01-11T16:04:04Z</time>
      </trkpt>
      <trkpt lat="42.129672" lon="1.572055">
        <ele>0.0</ele>
        <time>2014-01-11T16:04:24Z</time>
      </trkpt>
      <trkpt lat="42.129672" lon="1.572104">
        <ele>0.0</ele>
        <time>2014-01-11T16:04:44Z</time>
      </trkpt>
      <trkpt lat="42.129660" lon="1.572168">
        <ele>0.0</ele>
        <time>2014-01-11T16:05:04Z</time>
      </trkpt>
      <trkpt lat="42.129645" lon="1.572246">
        <ele>0.0</ele>
        <time>2014-01-11T16:05:24Z</time>
      </trkpt>
      <trkpt lat="42.129642" lon="1.572272">
        <ele>0.0</ele>
        <time>2014-01-11T16:05:44Z</time>
      </trkpt>
      <trkpt lat="42.129659" lon="1.572296">
        <ele>0.0</ele>
        <time>2014-01-11T16:06:04Z</time>
      </trkpt>
      <trkpt lat="42.129657" lon="1.572320">
        <ele>0.0</ele>
        <time>2014-01-11T16:06:24Z</time>
      </trkpt>
      <trkpt lat="42.129658" lon="1.572329">
        <ele>0.0</ele>
        <time>2014-01-11T16:06:44Z</time>
      </trkpt>
      <trkpt lat="42.129688" lon="1.572272">
        <ele>0.0</ele>
        <time>2014-01-11T16:07:04Z</time>
      </trkpt>
      <trkpt lat="42.129702" lon="1.572255">
        <ele>0.0</ele>
        <time>2014-01-11T16:07:24Z</time>
      </trkpt>
      <trkpt lat="42.129724" lon="1.572226">
        <ele>0.0</ele>
        <time>2014-01-11T16:07:44Z</time>
      </trkpt>
      <trkpt lat="42.129772" lon="1.572251">
        <ele>0.0</ele>
        <time>2014-01-11T16:08:04Z</time>
      </trkpt>
      <trkpt lat="42.129851" lon="1.572264">
        <ele>0.0</ele>
        <time>2014-01-11T16:08:24Z</time>
      </trkpt>
      <trkpt lat="42.129859" lon="1.572244">
        <ele>0.0</ele>
        <time>2014-01-11T16:08:44Z</time>
      </trkpt>
      <trkpt lat="42.129924" lon="1.572189">
        <ele>0.0</ele>
        <time>2014-01-11T16:09:04Z</time>
      </trkpt>
      <trkpt lat="42.129933" lon="1.572169">
        <ele>0.0</ele>
        <time>2014-01-11T16:09:24Z</time>
      </trkpt>
      <trkpt lat="42.129950" lon="1.572017">
        <ele>0.0</ele>
        <time>2014-01-11T16:09:44Z</time>
      </trkpt>
      <trkpt lat="42.129967" lon="1.571993">
        <ele>0.0</ele>
        <time>2014-01-11T16:10:04Z</time>
      </trkpt>
      <trkpt lat="42.130012" lon="1.571948">
        <ele>0.0</ele>
        <time>2014-01-11T16:10:24Z</time>
      </trkpt>
      <trkpt lat="42.130073" lon="1.571831">
        <ele>0.0</ele>
        <time>2014-01-11T16:10:44Z</time>
      </trkpt>
      <trkpt lat="42.130154" lon="1.571798">
        <ele>0.0</ele>
        <time>2014-01-11T16:11:04Z</time>
      </trkpt>
      <trkpt lat="42.130192" lon="1.571772">
        <ele>0.0</ele>
        <time>2014-01-11T16:11:24Z</time>
      </trkpt>
      <trkpt lat="42.130252" lon="1.571708">
        <ele>0.0</ele>
        <time>2014-01-11T16:11:44Z</time>
      </trkpt>
      <trkpt lat="42.130287" lon="1.571608">
        <ele>0.0</ele>
        <time>2014-01-11T16:12:04Z</time>
      </trkpt>
      <trkpt lat="42.130324" lon="1.571493">
        <ele>0.0</ele>
        <time>2014-01-11T16:12:24Z</time>
      </trkpt>
      <trkpt lat="42.130382" lon="1.571401">
        <ele>0.0</ele>
        <time>2014-01-11T16:12:44Z</time>
      </trkpt>
      <trkpt lat="42.130399" lon="1.571383">
        <ele>0.0</ele>
        <time>2014-01-11T16:13:04Z</time>
      </trkpt>
      <trkpt lat="42.130486" lon="1.571294">
        <ele>0.0</ele>
        <time>2014-01-11T16:13:24Z</time>
      </trkpt>
      <trkpt lat="42.130589" lon="1.571184">
        <ele>0.0</ele>
        <time>2014-01-11T16:13:44Z</time>
      </trkpt>
      <trkpt lat="42.130607" lon="1.571159">
        <ele>0.0</ele>
        <time>2014-01-11T16:14:04Z</time>
      </trkpt>
      <trkpt lat="42.130610" lon="1.571148">
        <ele>0.0</ele>
        <time>2014-01-11T16:14:24Z</time>
      </trkpt>
      <trkpt lat="42.130662" lon="1.571056">
        <ele>0.0</ele>
        <time>2014-01-11T16:14:44Z</time>
      </trkpt>
      <trkpt lat="42.130748" lon="1.570950">
        <ele>0.0</ele>
        <time>2014-01-11T16:15:04Z</time>
      </trkpt>
      <trkpt lat="42.130761" lon="1.570930">
        <ele>0.0</ele>
        <time>2014-01-11T16:15:24Z</time>
      </trkpt>
      <trkpt lat="42.130764" lon="1.570923">
        <ele>0.0</ele>
        <time>2014-01-11T16:15:44Z</time>
      </trkpt>
      <trkpt lat="42.130789" lon="1.570908">
        <ele>0.0</ele>
        <time>2014-01-11T16:16:04Z</time>
      </trkpt>
      <trkpt lat="42.130848" lon="1.570890">
        <ele>0.0</ele>
        <time>2014-01-11T16:16:24Z</time>
      </trkpt>
      <trkpt lat="42.130898" lon="1.570891">
        <ele>0.0</ele>
        <time>2014-01-11T16:16:44Z</time>
      </trkpt>
      <trkpt lat="42.130973" lon="1.570888">
        <ele>0.0</ele>
        <time>2014-01-11T16:17:04Z</time>
      </trkpt>
      <trkpt lat="42.130988" lon="1.570887">
        <ele>0.0</ele>
        <time>2014-01-11T16:17:24Z</time>
      </trkpt>
      <trkpt lat="42.130996" lon="1.570888">
        <ele>0.0</ele>
        <time>2014-01-11T16:17:44Z</time>
      </trkpt>
      <trkpt lat="42.130998" lon="1.570888">
        <ele>0.0</ele>
        <time>2014-01-11T16:18:04Z</time>
      </trkpt>
      <trkpt lat="42.131603" lon="1.570453">
        <ele>0.0</ele>
        <time>2014-01-11T16:18:24Z</time>
      </trkpt>
      <trkpt lat="42.131827" lon="1.570266">
        <ele>0.0</ele>
        <time>2014-01-11T16:18:44Z</time>
      </trkpt>
      <trkpt lat="42.132121" lon="1.570362">
        <ele>0.0</ele>
        <time>2014-01-11T16:19:04Z</time>
      </trkpt>
      <trkpt lat="42.132204" lon="1.570419">
        <ele>0.0</ele>
        <time>2014-01-11T16:19:24Z</time>
      </trkpt>
      <trkpt lat="42.132473" lon="1.570512">
        <ele>0.0</ele>
        <time>2014-01-11T16:19:44Z</time>
      </trkpt>
      <trkpt lat="42.132682" lon="1.570571">
        <ele>0.0</ele>
        <time>2014-01-11T16:20:04Z</time>
      </trkpt>
      <trkpt lat="42.132893" lon="1.570580">
        <ele>0.0</ele>
        <time>2014-01-11T16:20:24Z</time>
      </trkpt>
      <trkpt lat="42.133057" lon="1.570427">
        <ele>0.0</ele>
        <time>2014-01-11T16:20:44Z</time>
      </trkpt>
      <trkpt lat="42.133072" lon="1.570156">
        <ele>0.0</ele>
        <time>2014-01-11T16:21:04Z</time>
      </trkpt>
      <trkpt lat="42.133239" lon="1.570072">
        <ele>0.0</ele>
        <time>2014-01-11T16:21:24Z</time>
      </trkpt>
      <trkpt lat="42.133358" lon="1.570217">
        <ele>0.0</ele>
        <time>2014-01-11T16:21:44Z</time>
      </trkpt>
      <trkpt lat="42.133429" lon="1.570377">
        <ele>0.0</ele>
        <time>2014-01-11T16:22:04Z</time>
      </trkpt>
      <trkpt lat="42.133556" lon="1.570671">
        <ele>0.0</ele>
        <time>2014-01-11T16:22:24Z</time>
      </trkpt>
      <trkpt lat="42.133578" lon="1.570750">
        <ele>0.0</ele>
        <time>2014-01-11T16:22:44Z</time>
      </trkpt>
      <trkpt lat="42.133626" lon="1.570870">
        <ele>0.0</ele>
        <time>2014-01-11T16:23:04Z</time>
      </trkpt>
      <trkpt lat="42.133676" lon="1.571300">
        <ele>0.0</ele>
        <time>2014-01-11T16:23:24Z</time>
      </trkpt>
      <trkpt lat="42.133643" lon="1.571796">
        <ele>0.0</ele>
        <time>2014-01-11T16:23:44Z</time>
      </trkpt>
      <trkpt lat="42.133676" lon="1.572143">
        <ele>0.0</ele>
        <time>2014-01-11T16:24:04Z</time>
      </trkpt>
      <trkpt lat="42.133691" lon="1.572174">
        <ele>0.0</ele>
        <time>2014-01-11T16:24:24Z</time>
      </trkpt>
      <trkpt lat="42.133698" lon="1.572164">
        <ele>0.0</ele>
        <time>2014-01-11T16:24:44Z</time>
      </trkpt>
      <trkpt lat="42.133718" lon="1.572230">
        <ele>0.0</ele>
        <time>2014-01-11T16:25:04Z</time>
      </trkpt>
      <trkpt lat="42.133663" lon="1.572303">
        <ele>0.0</ele>
        <time>2014-01-11T16:25:24Z</time>
      </trkpt>
      <trkpt lat="42.133671" lon="1.572313">
        <ele>0.0</ele>
        <time>2014-01-11T16:25:44Z</time>
      </trkpt>
      <trkpt lat="42.133662" lon="1.572477">
        <ele>0.0</ele>
        <time>2014-01-11T16:26:04Z</time>
      </trkpt>
      <trkpt lat="42.133649" lon="1.572542">
        <ele>0.0</ele>
        <time>2014-01-11T16:26:24Z</time>
      </trkpt>
      <trkpt lat="42.133666" lon="1.572626">
        <ele>0.0</ele>
        <time>2014-01-11T16:26:44Z</time>
      </trkpt>
      <trkpt lat="42.133673" lon="1.572661">
        <ele>0.0</ele>
        <time>2014-01-11T16:27:04Z</time>
      </trkpt>
      <trkpt lat="42.133686" lon="1.572706">
        <ele>0.0</ele>
        <time>2014-01-11T16:27:24Z</time>
      </trkpt>
      <trkpt lat="42.133700" lon="1.572789">
        <ele>0.0</ele>
        <time>2014-01-11T16:27:44Z</time>
      </trkpt>
      <trkpt lat="42.133695" lon="1.572816">
        <ele>0.0</ele>
        <time>2014-01-11T16:28:04Z</time>
      </trkpt>
      <trkpt lat="42.133697" lon="1.572824">
        <ele>0.0</ele>
        <time>2014-01-11T16:28:24Z</time>
      </trkpt>
      <trkpt lat="42.133688" lon="1.572889">
        <ele>0.0</ele>
        <time>2014-01-11T16:28:44Z</time>
      </trkpt>
      <trkpt lat="42.133652" lon="1.573072">
        <ele>0.0</ele>
        <time>2014-01-11T16:29:04Z</time>
      </trkpt>
      <trkpt lat="42.133652" lon="1.573082">
        <ele>0.0</ele>
        <time>2014-01-11T16:29:24Z</time>
      </trkpt>
      <trkpt lat="42.133630" lon="1.573151">
        <ele>0.0</ele>
        <time>2014-01-11T16:29:44Z</time>
      </trkpt>
      <trkpt lat="42.133617" lon="1.573302">
        <ele>0.0</ele>
        <time>2014-01-11T16:30:04Z</time>
      </trkpt>
      <trkpt lat="42.133614" lon="1.573350">
        <ele>0.0</ele>
        <time>2014-01-11T16:30:24Z</time>
      </trkpt>
      <trkpt lat="42.133600" lon="1.573455">
        <ele>0.0</ele>
        <time>2014-01-11T16:30:44Z</time>
      </trkpt>
      <trkpt lat="42.133614" lon="1.573547">
        <ele>0.0</ele>
        <time>2014-01-11T16:31:04Z</time>
      </trkpt>
      <trkpt lat="42.133682" lon="1.573652">
        <ele>0.0</ele>
        <time>2014-01-11T16:31:24Z</time>
      </trkpt>
      <trkpt lat="42.133666" lon="1.573713">
        <ele>0.0</ele>
        <time>2014-01-11T16:31:44Z</time>
      </trkpt>
      <trkpt lat="42.133669" lon="1.573774">
        <ele>0.0</ele>
        <time>2014-01-11T16:32:04Z</time>
      </trkpt>
      <trkpt lat="42.133728" lon="1.573809">
        <ele>0.0</ele>
        <time>2014-01-11T16:32:24Z</time>
      </trkpt>
      <trkpt lat="42.133727" lon="1.573830">
        <ele>0.0</ele>
        <time>2014-01-11T16:32:44Z</time>
      </trkpt>
      <trkpt lat="42.133743" lon="1.574009">
        <ele>0.0</ele>
        <time>2014-01-11T16:33:04Z</time>
      </trkpt>
      <trkpt lat="42.133733" lon="1.574048">
        <ele>0.0</ele>
        <time>2014-01-11T16:33:24Z</time>
      </trkpt>
      <trkpt lat="42.133719" lon="1.574247">
        <ele>0.0</ele>
        <time>2014-01-11T16:33:44Z</time>
      </trkpt>
      <trkpt lat="42.133706" lon="1.574254">
        <ele>0.0</ele>
        <time>2014-01-11T16:34:04Z</time>
      </trkpt>
      <trkpt lat="42.133707" lon="1.574336">
        <ele>0.0</ele>
        <time>2014-01-11T16:34:24Z</time>
      </trkpt>
      <trkpt lat="42.133700" lon="1.574424">
        <ele>0.0</ele>
        <time>2014-01-11T16:34:44Z</time>
      </trkpt>
      <trkpt lat="42.133695" lon="1.574552">
        <ele>0.0</ele>
        <time>2014-01-11T16:35:04Z</time>
      </trkpt>
      <trkpt lat="42.133691" lon="1.574617">
        <ele>0.0</ele>
        <time>2014-01-11T16:35:24Z</time>
      </trkpt>
      <trkpt lat="42.133703" lon="1.574702">
        <ele>0.0</ele>
        <time>2014-01-11T16:35:44Z</time>
      </trkpt>
      <trkpt lat="42.133722" lon="1.574719">
        <ele>0.0</ele>
        <time>2014-01-11T16:36:04Z</time>
      </trkpt>
      <trkpt lat="42.133717" lon="1.574825">
        <ele>0.0</ele>
        <time>2014-01-11T16:36:24Z</time>
      </trkpt>
      <trkpt lat="42.133729" lon="1.574849">
        <ele>0.0</ele>
        <time>2014-01-11T16:36:44Z</time>
      </trkpt>
      <trkpt lat="42.133753" lon="1.574879">
        <ele>0.0</ele>
        <time>2014-01-11T16:37:04Z</time>
      </trkpt>
      <trkpt lat="42.133785" lon="1.574935">
        <ele>0.0</ele>
        <time>2014-01-11T16:37:24Z</time>
      </trkpt>
      <trkpt lat="42.133797" lon="1.574970">
        <ele>0.0</ele>
        <time>2014-01-11T16:37:44Z</time>
      </trkpt>
      <trkpt lat="42.133743" lon="1.575004">
        <ele>0.0</ele>
        <time>2014-01-11T16:38:04Z</time>
      </trkpt>
      <trkpt lat="42.133742" lon="1.575029">
        <ele>0.0</ele>
        <time>2014-01-11T16:38:24Z</time>
      </trkpt>
      <trkpt lat="42.133748" lon="1.575050">
        <ele>0.0</ele>
        <time>2014-01-11T16:38:44Z</time>
      </trkpt>
      <trkpt lat="42.133828" lon="1.575115">
        <ele>0.0</ele>
        <time>2014-01-11T16:39:04Z</time>
      </trkpt>
      <trkpt lat="42.133871" lon="1.575181">
        <ele>0.0</ele>
        <time>2014-01-11T16:39:24Z</time>
      </trkpt>
      <trkpt lat="42.133873" lon="1.575191">
        <ele>0.0</ele>
        <time>2014-01-11T16:39:44Z</time>
      </trkpt>
      <trkpt lat="42.133901" lon="1.575294">
        <ele>0.0</ele>
        <time>2014-01-11T16:40:04Z</time>
      </trkpt>
      <trkpt lat="42.133961" lon="1.575426">
        <ele>0.0</ele>
        <time>2014-01-11T16:40:24Z</time>
      </trkpt>
      <trkpt lat="42.133958" lon="1.575445">
        <ele>0.0</ele>
        <time>2014-01-11T16:40:44Z</time>
      </trkpt>
      <trkpt lat="42.133944" lon="1.575487">
        <ele>0.0</ele>
        <time>2014-01-11T16:41:04Z</time>
      </trkpt>
      <trkpt lat="42.133959" lon="1.575511">
        <ele>0.0</ele>
        <time>2014-01-11T16:41:24Z</time>
      </trkpt>
      <trkpt lat="42.133984" lon="1.575621">
        <ele>0.0</ele>
        <time>2014-01-11T16:41:44Z</time>
      </trkpt>
      <trkpt lat="42.133983" lon="1.575622">
        <ele>0.0</ele>
        <time>2014-01-11T16:42:04Z</time>
      </trkpt>
      <trkpt lat="42.134008" lon="1.575668">
        <ele>0.0</ele>
        <time>2014-01-11T16:42:24Z</time>
      </trkpt>
      <trkpt lat="42.134073" lon="1.575798">
        <ele>0.0</ele>
        <time>2014-01-11T16:42:44Z</time>
      </trkpt>
      <trkpt lat="42.134096" lon="1.575893">
        <ele>0.0</ele>
        <time>2014-01-11T16:43:04Z</time>
      </trkpt>
      <trkpt lat="42.134119" lon="1.575932">
        <ele>0.0</ele>
        <time>2014-01-11T16:43:24Z</time>
      </trkpt>
      <trkpt lat="42.134128" lon="1.575948">
        <ele>0.0</ele>
        <time>2014-01-11T16:43:44Z</time>
      </trkpt>
      <trkpt lat="42.134110" lon="1.575954">
        <ele>0.0</ele>
        <time>2014-01-11T16:44:04Z</time>
      </trkpt>
      <trkpt lat="42.134126" lon="1.575952">
        <ele>0.0</ele>
        <time>2014-01-11T16:44:24Z</time>
      </trkpt>
      <trkpt lat="42.134138" lon="1.575991">
        <ele>0.0</ele>
        <time>2014-01-11T16:44:44Z</time>
      </trkpt>
      <trkpt lat="42.134178" lon="1.576047">
        <ele>0.0</ele>
        <time>2014-01-11T16:45:04Z</time>
      </trkpt>
      <trkpt lat="42.134143" lon="1.576162">
        <ele>0.0</ele>
        <time>2014-01-11T16:45:24Z</time>
      </trkpt>
      <trkpt lat="42.134150" lon="1.576166">
        <ele>0.0</ele>
        <time>2014-01-11T16:45:44Z</time>
      </trkpt>
      <trkpt lat="42.134265" lon="1.576259">
        <ele>0.0</ele>
        <time>2014-01-11T16:46:04Z</time>
      </trkpt>
      <trkpt lat="42.134330" lon="1.576360">
        <ele>0.0</ele>
        <time>2014-01-11T16:46:24Z</time>
      </trkpt>
      <trkpt lat="42.134361" lon="1.576380">
        <ele>0.0</ele>
        <time>2014-01-11T16:46:44Z</time>
      </trkpt>
      <trkpt lat="42.134367" lon="1.576388">
        <ele>0.0</ele>
        <time>2014-01-11T16:47:04Z</time>
      </trkpt>
      <trkpt lat="42.134440" lon="1.576486">
        <ele>0.0</ele>
        <time>2014-01-11T16:47:24Z</time>
      </trkpt>
      <trkpt lat="42.134430" lon="1.576512">
        <ele>0.0</ele>
        <time>2014-01-11T16:47:44Z</time>
      </trkpt>
      <trkpt lat="42.134502" lon="1.576608">
        <ele>0.0</ele>
        <time>2014-01-11T16:48:04Z</time>
      </trkpt>
      <trkpt lat="42.134534" lon="1.576634">
        <ele>0.0</ele>
        <time>2014-01-11T16:48:24Z</time>
      </trkpt>
      <trkpt lat="42.134576" lon="1.576712">
        <ele>0.0</ele>
        <time>2014-01-11T16:48:44Z</time>
      </trkpt>
      <trkpt lat="42.134576" lon="1.576788">
        <ele>0.0</ele>
        <time>2014-01-11T16:49:04Z</time>
      </trkpt>
      <trkpt lat="42.134542" lon="1.576872">
        <ele>0.0</ele>
        <time>2014-01-11T16:49:24Z</time>
      </trkpt>
      <trkpt lat="42.134613" lon="1.576993">
        <ele>0.0</ele>
        <time>2014-01-11T16:49:44Z</time>
      </trkpt>
      <trkpt lat="42.134618" lon="1.576995">
        <ele>0.0</ele>
        <time>2014-01-11T16:50:04Z</time>
      </trkpt>
      <trkpt lat="42.134663" lon="1.576998">
        <ele>0.0</ele>
        <time>2014-01-11T16:50:24Z</time>
      </trkpt>
      <trkpt lat="42.134683" lon="1.576997">
        <ele>0.0</ele>
        <time>2014-01-11T16:50:44Z</time>
      </trkpt>
      <trkpt lat="42.134735" lon="1.576999">
        <ele>0.0</ele>
        <time>2014-01-11T16:51:04Z</time>
      </trkpt>
      <trkpt lat="42.134754" lon="1.577012">
        <ele>0.0</ele>
        <time>2014-01-11T16:51:24Z</time>
      </trkpt>
      <trkpt lat="42.134792" lon="1.577032">
        <ele>0.0</ele>
        <time>2014-01-11T16:51:44Z</time>
      </trkpt>
      <trkpt lat="42.134880" lon="1.577075">
        <ele>0.0</ele>
        <time>2014-01-11T16:52:04Z</time>
      </trkpt>
      <trkpt lat="42.134943" lon="1.577106">
        <ele>0.0</ele>
        <time>2014-01-11T16:52:24Z</time>
      </trkpt>
      <trkpt lat="42.134978" lon="1.577142">
        <ele>0.0</ele>
        <time>2014-01-11T16:52:44Z</time>
      </trkpt>
      <trkpt lat="42.134984" lon="1.577175">
        <ele>0.0</ele>
        <time>2014-01-11T16:53:04Z</time>
      </trkpt>
      <trkpt lat="42.134960" lon="1.577284">
        <ele>0.0</ele>
        <time>2014-01-11T16:53:24Z</time>
      </trkpt>
      <trkpt lat="42.134959" lon="1.577386">
        <ele>0.0</ele>
        <time>2014-01-11T16:53:44Z</time>
      </trkpt>
      <trkpt lat="42.134960" lon="1.577491">
        <ele>0.0</ele>
        <time>2014-01-11T16:54:04Z</time>
      </trkpt>
      <trkpt lat="42.134962" lon="1.577529">
        <ele>0.0</ele>
        <time>2014-01-11T16:54:24Z</time>
      </trkpt>
      <trkpt lat="42.134976" lon="1.577577">
        <ele>0.0</ele>
        <time>2014-01-11T16:54:44Z</time>
      </trkpt>
      <trkpt lat="42.135007" lon="1.577624">
        <ele>0.0</ele>
        <time>2014-01-11T16:55:04Z</time>
      </trkpt>
      <trkpt lat="42.135004" lon="1.577639">
        <ele>0.0</ele>
        <time>2014-01-11T16:55:24Z</time>
      </trkpt>
      <trkpt lat="42.134997" lon="1.577676">
        <ele>0.0</ele>
        <time>2014-01-11T16:55:44Z</time>
      </trkpt>
      <trkpt lat="42.135001" lon="1.577722">
        <ele>0.0</ele>
        <time>2014-01-11T16:56:04Z</time>
      </trkpt>
      <trkpt lat="42.135022" lon="1.577797">
        <ele>0.0</ele>
        <time>2014-01-11T16:56:24Z</time>
      </trkpt>
      <trkpt lat="42.135059" lon="1.577884">
        <ele>0.0</ele>
        <time>2014-01-11T16:56:44Z</time>
      </trkpt>
      <trkpt lat="42.135100" lon="1.577976">
        <ele>0.0</ele>
        <time>2014-01-11T16:57:04Z</time>
      </trkpt>
      <trkpt lat="42.135093" lon="1.578048">
        <ele>0.0</ele>
        <time>2014-01-11T16:57:24Z</time>
      </trkpt>
      <trkpt lat="42.135109" lon="1.578105">
        <ele>0.0</ele>
        <time>2014-01-11T16:57:44Z</time>
      </trkpt>
      <trkpt lat="42.135106" lon="1.578123">
        <ele>0.0</ele>
        <time>2014-01-11T16:58:04Z</time>
      </trkpt>
      <trkpt lat="42.135161" lon="1.578208">
        <ele>0.0</ele>
        <time>2014-01-11T16:58:24Z</time>
      </trkpt>
      <trkpt lat="42.135190" lon="1.578292">
        <ele>0.0</ele>
        <time>2014-01-11T16:58:44Z</time>
      </trkpt>
      <trkpt lat="42.135195" lon="1.578316">
        <ele>0.0</ele>
        <time>2014-01-11T16:59:04Z</time>
      </trkpt>
      <trkpt lat="42.135197" lon="1.578345">
        <ele>0.0</ele>
        <time>2014-01-11T16:59:24Z</time>
      </trkpt>
      <trkpt lat="42.135229" lon="1.578392">
        <ele>0.0</ele>
        <time>2014-01-11T16:59:44Z</time>
      </trkpt>
      <trkpt lat="42.135285" lon="1.578530">
        <ele>0.0</ele>
        <time>2014-01-11T17:00:04Z</time>
      </trkpt>
      <trkpt lat="42.135287" lon="1.578547">
        <ele>0.0</ele>
        <time>2014-01-11T17:00:24Z</time>
      </trkpt>
      <trkpt lat="42.135306" lon="1.578586">
        <ele>0.0</ele>
        <time>2014-01-11T17:00:44Z</time>
      </trkpt>
      <trkpt lat="42.135340" lon="1.578614">
        <ele>0.0</ele>
        <time>2014-01-11T17:01:04Z</time>
      </trkpt>
      <trkpt lat="42.135344" lon="1.578614">
        <ele>0.0</ele>
        <time>2014-01-11T17:01:24Z</time>
      </trkpt>
      <trkpt lat="42.135385" lon="1.578660">
        <ele>0.0</ele>
        <time>2014-01-11T17:01:44Z</time>
      </trkpt>
      <trkpt lat="42.135392" lon="1.578677">
        <ele>0.0</ele>
        <time>2014-01-11T17:02:04Z</time>
      </trkpt>
      <trkpt lat="42.135395" lon="1.578708">
        <ele>0.0</ele>
        <time>2014-01-11T17:02:24Z</time>
      </trkpt>
      <trkpt lat="42.135444" lon="1.578810">
        <ele>0.0</ele>
        <time>2014-01-11T17:02:44Z</time>
      </trkpt>
      <trkpt lat="42.135494" lon="1.578877">
        <ele>0.0</ele>
        <time>2014-01-11T17:03:04Z</time>
      </trkpt>
      <trkpt lat="42.135524" lon="1.578913">
        <ele>0.0</ele>
        <time>2014-01-11T17:03:24Z</time>
      </trkpt>
      <trkpt lat="42.135568" lon="1.579000">
        <ele>0.0</ele>
        <time>2014-01-11T17:03:44Z</time>
      </trkpt>
      <trkpt lat="42.135581" lon="1.579051">
        <ele>0.0</ele>
        <time>2014-01-11T17:04:04Z</time>
      </trkpt>
      <trkpt lat="42.135588" lon="1.579151">
        <ele>0.0</ele>
        <time>2014-01-11T17:04:24Z</time>
      </trkpt>
      <trkpt lat="42.135570" lon="1.579278">
        <ele>0.0</ele>
        <time>2014-01-11T17:04:44Z</time>
      </trkpt>
      <trkpt lat="42.135606" lon="1.579376">
        <ele>0.0</ele>
        <time>2014-01-11T17:05:04Z</time>
      </trkpt>
      <trkpt lat="42.135642" lon="1.579437">
        <ele>0.0</ele>
        <time>2014-01-11T17:05:24Z</time>
      </trkpt>
      <trkpt lat="42.135742" lon="1.579558">
        <ele>0.0</ele>
        <time>2014-01-11T17:05:44Z</time>
      </trkpt>
      <trkpt lat="42.135753" lon="1.579597">
        <ele>0.0</ele>
        <time>2014-01-11T17:06:04Z</time>
      </trkpt>
      <trkpt lat="42.135805" lon="1.579747">
        <ele>0.0</ele>
        <time>2014-01-11T17:06:24Z</time>
      </trkpt>
      <trkpt lat="42.135884" lon="1.579865">
        <ele>0.0</ele>
        <time>2014-01-11T17:06:44Z</time>
      </trkpt>
      <trkpt lat="42.135902" lon="1.579883">
        <ele>0.0</ele>
        <time>2014-01-11T17:07:04Z</time>
      </trkpt>
      <trkpt lat="42.135914" lon="1.579900">
        <ele>0.0</ele>
        <time>2014-01-11T17:07:24Z</time>
      </trkpt>
      <trkpt lat="42.136017" lon="1.580072">
        <ele>0.0</ele>
        <time>2014-01-11T17:07:44Z</time>
      </trkpt>
      <trkpt lat="42.136065" lon="1.580136">
        <ele>0.0</ele>
        <time>2014-01-11T17:08:04Z</time>
      </trkpt>
      <trkpt lat="42.136107" lon="1.580284">
        <ele>0.0</ele>
        <time>2014-01-11T17:08:24Z</time>
      </trkpt>
      <trkpt lat="42.136119" lon="1.580377">
        <ele>0.0</ele>
        <time>2014-01-11T17:08:44Z</time>
      </trkpt>
      <trkpt lat="42.136105" lon="1.580449">
        <ele>0.0</ele>
        <time>2014-01-11T17:09:04Z</time>
      </trkpt>
      <trkpt lat="42.136122" lon="1.580456">
        <ele>0.0</ele>
        <time>2014-01-11T17:09:24Z</time>
      </trkpt>
      <trkpt lat="42.136120" lon="1.580474">
        <ele>0.0</ele>
        <time>2014-01-11T17:09:44Z</time>
      </trkpt>
      <trkpt lat="42.136116" lon="1.580481">
        <ele>0.0</ele>
        <time>2014-01-11T17:10:04Z</time>
      </trkpt>
      <trkpt lat="42.136062" lon="1.580544">
        <ele>0.0</ele>
        <time>2014-01-11T17:10:24Z</time>
      </trkpt>
      <trkpt lat="42.136069" lon="1.580674">
        <ele>0.0</ele>
        <time>2014-01-11T17:10:44Z</time>
      </trkpt>
      <trkpt lat="42.136066" lon="1.580678">
        <ele>0.0</ele>
        <time>2014-01-11T17:11:04Z</time>
      </trkpt>
      <trkpt lat="42.136079" lon="1.580775">
        <ele>0.0</ele>
        <time>2014-01-11T17:11:24Z</time>
      </trkpt>
      <trkpt lat="42.136079" lon="1.580929">
        <ele>0.0</ele>
        <time>2014-01-11T17:11:44Z</time>
      </trkpt>
      <trkpt lat="42.136074" lon="1.580968">
        <ele>0.0</ele>
        <time>2014-01-11T17:12:04Z</time>
      </trkpt>
      <trkpt lat="42.136100" lon="1.581100">
        <ele>0.0</ele>
        <time>2014-01-11T17:12:24Z</time>
      </trkpt>
      <trkpt lat="42.136130" lon="1.581211">
        <ele>0.0</ele>
        <time>2014-01-11T17:12:44Z</time>
      </trkpt>
      <trkpt lat="42.136222" lon="1.581402">
        <ele>0.0</ele>
        <time>2014-01-11T17:13:04Z</time>
      </trkpt>
      <trkpt lat="42.136252" lon="1.581470">
        <ele>0.0</ele>
        <time>2014-01-11T17:13:24Z</time>
      </trkpt>
      <trkpt lat="42.136262" lon="1.581513">
        <ele>0.0</ele>
        <time>2014-01-11T17:13:44Z</time>
      </trkpt>
      <trkpt lat="42.136295" lon="1.581592">
        <ele>0.0</ele>
        <time>2014-01-11T17:14:04Z</time>
      </trkpt>
      <trkpt lat="42.136299" lon="1.581597">
        <ele>0.0</ele>
        <time>2014-01-11T17:14:24Z</time>
      </trkpt>
      <trkpt lat="42.136322" lon="1.581630">
        <ele>0.0</ele>
        <time>2014-01-11T17:14:44Z</time>
      </trkpt>
      <trkpt lat="42.136346" lon="1.581625">
        <ele>0.0</ele>
        <time>2014-01-11T17:15:04Z</time>
      </trkpt>
      <trkpt lat="42.136360" lon="1.581631">
        <ele>0.0</ele>
        <time>2014-01-11T17:15:24Z</time>
      </trkpt>
      <trkpt lat="42.136366" lon="1.581637">
        <ele>0.0</ele>
        <time>2014-01-11T17:15:44Z</time>
      </trkpt>
      <trkpt lat="42.136377" lon="1.581660">
        <ele>0.0</ele>
        <time>2014-01-11T17:16:04Z</time>
      </trkpt>
      <trkpt lat="42.136364" lon="1.581692">
        <ele>0.0</ele>
        <time>2014-01-11T17:16:24Z</time>
      </trkpt>
      <trkpt lat="42.136222" lon="1.582044">
        <ele>0.0</ele>
        <time>2014-01-11T17:16:44Z</time>
      </trkpt>
      <trkpt lat="42.135943" lon="1.583890">
        <ele>0.0</ele>
        <time>2014-01-11T17:17:04Z</time>
      </trkpt>
      <trkpt lat="42.135738" lon="1.584538">
        <ele>0.0</ele>
        <time>2014-01-11T17:17:24Z</time>
      </trkpt>
      <trkpt lat="42.135490" lon="1.585354">
        <ele>0.0</ele>
        <time>2014-01-11T17:17:44Z</time>
      </trkpt>
      <trkpt lat="42.135521" lon="1.585443">
        <ele>0.0</ele>
        <time>2014-01-11T17:18:04Z</time>
      </trkpt>
      <trkpt lat="42.135994" lon="1.585610">
        <ele>0.0</ele>
        <time>2014-01-11T17:18:24Z</time>
      </trkpt>
      <trkpt lat="42.136475" lon="1.585787">
        <ele>0.0</ele>
        <time>2014-01-11T17:18:44Z</time>
      </trkpt>
      <trkpt lat="42.136845" lon="1.585947">
        <ele>0.0</ele>
        <time>2014-01-11T17:19:04Z</time>
      </trkpt>
      <trkpt lat="42.136740" lon="1.586395">
        <ele>0.0</ele>
        <time>2014-01-11T17:19:24Z</time>
      </trkpt>
      <trkpt lat="42.136657" lon="1.586822">
        <ele>0.0</ele>
        <time>2014-01-11T17:19:44Z</time>
      </trkpt>
      <trkpt lat="42.136550" lon="1.587081">
        <ele>0.0</ele>
        <time>2014-01-11T17:20:04Z</time>
      </trkpt>
      <trkpt lat="42.136471" lon="1.587281">
        <ele>0.0</ele>
        <time>2014-01-11T17:20:24Z</time>
      </trkpt>
      <trkpt lat="42.136454" lon="1.587489">
        <ele>0.0</ele>
        <time>2014-01-11T17:20:44Z</time>
      </trkpt>
      <trkpt lat="42.136410" lon="1.587559">
        <ele>0.0</ele>
        <time>2014-01-11T17:21:04Z</time>
      </trkpt>
      <trkpt lat="42.136417" lon="1.587653">
        <ele>0.0</ele>
        <time>2014-01-11T17:21:24Z</time>
      </trkpt>
      <trkpt lat="42.136550" lon="1.588226">
        <ele>0.0</ele>
        <time>2014-01-11T17:21:44Z</time>
      </trkpt>
      <trkpt lat="42.137069" lon="1.588783">
        <ele>0.0</ele>
        <time>2014-01-11T17:22:04Z</time>
      </trkpt>
      <trkpt lat="42.137562" lon="1.589608">
        <ele>0.0</ele>
        <time>2014-01-11T17:22:24Z</time>
      </trkpt>
      <trkpt lat="42.137954" lon="1.590204">
        <ele>0.0</ele>
        <time>2014-01-11T17:22:44Z</time>
      </trkpt>
      <trkpt lat="42.138053" lon="1.590362">
        <ele>0.0</ele>
        <time>2014-01-11T17:23:04Z</time>
      </trkpt>
      <trkpt lat="42.138035" lon="1.590533">
        <ele>0.0</ele>
        <time>2014-01-11T17:23:24Z</time>
      </trkpt>
      <trkpt lat="42.138035" lon="1.590537">
        <ele>0.0</ele>
        <time>2014-01-11T17:23:44Z</time>
      </trkpt>
      <trkpt lat="42.137800" lon="1.590714">
        <ele>0.0</ele>
        <time>2014-01-11T17:24:04Z</time>
      </trkpt>
      <trkpt lat="42.137666" lon="1.590760">
        <ele>0.0</ele>
        <time>2014-01-11T17:24:24Z</time>
      </trkpt>
      <trkpt lat="42.137319" lon="1.590625">
        <ele>0.0</ele>
        <time>2014-01-11T17:24:44Z</time>
      </trkpt>
      <trkpt lat="42.137217" lon="1.590599">
        <ele>0.0</ele>
        <time>2014-01-11T17:25:04Z</time>
      </trkpt>
      <trkpt lat="42.136969" lon="1.590848">
        <ele>0.0</ele>
        <time>2014-01-11T17:25:24Z</time>
      </trkpt>
      <trkpt lat="42.136684" lon="1.591207">
        <ele>0.0</ele>
        <time>2014-01-11T17:25:44Z</time>
      </trkpt>
      <trkpt lat="42.136632" lon="1.591346">
        <ele>0.0</ele>
        <time>2014-01-11T17:26:04Z</time>
      </trkpt>
      <trkpt lat="42.136557" lon="1.591403">
        <ele>0.0</ele>
        <time>2014-01-11T17:26:24Z</time>
      </trkpt>
      <trkpt lat="42.136574" lon="1.591402">
        <ele>0.0</ele>
        <time>2014-01-11T17:26:44Z</time>
      </trkpt>
      <trkpt lat="42.136411" lon="1.591605">
        <ele>0.0</ele>
        <time>2014-01-11T17:27:04Z</time>
      </trkpt>
      <trkpt lat="42.136211" lon="1.591836">
        <ele>0.0</ele>
        <time>2014-01-11T17:27:24Z</time>
      </trkpt>
      <trkpt lat="42.136032" lon="1.591483">
        <ele>0.0</ele>
        <time>2014-01-11T17:27:44Z</time>
      </trkpt>
      <trkpt lat="42.136029" lon="1.591481">
        <ele>0.0</ele>
        <time>2014-01-11T17:28:04Z</time>
      </trkpt>
      <trkpt lat="42.135883" lon="1.591339">
        <ele>0.0</ele>
        <time>2014-01-11T17:28:24Z</time>
      </trkpt>
      <trkpt lat="42.135844" lon="1.591313">
        <ele>0.0</ele>
        <time>2014-01-11T17:28:44Z</time>
      </trkpt>
      <trkpt lat="42.135626" lon="1.591196">
        <ele>0.0</ele>
        <time>2014-01-11T17:29:04Z</time>
      </trkpt>
      <trkpt lat="42.135595" lon="1.591185">
        <ele>0.0</ele>
        <time>2014-01-11T17:29:24Z</time>
      </trkpt>
      <trkpt lat="42.135489" lon="1.591100">
        <ele>0.0</ele>
        <time>2014-01-11T17:29:44Z</time>
      </trkpt>
      <trkpt lat="42.135480" lon="1.591096">
        <ele>0.0</ele>
        <time>2014-01-11T17:30:04Z</time>
      </trkpt>
      <trkpt lat="42.135366" lon="1.591053">
        <ele>0.0</ele>
        <time>2014-01-11T17:30:24Z</time>
      </trkpt>
      <trkpt lat="42.135337" lon="1.591043">
        <ele>0.0</ele>
        <time>2014-01-11T17:30:44Z</time>
      </trkpt>
      <trkpt lat="42.135294" lon="1.591035">
        <ele>0.0</ele>
        <time>2014-01-11T17:31:04Z</time>
      </trkpt>
      <trkpt lat="42.135226" lon="1.591000">
        <ele>0.0</ele>
        <time>2014-01-11T17:31:24Z</time>
      </trkpt>
      <trkpt lat="42.135156" lon="1.591001">
        <ele>0.0</ele>
        <time>2014-01-11T17:31:44Z</time>
      </trkpt>
      <trkpt lat="42.135083" lon="1.590992">
        <ele>0.0</ele>
        <time>2014-01-11T17:32:04Z</time>
      </trkpt>
      <trkpt lat="42.135025" lon="1.590967">
        <ele>0.0</ele>
        <time>2014-01-11T17:32:24Z</time>
      </trkpt>
      <trkpt lat="42.135020" lon="1.590961">
        <ele>0.0</ele>
        <time>2014-01-11T17:32:44Z</time>
      </trkpt>
      <trkpt lat="42.134868" lon="1.590885">
        <ele>0.0</ele>
        <time>2014-01-11T17:33:04Z</time>
      </trkpt>
      <trkpt lat="42.134845" lon="1.590875">
        <ele>0.0</ele>
        <time>2014-01-11T17:33:24Z</time>
      </trkpt>
      <trkpt lat="42.134744" lon="1.590837">
        <ele>0.0</ele>
        <time>2014-01-11T17:33:44Z</time>
      </trkpt>
      <trkpt lat="42.134652" lon="1.590787">
        <ele>0.0</ele>
        <time>2014-01-11T17:34:04Z</time>
      </trkpt>
      <trkpt lat="42.134631" lon="1.590772">
        <ele>0.0</ele>
        <time>2014-01-11T17:34:24Z</time>
      </trkpt>
      <trkpt lat="42.134480" lon="1.590704">
        <ele>0.0</ele>
        <time>2014-01-11T17:34:44Z</time>
      </trkpt>
      <trkpt lat="42.134445" lon="1.590706">
        <ele>0.0</ele>
        <time>2014-01-11T17:35:04Z</time>
      </trkpt>
      <trkpt lat="42.134403" lon="1.590683">
        <ele>0.0</ele>
        <time>2014-01-11T17:35:24Z</time>
      </trkpt>
      <trkpt lat="42.134357" lon="1.590683">
        <ele>0.0</ele>
        <time>2014-01-11T17:35:44Z</time>
      </trkpt>
      <trkpt lat="42.134237" lon="1.590665">
        <ele>0.0</ele>
        <time>2014-01-11T17:36:04Z</time>
      </trkpt>
      <trkpt lat="42.134228" lon="1.590664">
        <ele>0.0</ele>
        <time>2014-01-11T17:36:24Z</time>
      </trkpt>
      <trkpt lat="42.134209" lon="1.590660">
        <ele>0.0</ele>
        <time>2014-01-11T17:36:44Z</time>
      </trkpt>
      <trkpt lat="42.134173" lon="1.590668">
        <ele>0.0</ele>
        <time>2014-01-11T17:37:04Z</time>
      </trkpt>
      <trkpt lat="42.134086" lon="1.590674">
        <ele>0.0</ele>
        <time>2014-01-11T17:37:24Z</time>
      </trkpt>
      <trkpt lat="42.134005" lon="1.590591">
        <ele>0.0</ele>
        <time>2014-01-11T17:37:44Z</time>
      </trkpt>
      <trkpt lat="42.133935" lon="1.590576">
        <ele>0.0</ele>
        <time>2014-01-11T17:38:04Z</time>
      </trkpt>
      <trkpt lat="42.133892" lon="1.590560">
        <ele>0.0</ele>
        <time>2014-01-11T17:38:24Z</time>
      </trkpt>
      <trkpt lat="42.133881" lon="1.590552">
        <ele>0.0</ele>
        <time>2014-01-11T17:38:44Z</time>
      </trkpt>
      <trkpt lat="42.133825" lon="1.590533">
        <ele>0.0</ele>
        <time>2014-01-11T17:39:04Z</time>
      </trkpt>
      <trkpt lat="42.133790" lon="1.590513">
        <ele>0.0</ele>
        <time>2014-01-11T17:39:24Z</time>
      </trkpt>
      <trkpt lat="42.133738" lon="1.590504">
        <ele>0.0</ele>
        <time>2014-01-11T17:39:44Z</time>
      </trkpt>
      <trkpt lat="42.133704" lon="1.590499">
        <ele>0.0</ele>
        <time>2014-01-11T17:40:04Z</time>
      </trkpt>
      <trkpt lat="42.133649" lon="1.590482">
        <ele>0.0</ele>
        <time>2014-01-11T17:40:24Z</time>
      </trkpt>
      <trkpt lat="42.133619" lon="1.590488">
        <ele>0.0</ele>
        <time>2014-01-11T17:40:44Z</time>
      </trkpt>
      <trkpt lat="42.133570" lon="1.590495">
        <ele>0.0</ele>
        <time>2014-01-11T17:41:04Z</time>
      </trkpt>
      <trkpt lat="42.133531" lon="1.590512">
        <ele>0.0</ele>
        <time>2014-01-11T17:41:24Z</time>
      </trkpt>
      <trkpt lat="42.133505" lon="1.590530">
        <ele>0.0</ele>
        <time>2014-01-11T17:41:44Z</time>
      </trkpt>
      <trkpt lat="42.133483" lon="1.590539">
        <ele>0.0</ele>
        <time>2014-01-11T17:42:04Z</time>
      </trkpt>
      <trkpt lat="42.133445" lon="1.590565">
        <ele>0.0</ele>
        <time>2014-01-11T17:42:24Z</time>
      </trkpt>
      <trkpt lat="42.133388" lon="1.590594">
        <ele>0.0</ele>
        <time>2014-01-11T17:42:44Z</time>
      </trkpt>
      <trkpt lat="42.133346" lon="1.590602">
        <ele>0.0</ele>
        <time>2014-01-11T17:43:04Z</time>
      </trkpt>
      <trkpt lat="42.133340" lon="1.590606">
        <ele>0.0</ele>
        <time>2014-01-11T17:43:24Z</time>
      </trkpt>
      <trkpt lat="42.133244" lon="1.590666">
        <ele>0.0</ele>
        <time>2014-01-11T17:43:44Z</time>
      </trkpt>
      <trkpt lat="42.133208" lon="1.590694">
        <ele>0.0</ele>
        <time>2014-01-11T17:44:04Z</time>
      </trkpt>
      <trkpt lat="42.133165" lon="1.590705">
        <ele>0.0</ele>
        <time>2014-01-11T17:44:24Z</time>
      </trkpt>
      <trkpt lat="42.133065" lon="1.590746">
        <ele>0.0</ele>
        <time>2014-01-11T17:44:44Z</time>
      </trkpt>
      <trkpt lat="42.133037" lon="1.590758">
        <ele>0.0</ele>
        <time>2014-01-11T17:45:04Z</time>
      </trkpt>
      <trkpt lat="42.133000" lon="1.590779">
        <ele>0.0</ele>
        <time>2014-01-11T17:45:24Z</time>
      </trkpt>
      <trkpt lat="42.132841" lon="1.590837">
        <ele>0.0</ele>
        <time>2014-01-11T17:45:44Z</time>
      </trkpt>
      <trkpt lat="42.132701" lon="1.590909">
        <ele>0.0</ele>
        <time>2014-01-11T17:46:04Z</time>
      </trkpt>
      <trkpt lat="42.132606" lon="1.590972">
        <ele>0.0</ele>
        <time>2014-01-11T17:46:24Z</time>
      </trkpt>
      <trkpt lat="42.132502" lon="1.591053">
        <ele>0.0</ele>
        <time>2014-01-11T17:46:44Z</time>
      </trkpt>
      <trkpt lat="42.132407" lon="1.591126">
        <ele>0.0</ele>
        <time>2014-01-11T17:47:04Z</time>
      </trkpt>
      <trkpt lat="42.132388" lon="1.591145">
        <ele>0.0</ele>
        <time>2014-01-11T17:47:24Z</time>
      </trkpt>
      <trkpt lat="42.132313" lon="1.591204">
        <ele>0.0</ele>
        <time>2014-01-11T17:47:44Z</time>
      </trkpt>
      <trkpt lat="42.132286" lon="1.591244">
        <ele>0.0</ele>
        <time>2014-01-11T17:48:04Z</time>
      </trkpt>
      <trkpt lat="42.132271" lon="1.591263">
        <ele>0.0</ele>
        <time>2014-01-11T17:48:24Z</time>
      </trkpt>
      <trkpt lat="42.132158" lon="1.591328">
        <ele>0.0</ele>
        <time>2014-01-11T17:48:44Z</time>
      </trkpt>
      <trkpt lat="42.132048" lon="1.591431">
        <ele>0.0</ele>
        <time>2014-01-11T17:49:04Z</time>
      </trkpt>
      <trkpt lat="42.132026" lon="1.591443">
        <ele>0.0</ele>
        <time>2014-01-11T17:49:24Z</time>
      </trkpt>
      <trkpt lat="42.131922" lon="1.591520">
        <ele>0.0</ele>
        <time>2014-01-11T17:49:44Z</time>
      </trkpt>
      <trkpt lat="42.131902" lon="1.591529">
        <ele>0.0</ele>
        <time>2014-01-11T17:50:04Z</time>
      </trkpt>
      <trkpt lat="42.131873" lon="1.591543">
        <ele>0.0</ele>
        <time>2014-01-11T17:50:24Z</time>
      </trkpt>
      <trkpt lat="42.131856" lon="1.591559">
        <ele>0.0</ele>
        <time>2014-01-11T17:50:44Z</time>
      </trkpt>
      <trkpt lat="42.131854" lon="1.591563">
        <ele>0.0</ele>
        <time>2014-01-11T17:51:04Z</time>
      </trkpt>
      <trkpt lat="42.131852" lon="1.591571">
        <ele>0.0</ele>
        <time>2014-01-11T17:51:24Z</time>
      </trkpt>
      <trkpt lat="42.131853" lon="1.591576">
        <ele>0.0</ele>
        <time>2014-01-11T17:51:44Z</time>
      </trkpt>
      <trkpt lat="42.131776" lon="1.591694">
        <ele>0.0</ele>
        <time>2014-01-11T17:52:04Z</time>
      </trkpt>
      <trkpt lat="42.131753" lon="1.591713">
        <ele>0.0</ele>
        <time>2014-01-11T17:52:24Z</time>
      </trkpt>
      <trkpt lat="42.131733" lon="1.591751">
        <ele>0.0</ele>
        <time>2014-01-11T17:52:44Z</time>
      </trkpt>
      <trkpt lat="42.131679" lon="1.591816">
        <ele>0.0</ele>
        <time>2014-01-11T17:53:04Z</time>
      </trkpt>
      <trkpt lat="42.131647" lon="1.591906">
        <ele>0.0</ele>
        <time>2014-01-11T17:53:24Z</time>
      </trkpt>
      <trkpt lat="42.131602" lon="1.591976">
        <ele>0.0</ele>
        <time>2014-01-11T17:53:44Z</time>
      </trkpt>
      <trkpt lat="42.131581" lon="1.592018">
        <ele>0.0</ele>
        <time>2014-01-11T17:54:04Z</time>
      </trkpt>
      <trkpt lat="42.131561" lon="1.592077">
        <ele>0.0</ele>
        <time>2014-01-11T17:54:24Z</time>
      </trkpt>
      <trkpt lat="42.131552" lon="1.592155">
        <ele>0.0</ele>
        <time>2014-01-11T17:54:44Z</time>
      </trkpt>
      <trkpt lat="42.131515" lon="1.592227">
        <ele>0.0</ele>
        <time>2014-01-11T17:55:04Z</time>
      </trkpt>
      <trkpt lat="42.131504" lon="1.592279">
        <ele>0.0</ele>
        <time>2014-01-11T17:55:24Z</time>
      </trkpt>
      <trkpt lat="42.131470" lon="1.592343">
        <ele>0.0</ele>
        <time>2014-01-11T17:55:44Z</time>
      </trkpt>
      <trkpt lat="42.131458" lon="1.592350">
        <ele>0.0</ele>
        <time>2014-01-11T17:56:04Z</time>
      </trkpt>
      <trkpt lat="42.131449" lon="1.592349">
        <ele>0.0</ele>
        <time>2014-01-11T17:56:24Z</time>
      </trkpt>
      <trkpt lat="42.131366" lon="1.592328">
        <ele>0.0</ele>
        <time>2014-01-11T17:56:44Z</time>
      </trkpt>
      <trkpt lat="42.131345" lon="1.592300">
        <ele>0.0</ele>
        <time>2014-01-11T17:57:04Z</time>
      </trkpt>
      <trkpt lat="42.131322" lon="1.592259">
        <ele>0.0</ele>
        <time>2014-01-11T17:57:24Z</time>
      </trkpt>
      <trkpt lat="42.131307" lon="1.592215">
        <ele>0.0</ele>
        <time>2014-01-11T17:57:44Z</time>
      </trkpt>
      <trkpt lat="42.131261" lon="1.592068">
        <ele>0.0</ele>
        <time>2014-01-11T17:58:04Z</time>
      </trkpt>
      <trkpt lat="42.131238" lon="1.591970">
        <ele>0.0</ele>
        <time>2014-01-11T17:58:24Z</time>
      </trkpt>
      <trkpt lat="42.131193" lon="1.591828">
        <ele>0.0</ele>
        <time>2014-01-11T17:58:44Z</time>
      </trkpt>
      <trkpt lat="42.131172" lon="1.591789">
        <ele>0.0</ele>
        <time>2014-01-11T17:59:04Z</time>
      </trkpt>
      <trkpt lat="42.131129" lon="1.591675">
        <ele>0.0</ele>
        <time>2014-01-11T17:59:24Z</time>
      </trkpt>
      <trkpt lat="42.131102" lon="1.591574">
        <ele>0.0</ele>
        <time>2014-01-11T17:59:44Z</time>
      </trkpt>
      <trkpt lat="42.131077" lon="1.591440">
        <ele>0.0</ele>
        <time>2014-01-11T18:00:04Z</time>
      </trkpt>
      <trkpt lat="42.131062" lon="1.591392">
        <ele>0.0</ele>
        <time>2014-01-11T18:00:24Z</time>
      </trkpt>
      <trkpt lat="42.131059" lon="1.591364">
        <ele>0.0</ele>
        <time>2014-01-11T18:00:44Z</time>
      </trkpt>
      <trkpt lat="42.130982" lon="1.591268">
        <ele>0.0</ele>
        <time>2014-01-11T18:01:04Z</time>
      </trkpt>
      <trkpt lat="42.130954" lon="1.591233">
        <ele>0.0</ele>
        <time>2014-01-11T18:01:24Z</time>
      </trkpt>
      <trkpt lat="42.130858" lon="1.591102">
        <ele>0.0</ele>
        <time>2014-01-11T18:01:44Z</time>
      </trkpt>
      <trkpt lat="42.130806" lon="1.590961">
        <ele>0.0</ele>
        <time>2014-01-11T18:02:04Z</time>
      </trkpt>
      <trkpt lat="42.130792" lon="1.590915">
        <ele>0.0</ele>
        <time>2014-01-11T18:02:24Z</time>
      </trkpt>
      <trkpt lat="42.130785" lon="1.590888">
        <ele>0.0</ele>
        <time>2014-01-11T18:02:44Z</time>
      </trkpt>
      <trkpt lat="42.130714" lon="1.590706">
        <ele>0.0</ele>
        <time>2014-01-11T18:03:04Z</time>
      </trkpt>
      <trkpt lat="42.130706" lon="1.590623">
        <ele>0.0</ele>
        <time>2014-01-11T18:03:24Z</time>
      </trkpt>
      <trkpt lat="42.130697" lon="1.590577">
        <ele>0.0</ele>
        <time>2014-01-11T18:03:44Z</time>
      </trkpt>
      <trkpt lat="42.130700" lon="1.590455">
        <ele>0.0</ele>
        <time>2014-01-11T18:04:04Z</time>
      </trkpt>
      <trkpt lat="42.130714" lon="1.590340">
        <ele>0.0</ele>
        <time>2014-01-11T18:04:24Z</time>
      </trkpt>
      <trkpt lat="42.130745" lon="1.590180">
        <ele>0.0</ele>
        <time>2014-01-11T18:04:44Z</time>
      </trkpt>
      <trkpt lat="42.130740" lon="1.590029">
        <ele>0.0</ele>
        <time>2014-01-11T18:05:04Z</time>
      </trkpt>
      <trkpt lat="42.130749" lon="1.589928">
        <ele>0.0</ele>
        <time>2014-01-11T18:05:24Z</time>
      </trkpt>
      <trkpt lat="42.130749" lon="1.589847">
        <ele>0.0</ele>
        <time>2014-01-11T18:05:44Z</time>
      </trkpt>
      <trkpt lat="42.130751" lon="1.589818">
        <ele>0.0</ele>
        <time>2014-01-11T18:06:04Z</time>
      </trkpt>
      <trkpt lat="42.130726" lon="1.589632">
        <ele>0.0</ele>
        <time>2014-01-11T18:06:24Z</time>
      </trkpt>
      <trkpt lat="42.130698" lon="1.589520">
        <ele>0.0</ele>
        <time>2014-01-11T18:06:44Z</time>
      </trkpt>
      <trkpt lat="42.130683" lon="1.589359">
        <ele>0.0</ele>
        <time>2014-01-11T18:07:04Z</time>
      </trkpt>
      <trkpt lat="42.130699" lon="1.589289">
        <ele>0.0</ele>
        <time>2014-01-11T18:07:24Z</time>
      </trkpt>
      <trkpt lat="42.130692" lon="1.589240">
        <ele>0.0</ele>
        <time>2014-01-11T18:07:44Z</time>
      </trkpt>
      <trkpt lat="42.130677" lon="1.589133">
        <ele>0.0</ele>
        <time>2014-01-11T18:08:04Z</time>
      </trkpt>
      <trkpt lat="42.130672" lon="1.589119">
        <ele>0.0</ele>
        <time>2014-01-11T18:08:24Z</time>
      </trkpt>
      <trkpt lat="42.130667" lon="1.588954">
        <ele>0.0</ele>
        <time>2014-01-11T18:08:44Z</time>
      </trkpt>
      <trkpt lat="42.130666" lon="1.588936">
        <ele>0.0</ele>
        <time>2014-01-11T18:09:04Z</time>
      </trkpt>
      <trkpt lat="42.130648" lon="1.588811">
        <ele>0.0</ele>
        <time>2014-01-11T18:09:24Z</time>
      </trkpt>
      <trkpt lat="42.130630" lon="1.588680">
        <ele>0.0</ele>
        <time>2014-01-11T18:09:44Z</time>
      </trkpt>
      <trkpt lat="42.130612" lon="1.588583">
        <ele>0.0</ele>
        <time>2014-01-11T18:10:04Z</time>
      </trkpt>
      <trkpt lat="42.130590" lon="1.588525">
        <ele>0.0</ele>
        <time>2014-01-11T18:10:24Z</time>
      </trkpt>
      <trkpt lat="42.130583" lon="1.588439">
        <ele>0.0</ele>
        <time>2014-01-11T18:10:44Z</time>
      </trkpt>
      <trkpt lat="42.130570" lon="1.588313">
        <ele>0.0</ele>
        <time>2014-01-11T18:11:04Z</time>
      </trkpt>
      <trkpt lat="42.130547" lon="1.588183">
        <ele>0.0</ele>
        <time>2014-01-11T18:11:24Z</time>
      </trkpt>
      <trkpt lat="42.130489" lon="1.588001">
        <ele>0.0</ele>
        <time>2014-01-11T18:11:44Z</time>
      </trkpt>
      <trkpt lat="42.130482" lon="1.587977">
        <ele>0.0</ele>
        <time>2014-01-11T18:12:04Z</time>
      </trkpt>
      <trkpt lat="42.130481" lon="1.587928">
        <ele>0.0</ele>
        <time>2014-01-11T18:12:24Z</time>
      </trkpt>
      <trkpt lat="42.130485" lon="1.587893">
        <ele>0.0</ele>
        <time>2014-01-11T18:12:44Z</time>
      </trkpt>
      <trkpt lat="42.130429" lon="1.587711">
        <ele>0.0</ele>
        <time>2014-01-11T18:13:04Z</time>
      </trkpt>
      <trkpt lat="42.130373" lon="1.587513">
        <ele>0.0</ele>
        <time>2014-01-11T18:13:24Z</time>
      </trkpt>
      <trkpt lat="42.130367" lon="1.587350">
        <ele>0.0</ele>
        <time>2014-01-11T18:13:44Z</time>
      </trkpt>
      <trkpt lat="42.130370" lon="1.587257">
        <ele>0.0</ele>
        <time>2014-01-11T18:14:04Z</time>
      </trkpt>
      <trkpt lat="42.130373" lon="1.587220">
        <ele>0.0</ele>
        <time>2014-01-11T18:14:24Z</time>
      </trkpt>
      <trkpt lat="42.130415" lon="1.587079">
        <ele>0.0</ele>
        <time>2014-01-11T18:14:44Z</time>
      </trkpt>
      <trkpt lat="42.130484" lon="1.586849">
        <ele>0.0</ele>
        <time>2014-01-11T18:15:04Z</time>
      </trkpt>
      <trkpt lat="42.130513" lon="1.586774">
        <ele>0.0</ele>
        <time>2014-01-11T18:15:24Z</time>
      </trkpt>
      <trkpt lat="42.130531" lon="1.586688">
        <ele>0.0</ele>
        <time>2014-01-11T18:15:44Z</time>
      </trkpt>
      <trkpt lat="42.130530" lon="1.586565">
        <ele>0.0</ele>
        <time>2014-01-11T18:16:04Z</time>
      </trkpt>
      <trkpt lat="42.130538" lon="1.586527">
        <ele>0.0</ele>
        <time>2014-01-11T18:16:24Z</time>
      </trkpt>
      <trkpt lat="42.130560" lon="1.586462">
        <ele>0.0</ele>
        <time>2014-01-11T18:16:44Z</time>
      </trkpt>
      <trkpt lat="42.130623" lon="1.586240">
        <ele>0.0</ele>
        <time>2014-01-11T18:17:04Z</time>
      </trkpt>
      <trkpt lat="42.130630" lon="1.586206">
        <ele>0.0</ele>
        <time>2014-01-11T18:17:24Z</time>
      </trkpt>
      <trkpt lat="42.130644" lon="1.586135">
        <ele>0.0</ele>
        <time>2014-01-11T18:17:44Z</time>
      </trkpt>
      <trkpt lat="42.130663" lon="1.586094">
        <ele>0.0</ele>
        <time>2014-01-11T18:18:04Z</time>
      </trkpt>
      <trkpt lat="42.130663" lon="1.586089">
        <ele>0.0</ele>
        <time>2014-01-11T18:18:24Z</time>
      </trkpt>
      <trkpt lat="42.130655" lon="1.586064">
        <ele>0.0</ele>
        <time>2014-01-11T18:18:44Z</time>
      </trkpt>
      <trkpt lat="42.130593" lon="1.585993">
        <ele>0.0</ele>
        <time>2014-01-11T18:19:04Z</time>
      </trkpt>
      <trkpt lat="42.130578" lon="1.585968">
        <ele>0.0</ele>
        <time>2014-01-11T18:19:24Z</time>
      </trkpt>
      <trkpt lat="42.130496" lon="1.585899">
        <ele>0.0</ele>
        <time>2014-01-11T18:19:44Z</time>
      </trkpt>
      <trkpt lat="42.130496" lon="1.585904">
        <ele>0.0</ele>
        <time>2014-01-11T18:20:04Z</time>
      </trkpt>
      <trkpt lat="42.130473" lon="1.585825">
        <ele>0.0</ele>
        <time>2014-01-11T18:20:24Z</time>
      </trkpt>
      <trkpt lat="42.130465" lon="1.585810">
        <ele>0.0</ele>
        <time>2014-01-11T18:20:44Z</time>
      </trkpt>
      <trkpt lat="42.130434" lon="1.585718">
        <ele>0.0</ele>
        <time>2014-01-11T18:21:04Z</time>
      </trkpt>
      <trkpt lat="42.130392" lon="1.585684">
        <ele>0.0</ele>
        <time>2014-01-11T18:21:24Z</time>
      </trkpt>
      <trkpt lat="42.130384" lon="1.585687">
        <ele>0.0</ele>
        <time>2014-01-11T18:21:44Z</time>
      </trkpt>
      <trkpt lat="42.130277" lon="1.585641">
        <ele>0.0</ele>
        <time>2014-01-11T18:22:04Z</time>
      </trkpt>
      <trkpt lat="42.130263" lon="1.585645">
        <ele>0.0</ele>
        <time>2014-01-11T18:22:24Z</time>
      </trkpt>
      <trkpt lat="42.130163" lon="1.585714">
        <ele>0.0</ele>
        <time>2014-01-11T18:22:44Z</time>
      </trkpt>
      <trkpt lat="42.130081" lon="1.585810">
        <ele>0.0</ele>
        <time>2014-01-11T18:23:04Z</time>
      </trkpt>
      <trkpt lat="42.130075" lon="1.585856">
        <ele>0.0</ele>
        <time>2014-01-11T18:23:24Z</time>
      </trkpt>
      <trkpt lat="42.130020" lon="1.586036">
        <ele>0.0</ele>
        <time>2014-01-11T18:23:44Z</time>
      </trkpt>
      <trkpt lat="42.129927" lon="1.586168">
        <ele>0.0</ele>
        <time>2014-01-11T18:24:04Z</time>
      </trkpt>
      <trkpt lat="42.129902" lon="1.586237">
        <ele>0.0</ele>
        <time>2014-01-11T18:24:24Z</time>
      </trkpt>
      <trkpt lat="42.129822" lon="1.586317">
        <ele>0.0</ele>
        <time>2014-01-11T18:24:44Z</time>
      </trkpt>
      <trkpt lat="42.129786" lon="1.586336">
        <ele>0.0</ele>
        <time>2014-01-11T18:25:04Z</time>
      </trkpt>
      <trkpt lat="42.129692" lon="1.586380">
        <ele>0.0</ele>
        <time>2014-01-11T18:25:24Z</time>
      </trkpt>
      <trkpt lat="42.129648" lon="1.586402">
        <ele>0.0</ele>
        <time>2014-01-11T18:25:44Z</time>
      </trkpt>
      <trkpt lat="42.129627" lon="1.586425">
        <ele>0.0</ele>
        <time>2014-01-11T18:26:04Z</time>
      </trkpt>
      <trkpt lat="42.129499" lon="1.586569">
        <ele>0.0</ele>
        <time>2014-01-11T18:26:24Z</time>
      </trkpt>
      <trkpt lat="42.129457" lon="1.586608">
        <ele>0.0</ele>
        <time>2014-01-11T18:26:44Z</time>
      </trkpt>
      <trkpt lat="42.129388" lon="1.586706">
        <ele>0.0</ele>
        <time>2014-01-11T18:27:04Z</time>
      </trkpt>
      <trkpt lat="42.129376" lon="1.586734">
        <ele>0.0</ele>
        <time>2014-01-11T18:27:24Z</time>
      </trkpt>
      <trkpt lat="42.129343" lon="1.586784">
        <ele>0.0</ele>
        <time>2014-01-11T18:27:44Z</time>
      </trkpt>
      <trkpt lat="42.129304" lon="1.586914">
        <ele>0.0</ele>
        <time>2014-01-11T18:28:04Z</time>
      </trkpt>
      <trkpt lat="42.129259" lon="1.586972">
        <ele>0.0</ele>
        <time>2014-01-11T18:28:24Z</time>
      </trkpt>
      <trkpt lat="42.129232" lon="1.587017">
        <ele>0.0</ele>
        <time>2014-01-11T18:28:44Z</time>
      </trkpt>
      <trkpt lat="42.129233" lon="1.587104">
        <ele>0.0</ele>
        <time>2014-01-11T18:29:04Z</time>
      </trkpt>
      <trkpt lat="42.129273" lon="1.587207">
        <ele>0.0</ele>
        <time>2014-01-11T18:29:24Z</time>
      </trkpt>
      <trkpt lat="42.129314" lon="1.587279">
        <ele>0.0</ele>
        <time>2014-01-11T18:29:44Z</time>
      </trkpt>
      <trkpt lat="42.129350" lon="1.587317">
        <ele>0.0</ele>
        <time>2014-01-11T18:30:04Z</time>
      </trkpt>
      <trkpt lat="42.129429" lon="1.587442">
        <ele>0.0</ele>
        <time>2014-01-11T18:30:24Z</time>
      </trkpt>
      <trkpt lat="42.129439" lon="1.587461">
        <ele>0.0</ele>
        <time>2014-01-11T18:30:44Z</time>
      </trkpt>
      <trkpt lat="42.129471" lon="1.587585">
        <ele>0.0</ele>
        <time>2014-01-11T18:31:04Z</time>
      </trkpt>
      <trkpt lat="42.129466" lon="1.587595">
        <ele>0.0</ele>
        <time>2014-01-11T18:31:24Z</time>
      </trkpt>
      <trkpt lat="42.129469" lon="1.587632">
        <ele>0.0</ele>
        <time>2014-01-11T18:31:44Z</time>
      </trkpt>
      <trkpt lat="42.129470" lon="1.587672">
        <ele>0.0</ele>
        <time>2014-01-11T18:32:04Z</time>
      </trkpt>
      <trkpt lat="42.129471" lon="1.587675">
        <ele>0.0</ele>
        <time>2014-01-11T18:32:24Z</time>
      </trkpt>
      <trkpt lat="42.129470" lon="1.587671">
        <ele>0.0</ele>
        <time>2014-01-11T18:32:44Z</time>
      </trkpt>
      <trkpt lat="42.129423" lon="1.587734">
        <ele>0.0</ele>
        <time>2014-01-11T18:33:04Z</time>
      </trkpt>
      <trkpt lat="42.129361" lon="1.587783">
        <ele>0.0</ele>
        <time>2014-01-11T18:33:24Z</time>
      </trkpt>
      <trkpt lat="42.129283" lon="1.587811">
        <ele>0.0</ele>
        <time>2014-01-11T18:33:44Z</time>
      </trkpt>
      <trkpt lat="42.129211" lon="1.587820">
        <ele>0.0</ele>
        <time>2014-01-11T18:34:04Z</time>
      </trkpt>
      <trkpt lat="42.129146" lon="1.587831">
        <ele>0.0</ele>
        <time>2014-01-11T18:34:24Z</time>
      </trkpt>
      <trkpt lat="42.129098" lon="1.587824">
        <ele>0.0</ele>
        <time>2014-01-11T18:34:44Z</time>
      </trkpt>
      <trkpt lat="42.129025" lon="1.587813">
        <ele>0.0</ele>
        <time>2014-01-11T18:35:04Z</time>
      </trkpt>
      <trkpt lat="42.128970" lon="1.587796">
        <ele>0.0</ele>
        <time>2014-01-11T18:35:24Z</time>
      </trkpt>
      <trkpt lat="42.128897" lon="1.587771">
        <ele>0.0</ele>
        <time>2014-01-11T18:35:44Z</time>
      </trkpt>
      <trkpt lat="42.128887" lon="1.587767">
        <ele>0.0</ele>
        <time>2014-01-11T18:36:04Z</time>
      </trkpt>
      <trkpt lat="42.128823" lon="1.587775">
        <ele>0.0</ele>
        <time>2014-01-11T18:36:24Z</time>
      </trkpt>
      <trkpt lat="42.128693" lon="1.587719">
        <ele>0.0</ele>
        <time>2014-01-11T18:36:44Z</time>
      </trkpt>
      <trkpt lat="42.128633" lon="1.587707">
        <ele>0.0</ele>
        <time>2014-01-11T18:37:04Z</time>
      </trkpt>
      <trkpt lat="42.128576" lon="1.587755">
        <ele>0.0</ele>
        <time>2014-01-11T18:37:24Z</time>
      </trkpt>
      <trkpt lat="42.128483" lon="1.587718">
        <ele>0.0</ele>
        <time>2014-01-11T18:37:44Z</time>
      </trkpt>
      <trkpt lat="42.128460" lon="1.587726">
        <ele>0.0</ele>
        <time>2014-01-11T18:38:04Z</time>
      </trkpt>
      <trkpt lat="42.128366" lon="1.587750">
        <ele>0.0</ele>
        <time>2014-01-11T18:38:24Z</time>
      </trkpt>
      <trkpt lat="42.128218" lon="1.587849">
        <ele>0.0</ele>
        <time>2014-01-11T18:38:44Z</time>
      </trkpt>
      <trkpt lat="42.128193" lon="1.587871">
        <ele>0.0</ele>
        <time>2014-01-11T18:39:04Z</time>
      </trkpt>
      <trkpt lat="42.128155" lon="1.587954">
        <ele>0.0</ele>
        <time>2014-01-11T18:39:24Z</time>
      </trkpt>
      <trkpt lat="42.128106" lon="1.587986">
        <ele>0.0</ele>
        <time>2014-01-11T18:39:44Z</time>
      </trkpt>
      <trkpt lat="42.128043" lon="1.588027">
        <ele>0.0</ele>
        <time>2014-01-11T18:40:04Z</time>
      </trkpt>
      <trkpt lat="42.127970" lon="1.588074">
        <ele>0.0</ele>
        <time>2014-01-11T18:40:24Z</time>
      </trkpt>
      <trkpt lat="42.127949" lon="1.588085">
        <ele>0.0</ele>
        <time>2014-01-11T18:40:44Z</time>
      </trkpt>
      <trkpt lat="42.127923" lon="1.588091">
        <ele>0.0</ele>
        <time>2014-01-11T18:41:04Z</time>
      </trkpt>
      <trkpt lat="42.127906" lon="1.588098">
        <ele>0.0</ele>
        <time>2014-01-11T18:41:24Z</time>
      </trkpt>
      <trkpt lat="42.127868" lon="1.588084">
        <ele>0.0</ele>
        <time>2014-01-11T18:41:44Z</time>
      </trkpt>
      <trkpt lat="42.127859" lon="1.588004">
        <ele>0.0</ele>
        <time>2014-01-11T18:42:04Z</time>
      </trkpt>
      <trkpt lat="42.127864" lon="1.587923">
        <ele>0.0</ele>
        <time>2014-01-11T18:42:24Z</time>
      </trkpt>
      <trkpt lat="42.127871" lon="1.587875">
        <ele>0.0</ele>
        <time>2014-01-11T18:42:44Z</time>
      </trkpt>
      <trkpt lat="42.127872" lon="1.587849">
        <ele>0.0</ele>
        <time>2014-01-11T18:43:04Z</time>
      </trkpt>
      <trkpt lat="42.127852" lon="1.587788">
        <ele>0.0</ele>
        <time>2014-01-11T18:43:24Z</time>
      </trkpt>
      <trkpt lat="42.127853" lon="1.587785">
        <ele>0.0</ele>
        <time>2014-01-11T18:43:44Z</time>
      </trkpt>
      <trkpt lat="42.127842" lon="1.587785">
        <ele>0.0</ele>
        <time>2014-01-11T18:44:04Z</time>
      </trkpt>
      <trkpt lat="42.127803" lon="1.587731">
        <ele>0.0</ele>
        <time>2014-01-11T18:44:24Z</time>
      </trkpt>
      <trkpt lat="42.127777" lon="1.587706">
        <ele>0.0</ele>
        <time>2014-01-11T18:44:44Z</time>
      </trkpt>
      <trkpt lat="42.127774" lon="1.587700">
        <ele>0.0</ele>
        <time>2014-01-11T18:45:04Z</time>
      </trkpt>
      <trkpt lat="42.127778" lon="1.587648">
        <ele>0.0</ele>
        <time>2014-01-11T18:45:24Z</time>
      </trkpt>
      <trkpt lat="42.127750" lon="1.587617">
        <ele>0.0</ele>
        <time>2014-01-11T18:45:44Z</time>
      </trkpt>
      <trkpt lat="42.127736" lon="1.587593">
        <ele>0.0</ele>
        <time>2014-01-11T18:46:04Z</time>
      </trkpt>
      <trkpt lat="42.127721" lon="1.587522">
        <ele>0.0</ele>
        <time>2014-01-11T18:46:24Z</time>
      </trkpt>
      <trkpt lat="42.127717" lon="1.587423">
        <ele>0.0</ele>
        <time>2014-01-11T18:46:44Z</time>
      </trkpt>
      <trkpt lat="42.127724" lon="1.587395">
        <ele>0.0</ele>
        <time>2014-01-11T18:47:04Z</time>
      </trkpt>
      <trkpt lat="42.127778" lon="1.587303">
        <ele>0.0</ele>
        <time>2014-01-11T18:47:24Z</time>
      </trkpt>
      <trkpt lat="42.127741" lon="1.587257">
        <ele>0.0</ele>
        <time>2014-01-11T18:47:44Z</time>
      </trkpt>
      <trkpt lat="42.127669" lon="1.587265">
        <ele>0.0</ele>
        <time>2014-01-11T18:48:04Z</time>
      </trkpt>
      <trkpt lat="42.127678" lon="1.587299">
        <ele>0.0</ele>
        <time>2014-01-11T18:48:24Z</time>
      </trkpt>
      <trkpt lat="42.127679" lon="1.587298">
        <ele>0.0</ele>
        <time>2014-01-11T18:48:44Z</time>
      </trkpt>
      <trkpt lat="42.127672" lon="1.587240">
        <ele>0.0</ele>
        <time>2014-01-11T18:49:04Z</time>
      </trkpt>
      <trkpt lat="42.127656" lon="1.587185">
        <ele>0.0</ele>
        <time>2014-01-11T18:49:24Z</time>
      </trkpt>
      <trkpt lat="42.127650" lon="1.587106">
        <ele>0.0</ele>
        <time>2014-01-11T18:49:44Z</time>
      </trkpt>
      <trkpt lat="42.127624" lon="1.587077">
        <ele>0.0</ele>
        <time>2014-01-11T18:50:04Z</time>
      </trkpt>
      <trkpt lat="42.127605" lon="1.587058">
        <ele>0.0</ele>
        <time>2014-01-11T18:50:24Z</time>
      </trkpt>
      <trkpt lat="42.127628" lon="1.586953">
        <ele>0.0</ele>
        <time>2014-01-11T18:50:44Z</time>
      </trkpt>
      <trkpt lat="42.127636" lon="1.586943">
        <ele>0.0</ele>
        <time>2014-01-11T18:51:04Z</time>
      </trkpt>
      <trkpt lat="42.127642" lon="1.586940">
        <ele>0.0</ele>
        <time>2014-01-11T18:51:24Z</time>
      </trkpt>
      <trkpt lat="42.127641" lon="1.586908">
        <ele>0.0</ele>
        <time>2014-01-11T18:51:44Z</time>
      </trkpt>
      <trkpt lat="42.127613" lon="1.586795">
        <ele>0.0</ele>
        <time>2014-01-11T18:52:04Z</time>
      </trkpt>
      <trkpt lat="42.127541" lon="1.586679">
        <ele>0.0</ele>
        <time>2014-01-11T18:52:24Z</time>
      </trkpt>
      <trkpt lat="42.127534" lon="1.586667">
        <ele>0.0</ele>
        <time>2014-01-11T18:52:44Z</time>
      </trkpt>
      <trkpt lat="42.127456" lon="1.586521">
        <ele>0.0</ele>
        <time>2014-01-11T18:53:04Z</time>
      </trkpt>
      <trkpt lat="42.127466" lon="1.586391">
        <ele>0.0</ele>
        <time>2014-01-11T18:53:24Z</time>
      </trkpt>
      <trkpt lat="42.127467" lon="1.586364">
        <ele>0.0</ele>
        <time>2014-01-11T18:53:44Z</time>
      </trkpt>
      <trkpt lat="42.127473" lon="1.586336">
        <ele>0.0</ele>
        <time>2014-01-11T18:54:04Z</time>
      </trkpt>
      <trkpt lat="42.127489" lon="1.586255">
        <ele>0.0</ele>
        <time>2014-01-11T18:54:24Z</time>
      </trkpt>
      <trkpt lat="42.127587" lon="1.586109">
        <ele>0.0</ele>
        <time>2014-01-11T18:54:44Z</time>
      </trkpt>
      <trkpt lat="42.127648" lon="1.586076">
        <ele>0.0</ele>
        <time>2014-01-11T18:55:04Z</time>
      </trkpt>
      <trkpt lat="42.127641" lon="1.586006">
        <ele>0.0</ele>
        <time>2014-01-11T18:55:24Z</time>
      </trkpt>
      <trkpt lat="42.127659" lon="1.585901">
        <ele>0.0</ele>
        <time>2014-01-11T18:55:44Z</time>
      </trkpt>
      <trkpt lat="42.127722" lon="1.585813">
        <ele>0.0</ele>
        <time>2014-01-11T18:56:04Z</time>
      </trkpt>
      <trkpt lat="42.127755" lon="1.585744">
        <ele>0.0</ele>
        <time>2014-01-11T18:56:24Z</time>
      </trkpt>
      <trkpt lat="42.127769" lon="1.585722">
        <ele>0.0</ele>
        <time>2014-01-11T18:56:44Z</time>
      </trkpt>
      <trkpt lat="42.127781" lon="1.585573">
        <ele>0.0</ele>
        <time>2014-01-11T18:57:04Z</time>
      </trkpt>
      <trkpt lat="42.127763" lon="1.585504">
        <ele>0.0</ele>
        <time>2014-01-11T18:57:24Z</time>
      </trkpt>
      <trkpt lat="42.127756" lon="1.585380">
        <ele>0.0</ele>
        <time>2014-01-11T18:57:44Z</time>
      </trkpt>
      <trkpt lat="42.127732" lon="1.585349">
        <ele>0.0</ele>
        <time>2014-01-11T18:58:04Z</time>
      </trkpt>
      <trkpt lat="42.127774" lon="1.585227">
        <ele>0.0</ele>
        <time>2014-01-11T18:58:24Z</time>
      </trkpt>
      <trkpt lat="42.127791" lon="1.585183">
        <ele>0.0</ele>
        <time>2014-01-11T18:58:44Z</time>
      </trkpt>
      <trkpt lat="42.127800" lon="1.585027">
        <ele>0.0</ele>
        <time>2014-01-11T18:59:04Z</time>
      </trkpt>
      <trkpt lat="42.127797" lon="1.584943">
        <ele>0.0</ele>
        <time>2014-01-11T18:59:24Z</time>
      </trkpt>
      <trkpt lat="42.127788" lon="1.584872">
        <ele>0.0</ele>
        <time>2014-01-11T18:59:44Z</time>
      </trkpt>
      <trkpt lat="42.127714" lon="1.584874">
        <ele>0.0</ele>
        <time>2014-01-11T19:00:04Z</time>
      </trkpt>
      <trkpt lat="42.127650" lon="1.584808">
        <ele>0.0</ele>
        <time>2014-01-11T19:00:24Z</time>
      </trkpt>
      <trkpt lat="42.127643" lon="1.584754">
        <ele>0.0</ele>
        <time>2014-01-11T19:00:44Z</time>
      </trkpt>
      <trkpt lat="42.127649" lon="1.584709">
        <ele>0.0</ele>
        <time>2014-01-11T19:01:04Z</time>
      </trkpt>
      <trkpt lat="42.127645" lon="1.584715">
        <ele>0.0</ele>
        <time>2014-01-11T19:01:24Z</time>
      </trkpt>
      <trkpt lat="42.127632" lon="1.584698">
        <ele>0.0</ele>
        <time>2014-01-11T19:01:44Z</time>
      </trkpt>
      <trkpt lat="42.127595" lon="1.584670">
        <ele>0.0</ele>
        <time>2014-01-11T19:02:04Z</time>
      </trkpt>
      <trkpt lat="42.127546" lon="1.584577">
        <ele>0.0</ele>
        <time>2014-01-11T19:02:24Z</time>
      </trkpt>
      <trkpt lat="42.127483" lon="1.584477">
        <ele>0.0</ele>
        <time>2014-01-11T19:02:44Z</time>
      </trkpt>
      <trkpt lat="42.127417" lon="1.584457">
        <ele>0.0</ele>
        <time>2014-01-11T19:03:04Z</time>
      </trkpt>
      <trkpt lat="42.127422" lon="1.584428">
        <ele>0.0</ele>
        <time>2014-01-11T19:03:24Z</time>
      </trkpt>
      <trkpt lat="42.127389" lon="1.584377">
        <ele>0.0</ele>
        <time>2014-01-11T19:03:44Z</time>
      </trkpt>
      <trkpt lat="42.127324" lon="1.584314">
        <ele>0.0</ele>
        <time>2014-01-11T19:04:04Z</time>
      </trkpt>
      <trkpt lat="42.127289" lon="1.584230">
        <ele>0.0</ele>
        <time>2014-01-11T19:04:24Z</time>
      </trkpt>
      <trkpt lat="42.127257" lon="1.584165">
        <ele>0.0</ele>
        <time>2014-01-11T19:04:44Z</time>
      </trkpt>
      <trkpt lat="42.127216" lon="1.584031">
        <ele>0.0</ele>
        <time>2014-01-11T19:05:04Z</time>
      </trkpt>
      <trkpt lat="42.127188" lon="1.583973">
        <ele>0.0</ele>
        <time>2014-01-11T19:05:24Z</time>
      </trkpt>
      <trkpt lat="42.127151" lon="1.583911">
        <ele>0.0</ele>
        <time>2014-01-11T19:05:44Z</time>
      </trkpt>
      <trkpt lat="42.127091" lon="1.583867">
        <ele>0.0</ele>
        <time>2014-01-11T19:06:04Z</time>
      </trkpt>
      <trkpt lat="42.126988" lon="1.583820">
        <ele>0.0</ele>
        <time>2014-01-11T19:06:24Z</time>
      </trkpt>
      <trkpt lat="42.126931" lon="1.583764">
        <ele>0.0</ele>
        <time>2014-01-11T19:06:44Z</time>
      </trkpt>
      <trkpt lat="42.126878" lon="1.583700">
        <ele>0.0</ele>
        <time>2014-01-11T19:07:04Z</time>
      </trkpt>
      <trkpt lat="42.126857" lon="1.583646">
        <ele>0.0</ele>
        <time>2014-01-11T19:07:24Z</time>
      </trkpt>
      <trkpt lat="42.126828" lon="1.583640">
        <ele>0.0</ele>
        <time>2014-01-11T19:07:44Z</time>
      </trkpt>
      <trkpt lat="42.126819" lon="1.583660">
        <ele>0.0</ele>
        <time>2014-01-11T19:08:04Z</time>
      </trkpt>
      <trkpt lat="42.126817" lon="1.583669">
        <ele>0.0</ele>
        <time>2014-01-11T19:08:24Z</time>
      </trkpt>
      <trkpt lat="42.126806" lon="1.583717">
        <ele>0.0</ele>
        <time>2014-01-11T19:08:44Z</time>
      </trkpt>
      <trkpt lat="42.126792" lon="1.583723">
        <ele>0.0</ele>
        <time>2014-01-11T19:09:04Z</time>
      </trkpt>
      <trkpt lat="42.126790" lon="1.583723">
        <ele>0.0</ele>
        <time>2014-01-11T19:09:24Z</time>
      </trkpt>
      <trkpt lat="42.126790" lon="1.583728">
        <ele>0.0</ele>
        <time>2014-01-11T19:09:44Z</time>
      </trkpt>
      <trkpt lat="42.126785" lon="1.583746">
        <ele>0.0</ele>
        <time>2014-01-11T19:10:04Z</time>
      </trkpt>
      <trkpt lat="42.126774" lon="1.583750">
        <ele>0.0</ele>
        <time>2014-01-11T19:10:24Z</time>
      </trkpt>
      <trkpt lat="42.126768" lon="1.583747">
        <ele>0.0</ele>
        <time>2014-01-11T19:10:44Z</time>
      </trkpt>
      <trkpt lat="42.126758" lon="1.583740">
        <ele>0.0</ele>
        <time>2014-01-11T19:11:04Z</time>
      </trkpt>
      <trkpt lat="42.126757" lon="1.583738">
        <ele>0.0</ele>
        <time>2014-01-11T19:11:24Z</time>
      </trkpt>
      <trkpt lat="42.126757" lon="1.583739">
        <ele>0.0</ele>
        <time>2014-01-11T19:11:44Z</time>
      </trkpt>
      <trkpt lat="42.126757" lon="1.583738">
        <ele>0.0</ele>
        <time>2014-01-11T19:12:04Z</time>
      </trkpt>
      <trkpt lat="42.126758" lon="1.583738">
        <ele>0.0</ele>
        <time>2014-01-11T19:12:24Z</time>
      </trkpt>
      <trkpt lat="42.126761" lon="1.583731">
        <ele>0.0</ele>
        <time>2014-01-11T19:12:44Z</time>
      </trkpt>
      <trkpt lat="42.126760" lon="1.583737">
        <ele>0.0</ele>
        <time>2014-01-11T19:13:04Z</time>
      </trkpt>
      <trkpt lat="42.126753" lon="1.583756">
        <ele>0.0</ele>
        <time>2014-01-11T19:13:24Z</time>
      </trkpt>
      <trkpt lat="42.126752" lon="1.583760">
        <ele>0.0</ele>
        <time>2014-01-11T19:13:44Z</time>
      </trkpt>
      <trkpt lat="42.126739" lon="1.583766">
        <ele>0.0</ele>
        <time>2014-01-11T19:14:04Z</time>
      </trkpt>
      <trkpt lat="42.126733" lon="1.583766">
        <ele>0.0</ele>
        <time>2014-01-11T19:14:24Z</time>
      </trkpt>
      <trkpt lat="42.126700" lon="1.583762">
        <ele>0.0</ele>
        <time>2014-01-11T19:14:44Z</time>
      </trkpt>
      <trkpt lat="42.126683" lon="1.583733">
        <ele>0.0</ele>
        <time>2014-01-11T19:15:04Z</time>
      </trkpt>
      <trkpt lat="42.126677" lon="1.583727">
        <ele>0.0</ele>
        <time>2014-01-11T19:15:24Z</time>
      </trkpt>
      <trkpt lat="42.126643" lon="1.583720">
        <ele>0.0</ele>
        <time>2014-01-11T19:15:44Z</time>
      </trkpt>
      <trkpt lat="42.126625" lon="1.583710">
        <ele>0.0</ele>
        <time>2014-01-11T19:16:04Z</time>
      </trkpt>
      <trkpt lat="42.126589" lon="1.583692">
        <ele>0.0</ele>
        <time>2014-01-11T19:16:24Z</time>
      </trkpt>
      <trkpt lat="42.126574" lon="1.583669">
        <ele>0.0</ele>
        <time>2014-01-11T19:16:44Z</time>
      </trkpt>
      <trkpt lat="42.126560" lon="1.583647">
        <ele>0.0</ele>
        <time>2014-01-11T19:17:04Z</time>
      </trkpt>
      <trkpt lat="42.126560" lon="1.583642">
        <ele>0.0</ele>
        <time>2014-01-11T19:17:24Z</time>
      </trkpt>
      <trkpt lat="42.126557" lon="1.583639">
        <ele>0.0</ele>
        <time>2014-01-11T19:17:44Z</time>
      </trkpt>
      <trkpt lat="42.126551" lon="1.583625">
        <ele>0.0</ele>
        <time>2014-01-11T19:18:04Z</time>
      </trkpt>
      <trkpt lat="42.126547" lon="1.583622">
        <ele>0.0</ele>
        <time>2014-01-11T19:18:24Z</time>
      </trkpt>
      <trkpt lat="42.126545" lon="1.583581">
        <ele>0.0</ele>
        <time>2014-01-11T19:18:44Z</time>
      </trkpt>
      <trkpt lat="42.126549" lon="1.583514">
        <ele>0.0</ele>
        <time>2014-01-11T19:19:04Z</time>
      </trkpt>
      <trkpt lat="42.126550" lon="1.583487">
        <ele>0.0</ele>
        <time>2014-01-11T19:19:24Z</time>
      </trkpt>
      <trkpt lat="42.126541" lon="1.583424">
        <ele>0.0</ele>
        <time>2014-01-11T19:19:44Z</time>
      </trkpt>
      <trkpt lat="42.126544" lon="1.583376">
        <ele>0.0</ele>
        <time>2014-01-11T19:20:04Z</time>
      </trkpt>
      <trkpt lat="42.126557" lon="1.583286">
        <ele>0.0</ele>
        <time>2014-01-11T19:20:24Z</time>
      </trkpt>
      <trkpt lat="42.126554" lon="1.583265">
        <ele>0.0</ele>
        <time>2014-01-11T19:20:44Z</time>
      </trkpt>
      <trkpt lat="42.126548" lon="1.583229">
        <ele>0.0</ele>
        <time>2014-01-11T19:21:04Z</time>
      </trkpt>
      <trkpt lat="42.126548" lon="1.583207">
        <ele>0.0</ele>
        <time>2014-01-11T19:21:24Z</time>
      </trkpt>
      <trkpt lat="42.126542" lon="1.583155">
        <ele>0.0</ele>
        <time>2014-01-11T19:21:44Z</time>
      </trkpt>
      <trkpt lat="42.126539" lon="1.583144">
        <ele>0.0</ele>
        <time>2014-01-11T19:22:04Z</time>
      </trkpt>
      <trkpt lat="42.126543" lon="1.583082">
        <ele>0.0</ele>
        <time>2014-01-11T19:22:24Z</time>
      </trkpt>
      <trkpt lat="42.126540" lon="1.583048">
        <ele>0.0</ele>
        <time>2014-01-11T19:22:44Z</time>
      </trkpt>
      <trkpt lat="42.126519" lon="1.583046">
        <ele>0.0</ele>
        <time>2014-01-11T19:23:04Z</time>
      </trkpt>
      <trkpt lat="42.126508" lon="1.583007">
        <ele>0.0</ele>
        <time>2014-01-11T19:23:24Z</time>
      </trkpt>
      <trkpt lat="42.126495" lon="1.582971">
        <ele>0.0</ele>
        <time>2014-01-11T19:23:44Z</time>
      </trkpt>
      <trkpt lat="42.126487" lon="1.582939">
        <ele>0.0</ele>
        <time>2014-01-11T19:24:04Z</time>
      </trkpt>
      <trkpt lat="42.126462" lon="1.582895">
        <ele>0.0</ele>
        <time>2014-01-11T19:24:24Z</time>
      </trkpt>
      <trkpt lat="42.126462" lon="1.582890">
        <ele>0.0</ele>
        <time>2014-01-11T19:24:44Z</time>
      </trkpt>
      <trkpt lat="42.126458" lon="1.582896">
        <ele>0.0</ele>
        <time>2014-01-11T19:25:04Z</time>
      </trkpt>
      <trkpt lat="42.126459" lon="1.582896">
        <ele>0.0</ele>
        <time>2014-01-11T19:25:24Z</time>
      </trkpt>
      <trkpt lat="42.126460" lon="1.582874">
        <ele>0.0</ele>
        <time>2014-01-11T19:25:44Z</time>
      </trkpt>
      <trkpt lat="42.126458" lon="1.582852">
        <ele>0.0</ele>
        <time>2014-01-11T19:26:04Z</time>
      </trkpt>
      <trkpt lat="42.126455" lon="1.582845">
        <ele>0.0</ele>
        <time>2014-01-11T19:26:24Z</time>
      </trkpt>
      <trkpt lat="42.126456" lon="1.582849">
        <ele>0.0</ele>
        <time>2014-01-11T19:26:44Z</time>
      </trkpt>
      <trkpt lat="42.126476" lon="1.582797">
        <ele>0.0</ele>
        <time>2014-01-11T19:27:04Z</time>
      </trkpt>
      <trkpt lat="42.126507" lon="1.582748">
        <ele>0.0</ele>
        <time>2014-01-11T19:27:24Z</time>
      </trkpt>
      <trkpt lat="42.126534" lon="1.582685">
        <ele>0.0</ele>
        <time>2014-01-11T19:27:44Z</time>
      </trkpt>
      <trkpt lat="42.126547" lon="1.582618">
        <ele>0.0</ele>
        <time>2014-01-11T19:28:04Z</time>
      </trkpt>
      <trkpt lat="42.126567" lon="1.582568">
        <ele>0.0</ele>
        <time>2014-01-11T19:28:24Z</time>
      </trkpt>
      <trkpt lat="42.126608" lon="1.582508">
        <ele>0.0</ele>
        <time>2014-01-11T19:28:44Z</time>
      </trkpt>
      <trkpt lat="42.126621" lon="1.582488">
        <ele>0.0</ele>
        <time>2014-01-11T19:29:04Z</time>
      </trkpt>
      <trkpt lat="42.126677" lon="1.582398">
        <ele>0.0</ele>
        <time>2014-01-11T19:29:24Z</time>
      </trkpt>
      <trkpt lat="42.126698" lon="1.582330">
        <ele>0.0</ele>
        <time>2014-01-11T19:29:44Z</time>
      </trkpt>
      <trkpt lat="42.126703" lon="1.582245">
        <ele>0.0</ele>
        <time>2014-01-11T19:30:04Z</time>
      </trkpt>
      <trkpt lat="42.126742" lon="1.582128">
        <ele>0.0</ele>
        <time>2014-01-11T19:30:24Z</time>
      </trkpt>
      <trkpt lat="42.126773" lon="1.582015">
        <ele>0.0</ele>
        <time>2014-01-11T19:30:44Z</time>
      </trkpt>
      <trkpt lat="42.126786" lon="1.581978">
        <ele>0.0</ele>
        <time>2014-01-11T19:31:04Z</time>
      </trkpt>
      <trkpt lat="42.126807" lon="1.581844">
        <ele>0.0</ele>
        <time>2014-01-11T19:31:24Z</time>
      </trkpt>
      <trkpt lat="42.126833" lon="1.581788">
        <ele>0.0</ele>
        <time>2014-01-11T19:31:44Z</time>
      </trkpt>
      <trkpt lat="42.126910" lon="1.581670">
        <ele>0.0</ele>
        <time>2014-01-11T19:32:04Z</time>
      </trkpt>
      <trkpt lat="42.126932" lon="1.581567">
        <ele>0.0</ele>
        <time>2014-01-11T19:32:24Z</time>
      </trkpt>
      <trkpt lat="42.126930" lon="1.581553">
        <ele>0.0</ele>
        <time>2014-01-11T19:32:44Z</time>
      </trkpt>
      <trkpt lat="42.126930" lon="1.581467">
        <ele>0.0</ele>
        <time>2014-01-11T19:33:04Z</time>
      </trkpt>
      <trkpt lat="42.126910" lon="1.581417">
        <ele>0.0</ele>
        <time>2014-01-11T19:33:24Z</time>
      </trkpt>
      <trkpt lat="42.126871" lon="1.581361">
        <ele>0.0</ele>
        <time>2014-01-11T19:33:44Z</time>
      </trkpt>
      <trkpt lat="42.126862" lon="1.581271">
        <ele>0.0</ele>
        <time>2014-01-11T19:34:04Z</time>
      </trkpt>
      <trkpt lat="42.126876" lon="1.581141">
        <ele>0.0</ele>
        <time>2014-01-11T19:34:24Z</time>
      </trkpt>
      <trkpt lat="42.126869" lon="1.581042">
        <ele>0.0</ele>
        <time>2014-01-11T19:34:44Z</time>
      </trkpt>
      <trkpt lat="42.126904" lon="1.580955">
        <ele>0.0</ele>
        <time>2014-01-11T19:35:04Z</time>
      </trkpt>
      <trkpt lat="42.126908" lon="1.580928">
        <ele>0.0</ele>
        <time>2014-01-11T19:35:24Z</time>
      </trkpt>
      <trkpt lat="42.126889" lon="1.580774">
        <ele>0.0</ele>
        <time>2014-01-11T19:35:44Z</time>
      </trkpt>
      <trkpt lat="42.126895" lon="1.580673">
        <ele>0.0</ele>
        <time>2014-01-11T19:36:04Z</time>
      </trkpt>
      <trkpt lat="42.126909" lon="1.580603">
        <ele>0.0</ele>
        <time>2014-01-11T19:36:24Z</time>
      </trkpt>
      <trkpt lat="42.126925" lon="1.580515">
        <ele>0.0</ele>
        <time>2014-01-11T19:36:44Z</time>
      </trkpt>
      <trkpt lat="42.126910" lon="1.580456">
        <ele>0.0</ele>
        <time>2014-01-11T19:37:04Z</time>
      </trkpt>
      <trkpt lat="42.126953" lon="1.580326">
        <ele>0.0</ele>
        <time>2014-01-11T19:37:24Z</time>
      </trkpt>
      <trkpt lat="42.126959" lon="1.580318">
        <ele>0.0</ele>
        <time>2014-01-11T19:37:44Z</time>
      </trkpt>
      <trkpt lat="42.126994" lon="1.580248">
        <ele>0.0</ele>
        <time>2014-01-11T19:38:04Z</time>
      </trkpt>
      <trkpt lat="42.127014" lon="1.580156">
        <ele>0.0</ele>
        <time>2014-01-11T19:38:24Z</time>
      </trkpt>
      <trkpt lat="42.127038" lon="1.580141">
        <ele>0.0</ele>
        <time>2014-01-11T19:38:44Z</time>
      </trkpt>
      <trkpt lat="42.127051" lon="1.580032">
        <ele>0.0</ele>
        <time>2014-01-11T19:39:04Z</time>
      </trkpt>
      <trkpt lat="42.127047" lon="1.580020">
        <ele>0.0</ele>
        <time>2014-01-11T19:39:24Z</time>
      </trkpt>
      <trkpt lat="42.127017" lon="1.579964">
        <ele>0.0</ele>
        <time>2014-01-11T19:39:44Z</time>
      </trkpt>
      <trkpt lat="42.126992" lon="1.579927">
        <ele>0.0</ele>
        <time>2014-01-11T19:40:04Z</time>
      </trkpt>
      <trkpt lat="42.126968" lon="1.579904">
        <ele>0.0</ele>
        <time>2014-01-11T19:40:24Z</time>
      </trkpt>
      <trkpt lat="42.126944" lon="1.579864">
        <ele>0.0</ele>
        <time>2014-01-11T19:40:44Z</time>
      </trkpt>
      <trkpt lat="42.126904" lon="1.579797">
        <ele>0.0</ele>
        <time>2014-01-11T19:41:04Z</time>
      </trkpt>
      <trkpt lat="42.126920" lon="1.579746">
        <ele>0.0</ele>
        <time>2014-01-11T19:41:24Z</time>
      </trkpt>
      <trkpt lat="42.126940" lon="1.579671">
        <ele>0.0</ele>
        <time>2014-01-11T19:41:44Z</time>
      </trkpt>
      <trkpt lat="42.126950" lon="1.579631">
        <ele>0.0</ele>
        <time>2014-01-11T19:42:04Z</time>
      </trkpt>
      <trkpt lat="42.126949" lon="1.579600">
        <ele>0.0</ele>
        <time>2014-01-11T19:42:24Z</time>
      </trkpt>
      <trkpt lat="42.126952" lon="1.579538">
        <ele>0.0</ele>
        <time>2014-01-11T19:42:44Z</time>
      </trkpt>
      <trkpt lat="42.126971" lon="1.579466">
        <ele>0.0</ele>
        <time>2014-01-11T19:43:04Z</time>
      </trkpt>
      <trkpt lat="42.127002" lon="1.579407">
        <ele>0.0</ele>
        <time>2014-01-11T19:43:24Z</time>
      </trkpt>
      <trkpt lat="42.127023" lon="1.579344">
        <ele>0.0</ele>
        <time>2014-01-11T19:43:44Z</time>
      </trkpt>
      <trkpt lat="42.127040" lon="1.579302">
        <ele>0.0</ele>
        <time>2014-01-11T19:44:04Z</time>
      </trkpt>
      <trkpt lat="42.127049" lon="1.579241">
        <ele>0.0</ele>
        <time>2014-01-11T19:44:24Z</time>
      </trkpt>
      <trkpt lat="42.127044" lon="1.579155">
        <ele>0.0</ele>
        <time>2014-01-11T19:44:44Z</time>
      </trkpt>
      <trkpt lat="42.127067" lon="1.579075">
        <ele>0.0</ele>
        <time>2014-01-11T19:45:04Z</time>
      </trkpt>
      <trkpt lat="42.127123" lon="1.578983">
        <ele>0.0</ele>
        <time>2014-01-11T19:45:24Z</time>
      </trkpt>
      <trkpt lat="42.127160" lon="1.578938">
        <ele>0.0</ele>
        <time>2014-01-11T19:45:44Z</time>
      </trkpt>
      <trkpt lat="42.127161" lon="1.578931">
        <ele>0.0</ele>
        <time>2014-01-11T19:46:04Z</time>
      </trkpt>
      <trkpt lat="42.127226" lon="1.578883">
        <ele>0.0</ele>
        <time>2014-01-11T19:46:24Z</time>
      </trkpt>
      <trkpt lat="42.127282" lon="1.578876">
        <ele>0.0</ele>
        <time>2014-01-11T19:46:44Z</time>
      </trkpt>
      <trkpt lat="42.127269" lon="1.578735">
        <ele>0.0</ele>
        <time>2014-01-11T19:47:04Z</time>
      </trkpt>
      <trkpt lat="42.127331" lon="1.578627">
        <ele>0.0</ele>
        <time>2014-01-11T19:47:24Z</time>
      </trkpt>
      <trkpt lat="42.127337" lon="1.578606">
        <ele>0.0</ele>
        <time>2014-01-11T19:47:44Z</time>
      </trkpt>
      <trkpt lat="42.127394" lon="1.578510">
        <ele>0.0</ele>
        <time>2014-01-11T19:48:04Z</time>
      </trkpt>
      <trkpt lat="42.127383" lon="1.578414">
        <ele>0.0</ele>
        <time>2014-01-11T19:48:24Z</time>
      </trkpt>
      <trkpt lat="42.127380" lon="1.578413">
        <ele>0.0</ele>
        <time>2014-01-11T19:48:44Z</time>
      </trkpt>
      <trkpt lat="42.127425" lon="1.578317">
        <ele>0.0</ele>
        <time>2014-01-11T19:49:04Z</time>
      </trkpt>
      <trkpt lat="42.127421" lon="1.578251">
        <ele>0.0</ele>
        <time>2014-01-11T19:49:24Z</time>
      </trkpt>
      <trkpt lat="42.127417" lon="1.578243">
        <ele>0.0</ele>
        <time>2014-01-11T19:49:44Z</time>
      </trkpt>
      <trkpt lat="42.127420" lon="1.578234">
        <ele>0.0</ele>
        <time>2014-01-11T19:50:04Z</time>
      </trkpt>
      <trkpt lat="42.127418" lon="1.578232">
        <ele>0.0</ele>
        <time>2014-01-11T19:50:24Z</time>
      </trkpt>
      <trkpt lat="42.127414" lon="1.578210">
        <ele>0.0</ele>
        <time>2014-01-11T19:50:44Z</time>
      </trkpt>
      <trkpt lat="42.127395" lon="1.578109">
        <ele>0.0</ele>
        <time>2014-01-11T19:51:04Z</time>
      </trkpt>
      <trkpt lat="42.127394" lon="1.578065">
        <ele>0.0</ele>
        <time>2014-01-11T19:51:24Z</time>
      </trkpt>
      <trkpt lat="42.127391" lon="1.578002">
        <ele>0.0</ele>
        <time>2014-01-11T19:51:44Z</time>
      </trkpt>
      <trkpt lat="42.127385" lon="1.577953">
        <ele>0.0</ele>
        <time>2014-01-11T19:52:04Z</time>
      </trkpt>
      <trkpt lat="42.127392" lon="1.577899">
        <ele>0.0</ele>
        <time>2014-01-11T19:52:24Z</time>
      </trkpt>
      <trkpt lat="42.127371" lon="1.577831">
        <ele>0.0</ele>
        <time>2014-01-11T19:52:44Z</time>
      </trkpt>
      <trkpt lat="42.127359" lon="1.577785">
        <ele>0.0</ele>
        <time>2014-01-11T19:53:04Z</time>
      </trkpt>
      <trkpt lat="42.127359" lon="1.577775">
        <ele>0.0</ele>
        <time>2014-01-11T19:53:24Z</time>
      </trkpt>
      <trkpt lat="42.127318" lon="1.577682">
        <ele>0.0</ele>
        <time>2014-01-11T19:53:44Z</time>
      </trkpt>
      <trkpt lat="42.127282" lon="1.577656">
        <ele>0.0</ele>
        <time>2014-01-11T19:54:04Z</time>
      </trkpt>
      <trkpt lat="42.127217" lon="1.577642">
        <ele>0.0</ele>
        <time>2014-01-11T19:54:24Z</time>
      </trkpt>
      <trkpt lat="42.127191" lon="1.577633">
        <ele>0.0</ele>
        <time>2014-01-11T19:54:44Z</time>
      </trkpt>
      <trkpt lat="42.127147" lon="1.577575">
        <ele>0.0</ele>
        <time>2014-01-11T19:55:04Z</time>
      </trkpt>
      <trkpt lat="42.127144" lon="1.577574">
        <ele>0.0</ele>
        <time>2014-01-11T19:55:24Z</time>
      </trkpt>
      <trkpt lat="42.127139" lon="1.577583">
        <ele>0.0</ele>
        <time>2014-01-11T19:55:44Z</time>
      </trkpt>
      <trkpt lat="42.127106" lon="1.577587">
        <ele>0.0</ele>
        <time>2014-01-11T19:56:04Z</time>
      </trkpt>
      <trkpt lat="42.127084" lon="1.577579">
        <ele>0.0</ele>
        <time>2014-01-11T19:56:24Z</time>
      </trkpt>
      <trkpt lat="42.127094" lon="1.577566">
        <ele>0.0</ele>
        <time>2014-01-11T19:56:44Z</time>
      </trkpt>
      <trkpt lat="42.127143" lon="1.577490">
        <ele>0.0</ele>
        <time>2014-01-11T19:57:04Z</time>
      </trkpt>
      <trkpt lat="42.127238" lon="1.577426">
        <ele>0.0</ele>
        <time>2014-01-11T19:57:24Z</time>
      </trkpt>
      <trkpt lat="42.127329" lon="1.577371">
        <ele>0.0</ele>
        <time>2014-01-11T19:57:44Z</time>
      </trkpt>
      <trkpt lat="42.127446" lon="1.577307">
        <ele>0.0</ele>
        <time>2014-01-11T19:58:04Z</time>
      </trkpt>
      <trkpt lat="42.127483" lon="1.577291">
        <ele>0.0</ele>
        <time>2014-01-11T19:58:24Z</time>
      </trkpt>
      <trkpt lat="42.127493" lon="1.577281">
        <ele>0.0</ele>
        <time>2014-01-11T19:58:44Z</time>
      </trkpt>
      <trkpt lat="42.127582" lon="1.577235">
        <ele>0.0</ele>
        <time>2014-01-11T19:59:04Z</time>
      </trkpt>
      <trkpt lat="42.127648" lon="1.577217">
        <ele>0.0</ele>
        <time>2014-01-11T19:59:24Z</time>
      </trkpt>
      <trkpt lat="42.127701" lon="1.577198">
        <ele>0.0</ele>
        <time>2014-01-11T19:59:44Z</time>
      </trkpt>
      <trkpt lat="42.127739" lon="1.577169">
        <ele>0.0</ele>
        <time>2014-01-11T20:00:04Z</time>
      </trkpt>
      <trkpt lat="42.127815" lon="1.577180">
        <ele>0.0</ele>
        <time>2014-01-11T20:00:24Z</time>
      </trkpt>
      <trkpt lat="42.127849" lon="1.577143">
        <ele>0.0</ele>
        <time>2014-01-11T20:00:44Z</time>
      </trkpt>
      <trkpt lat="42.127852" lon="1.577144">
        <ele>0.0</ele>
        <time>2014-01-11T20:01:04Z</time>
      </trkpt>
      <trkpt lat="42.127839" lon="1.577078">
        <ele>0.0</ele>
        <time>2014-01-11T20:01:24Z</time>
      </trkpt>
      <trkpt lat="42.127794" lon="1.577046">
        <ele>0.0</ele>
        <time>2014-01-11T20:01:44Z</time>
      </trkpt>
      <trkpt lat="42.127785" lon="1.577035">
        <ele>0.0</ele>
        <time>2014-01-11T20:02:04Z</time>
      </trkpt>
      <trkpt lat="42.127704" lon="1.576988">
        <ele>0.0</ele>
        <time>2014-01-11T20:02:24Z</time>
      </trkpt>
      <trkpt lat="42.127657" lon="1.576955">
        <ele>0.0</ele>
        <time>2014-01-11T20:02:44Z</time>
      </trkpt>
      <trkpt lat="42.127570" lon="1.576851">
        <ele>0.0</ele>
        <time>2014-01-11T20:03:04Z</time>
      </trkpt>
      <trkpt lat="42.127551" lon="1.576841">
        <ele>0.0</ele>
        <time>2014-01-11T20:03:24Z</time>
      </trkpt>
      <trkpt lat="42.127487" lon="1.576832">
        <ele>0.0</ele>
        <time>2014-01-11T20:03:44Z</time>
      </trkpt>
      <trkpt lat="42.127464" lon="1.576819">
        <ele>0.0</ele>
        <time>2014-01-11T20:04:04Z</time>
      </trkpt>
      <trkpt lat="42.127403" lon="1.576789">
        <ele>0.0</ele>
        <time>2014-01-11T20:04:24Z</time>
      </trkpt>
      <trkpt lat="42.127395" lon="1.576784">
        <ele>0.0</ele>
        <time>2014-01-11T20:04:44Z</time>
      </trkpt>
      <trkpt lat="42.127348" lon="1.576774">
        <ele>0.0</ele>
        <time>2014-01-11T20:05:04Z</time>
      </trkpt>
      <trkpt lat="42.127223" lon="1.576769">
        <ele>0.0</ele>
        <time>2014-01-11T20:05:24Z</time>
      </trkpt>
      <trkpt lat="42.127177" lon="1.576747">
        <ele>0.0</ele>
        <time>2014-01-11T20:05:44Z</time>
      </trkpt>
      <trkpt lat="42.127178" lon="1.576747">
        <ele>0.0</ele>
        <time>2014-01-11T20:06:04Z</time>
      </trkpt>
      <trkpt lat="42.127133" lon="1.576740">
        <ele>0.0</ele>
        <time>2014-01-11T20:06:24Z</time>
      </trkpt>
      <trkpt lat="42.127063" lon="1.576749">
        <ele>0.0</ele>
        <time>2014-01-11T20:06:44Z</time>
      </trkpt>
      <trkpt lat="42.127034" lon="1.576755">
        <ele>0.0</ele>
        <time>2014-01-11T20:07:04Z</time>
      </trkpt>
      <trkpt lat="42.127001" lon="1.576766">
        <ele>0.0</ele>
        <time>2014-01-11T20:07:24Z</time>
      </trkpt>
      <trkpt lat="42.126997" lon="1.576769">
        <ele>0.0</ele>
        <time>2014-01-11T20:07:44Z</time>
      </trkpt>
      <trkpt lat="42.126924" lon="1.576765">
        <ele>0.0</ele>
        <time>2014-01-11T20:08:04Z</time>
      </trkpt>
      <trkpt lat="42.126902" lon="1.576769">
        <ele>0.0</ele>
        <time>2014-01-11T20:08:24Z</time>
      </trkpt>
      <trkpt lat="42.126864" lon="1.576771">
        <ele>0.0</ele>
        <time>2014-01-11T20:08:44Z</time>
      </trkpt>
      <trkpt lat="42.126864" lon="1.576738">
        <ele>0.0</ele>
        <time>2014-01-11T20:09:04Z</time>
      </trkpt>
      <trkpt lat="42.126864" lon="1.576715">
        <ele>0.0</ele>
        <time>2014-01-11T20:09:24Z</time>
      </trkpt>
      <trkpt lat="42.126862" lon="1.576704">
        <ele>0.0</ele>
        <time>2014-01-11T20:09:44Z</time>
      </trkpt>
      <trkpt lat="42.126821" lon="1.576650">
        <ele>0.0</ele>
        <time>2014-01-11T20:10:04Z</time>
      </trkpt>
      <trkpt lat="42.126809" lon="1.576624">
        <ele>0.0</ele>
        <time>2014-01-11T20:10:24Z</time>
      </trkpt>
      <trkpt lat="42.126764" lon="1.576601">
        <ele>0.0</ele>
        <time>2014-01-11T20:10:44Z</time>
      </trkpt>
      <trkpt lat="42.126723" lon="1.576622">
        <ele>0.0</ele>
        <time>2014-01-11T20:11:04Z</time>
      </trkpt>
      <trkpt lat="42.126648" lon="1.576712">
        <ele>0.0</ele>
        <time>2014-01-11T20:11:24Z</time>
      </trkpt>
      <trkpt lat="42.126576" lon="1.576816">
        <ele>0.0</ele>
        <time>2014-01-11T20:11:44Z</time>
      </trkpt>
      <trkpt lat="42.126533" lon="1.576856">
        <ele>0.0</ele>
        <time>2014-01-11T20:12:04Z</time>
      </trkpt>
      <trkpt lat="42.126512" lon="1.576896">
        <ele>0.0</ele>
        <time>2014-01-11T20:12:24Z</time>
      </trkpt>
      <trkpt lat="42.126506" lon="1.576902">
        <ele>0.0</ele>
        <time>2014-01-11T20:12:44Z</time>
      </trkpt>
      <trkpt lat="42.126489" lon="1.576921">
        <ele>0.0</ele>
        <time>2014-01-11T20:13:04Z</time>
      </trkpt>
      <trkpt lat="42.126466" lon="1.576949">
        <ele>0.0</ele>
        <time>2014-01-11T20:13:24Z</time>
      </trkpt>
      <trkpt lat="42.126395" lon="1.576997">
        <ele>0.0</ele>
        <time>2014-01-11T20:13:44Z</time>
      </trkpt>
      <trkpt lat="42.126342" lon="1.577090">
        <ele>0.0</ele>
        <time>2014-01-11T20:14:04Z</time>
      </trkpt>
      <trkpt lat="42.126299" lon="1.577204">
        <ele>0.0</ele>
        <time>2014-01-11T20:14:24Z</time>
      </trkpt>
      <trkpt lat="42.126289" lon="1.577220">
        <ele>0.0</ele>
        <time>2014-01-11T20:14:44Z</time>
      </trkpt>
      <trkpt lat="42.126260" lon="1.577280">
        <ele>0.0</ele>
        <time>2014-01-11T20:15:04Z</time>
      </trkpt>
      <trkpt lat="42.126188" lon="1.577355">
        <ele>0.0</ele>
        <time>2014-01-11T20:15:24Z</time>
      </trkpt>
      <trkpt lat="42.126055" lon="1.577381">
        <ele>0.0</ele>
        <time>2014-01-11T20:15:44Z</time>
      </trkpt>
      <trkpt lat="42.126021" lon="1.577393">
        <ele>0.0</ele>
        <time>2014-01-11T20:16:04Z</time>
      </trkpt>
      <trkpt lat="42.125968" lon="1.577460">
        <ele>0.0</ele>
        <time>2014-01-11T20:16:24Z</time>
      </trkpt>
      <trkpt lat="42.125918" lon="1.577505">
        <ele>0.0</ele>
        <time>2014-01-11T20:16:44Z</time>
      </trkpt>
      <trkpt lat="42.125916" lon="1.577505">
        <ele>0.0</ele>
        <time>2014-01-11T20:17:04Z</time>
      </trkpt>
      <trkpt lat="42.125805" lon="1.577476">
        <ele>0.0</ele>
        <time>2014-01-11T20:17:24Z</time>
      </trkpt>
      <trkpt lat="42.125786" lon="1.577458">
        <ele>0.0</ele>
        <time>2014-01-11T20:17:44Z</time>
      </trkpt>
      <trkpt lat="42.125781" lon="1.577442">
        <ele>0.0</ele>
        <time>2014-01-11T20:18:04Z</time>
      </trkpt>
      <trkpt lat="42.125695" lon="1.577398">
        <ele>0.0</ele>
        <time>2014-01-11T20:18:24Z</time>
      </trkpt>
      <trkpt lat="42.125664" lon="1.577365">
        <ele>0.0</ele>
        <time>2014-01-11T20:18:44Z</time>
      </trkpt>
      <trkpt lat="42.125621" lon="1.577300">
        <ele>0.0</ele>
        <time>2014-01-11T20:19:04Z</time>
      </trkpt>
      <trkpt lat="42.125591" lon="1.577171">
        <ele>0.0</ele>
        <time>2014-01-11T20:19:24Z</time>
      </trkpt>
      <trkpt lat="42.125592" lon="1.577151">
        <ele>0.0</ele>
        <time>2014-01-11T20:19:44Z</time>
      </trkpt>
      <trkpt lat="42.125590" lon="1.577146">
        <ele>0.0</ele>
        <time>2014-01-11T20:20:04Z</time>
      </trkpt>
      <trkpt lat="42.125580" lon="1.577132">
        <ele>0.0</ele>
        <time>2014-01-11T20:20:24Z</time>
      </trkpt>
      <trkpt lat="42.125577" lon="1.577099">
        <ele>0.0</ele>
        <time>2014-01-11T20:20:44Z</time>
      </trkpt>
      <trkpt lat="42.125577" lon="1.577072">
        <ele>0.0</ele>
        <time>2014-01-11T20:21:04Z</time>
      </trkpt>
      <trkpt lat="42.125589" lon="1.577021">
        <ele>0.0</ele>
        <time>2014-01-11T20:21:24Z</time>
      </trkpt>
      <trkpt lat="42.125606" lon="1.576934">
        <ele>0.0</ele>
        <time>2014-01-11T20:21:44Z</time>
      </trkpt>
      <trkpt lat="42.125618" lon="1.576797">
        <ele>0.0</ele>
        <time>2014-01-11T20:22:04Z</time>
      </trkpt>
      <trkpt lat="42.125597" lon="1.576700">
        <ele>0.0</ele>
        <time>2014-01-11T20:22:24Z</time>
      </trkpt>
      <trkpt lat="42.125601" lon="1.576599">
        <ele>0.0</ele>
        <time>2014-01-11T20:22:44Z</time>
      </trkpt>
      <trkpt lat="42.125599" lon="1.576582">
        <ele>0.0</ele>
        <time>2014-01-11T20:23:04Z</time>
      </trkpt>
      <trkpt lat="42.125588" lon="1.576580">
        <ele>0.0</ele>
        <time>2014-01-11T20:23:24Z</time>
      </trkpt>
      <trkpt lat="42.125569" lon="1.576569">
        <ele>0.0</ele>
        <time>2014-01-11T20:23:44Z</time>
      </trkpt>
      <trkpt lat="42.125566" lon="1.576566">
        <ele>0.0</ele>
        <time>2014-01-11T20:24:04Z</time>
      </trkpt>
      <trkpt lat="42.125470" lon="1.576548">
        <ele>0.0</ele>
        <time>2014-01-11T20:24:24Z</time>
      </trkpt>
      <trkpt lat="42.125459" lon="1.576557">
        <ele>0.0</ele>
        <time>2014-01-11T20:24:44Z</time>
      </trkpt>
      <trkpt lat="42.125432" lon="1.576563">
        <ele>0.0</ele>
        <time>2014-01-11T20:25:04Z</time>
      </trkpt>
      <trkpt lat="42.125362" lon="1.576580">
        <ele>0.0</ele>
        <time>2014-01-11T20:25:24Z</time>
      </trkpt>
      <trkpt lat="42.125304" lon="1.576574">
        <ele>0.0</ele>
        <time>2014-01-11T20:25:44Z</time>
      </trkpt>
      <trkpt lat="42.125289" lon="1.576574">
        <ele>0.0</ele>
        <time>2014-01-11T20:26:04Z</time>
      </trkpt>
      <trkpt lat="42.125257" lon="1.576606">
        <ele>0.0</ele>
        <time>2014-01-11T20:26:24Z</time>
      </trkpt>
      <trkpt lat="42.125255" lon="1.576605">
        <ele>0.0</ele>
        <time>2014-01-11T20:26:44Z</time>
      </trkpt>
      <trkpt lat="42.125255" lon="1.576608">
        <ele>0.0</ele>
        <time>2014-01-11T20:27:04Z</time>
      </trkpt>
      <trkpt lat="42.125255" lon="1.576605">
        <ele>0.0</ele>
        <time>2014-01-11T20:27:24Z</time>
      </trkpt>
      <trkpt lat="42.125247" lon="1.576618">
        <ele>0.0</ele>
        <time>2014-01-11T20:27:44Z</time>
      </trkpt>
      <trkpt lat="42.125246" lon="1.576619">
        <ele>0.0</ele>
        <time>2014-01-11T20:28:04Z</time>
      </trkpt>
      <trkpt lat="42.125250" lon="1.576639">
        <ele>0.0</ele>
        <time>2014-01-11T20:28:24Z</time>
      </trkpt>
      <trkpt lat="42.125244" lon="1.576640">
        <ele>0.0</ele>
        <time>2014-01-11T20:28:44Z</time>
      </trkpt>
      <trkpt lat="42.125245" lon="1.576690">
        <ele>0.0</ele>
        <time>2014-01-11T20:29:04Z</time>
      </trkpt>
      <trkpt lat="42.125231" lon="1.576711">
        <ele>0.0</ele>
        <time>2014-01-11T20:29:24Z</time>
      </trkpt>
      <trkpt lat="42.125266" lon="1.576733">
        <ele>0.0</ele>
        <time>2014-01-11T20:29:44Z</time>
      </trkpt>
      <trkpt lat="42.125284" lon="1.576751">
        <ele>0.0</ele>
        <time>2014-01-11T20:30:04Z</time>
      </trkpt>
      <trkpt lat="42.125304" lon="1.576759">
        <ele>0.0</ele>
        <time>2014-01-11T20:30:24Z</time>
      </trkpt>
      <trkpt lat="42.125327" lon="1.576794">
        <ele>0.0</ele>
        <time>2014-01-11T20:30:44Z</time>
      </trkpt>
      <trkpt lat="42.125321" lon="1.576844">
        <ele>0.0</ele>
        <time>2014-01-11T20:31:04Z</time>
      </trkpt>
      <trkpt lat="42.125317" lon="1.576883">
        <ele>0.0</ele>
        <time>2014-01-11T20:31:24Z</time>
      </trkpt>
      <trkpt lat="42.125320" lon="1.576923">
        <ele>0.0</ele>
        <time>2014-01-11T20:31:44Z</time>
      </trkpt>
      <trkpt lat="42.125340" lon="1.576956">
        <ele>0.0</ele>
        <time>2014-01-11T20:32:04Z</time>
      </trkpt>
      <trkpt lat="42.125360" lon="1.577008">
        <ele>0.0</ele>
        <time>2014-01-11T20:32:24Z</time>
      </trkpt>
      <trkpt lat="42.125363" lon="1.577026">
        <ele>0.0</ele>
        <time>2014-01-11T20:32:44Z</time>
      </trkpt>
      <trkpt lat="42.125360" lon="1.577035">
        <ele>0.0</ele>
        <time>2014-01-11T20:33:04Z</time>
      </trkpt>
      <trkpt lat="42.125345" lon="1.577095">
        <ele>0.0</ele>
        <time>2014-01-11T20:33:24Z</time>
      </trkpt>
      <trkpt lat="42.125338" lon="1.577100">
        <ele>0.0</ele>
        <time>2014-01-11T20:33:44Z</time>
      </trkpt>
      <trkpt lat="42.125320" lon="1.577140">
        <ele>0.0</ele>
        <time>2014-01-11T20:34:04Z</time>
      </trkpt>
      <trkpt lat="42.125317" lon="1.577197">
        <ele>0.0</ele>
        <time>2014-01-11T20:34:24Z</time>
      </trkpt>
      <trkpt lat="42.125316" lon="1.577202">
        <ele>0.0</ele>
        <time>2014-01-11T20:34:44Z</time>
      </trkpt>
      <trkpt lat="42.125311" lon="1.577222">
        <ele>0.0</ele>
        <time>2014-01-11T20:35:04Z</time>
      </trkpt>
      <trkpt lat="42.125307" lon="1.577234">
        <ele>0.0</ele>
        <time>2014-01-11T20:35:24Z</time>
      </trkpt>
      <trkpt lat="42.125283" lon="1.577291">
        <ele>0.0</ele>
        <time>2014-01-11T20:35:44Z</time>
      </trkpt>
      <trkpt lat="42.125280" lon="1.577303">
        <ele>0.0</ele>
        <time>2014-01-11T20:36:04Z</time>
      </trkpt>
      <trkpt lat="42.125262" lon="1.577352">
        <ele>0.0</ele>
        <time>2014-01-11T20:36:24Z</time>
      </trkpt>
      <trkpt lat="42.125264" lon="1.577347">
        <ele>0.0</ele>
        <time>2014-01-11T20:36:44Z</time>
      </trkpt>
      <trkpt lat="42.125309" lon="1.577422">
        <ele>0.0</ele>
        <time>2014-01-11T20:37:04Z</time>
      </trkpt>
      <trkpt lat="42.125301" lon="1.577458">
        <ele>0.0</ele>
        <time>2014-01-11T20:37:24Z</time>
      </trkpt>
      <trkpt lat="42.125299" lon="1.577467">
        <ele>0.0</ele>
        <time>2014-01-11T20:37:44Z</time>
      </trkpt>
      <trkpt lat="42.125267" lon="1.577512">
        <ele>0.0</ele>
        <time>2014-01-11T20:38:04Z</time>
      </trkpt>
      <trkpt lat="42.125233" lon="1.577538">
        <ele>0.0</ele>
        <time>2014-01-11T20:38:24Z</time>
      </trkpt>
      <trkpt lat="42.125157" lon="1.577616">
        <ele>0.0</ele>
        <time>2014-01-11T20:38:44Z</time>
      </trkpt>
      <trkpt lat="42.125071" lon="1.577664">
        <ele>0.0</ele>
        <time>2014-01-11T20:39:04Z</time>
      </trkpt>
      <trkpt lat="42.125018" lon="1.577714">
        <ele>0.0</ele>
        <time>2014-01-11T20:39:24Z</time>
      </trkpt>
      <trkpt lat="42.124998" lon="1.577787">
        <ele>0.0</ele>
        <time>2014-01-11T20:39:44Z</time>
      </trkpt>
      <trkpt lat="42.124929" lon="1.577882">
        <ele>0.0</ele>
        <time>2014-01-11T20:40:04Z</time>
      </trkpt>
      <trkpt lat="42.124887" lon="1.578008">
        <ele>0.0</ele>
        <time>2014-01-11T20:40:24Z</time>
      </trkpt>
      <trkpt lat="42.124814" lon="1.578050">
        <ele>0.0</ele>
        <time>2014-01-11T20:40:44Z</time>
      </trkpt>
      <trkpt lat="42.124762" lon="1.578112">
        <ele>0.0</ele>
        <time>2014-01-11T20:41:04Z</time>
      </trkpt>
      <trkpt lat="42.124690" lon="1.578184">
        <ele>0.0</ele>
        <time>2014-01-11T20:41:24Z</time>
      </trkpt>
      <trkpt lat="42.124589" lon="1.578285">
        <ele>0.0</ele>
        <time>2014-01-11T20:41:44Z</time>
      </trkpt>
      <trkpt lat="42.124516" lon="1.578326">
        <ele>0.0</ele>
        <time>2014-01-11T20:42:04Z</time>
      </trkpt>
      <trkpt lat="42.124499" lon="1.578347">
        <ele>0.0</ele>
        <time>2014-01-11T20:42:24Z</time>
      </trkpt>
      <trkpt lat="42.124479" lon="1.578362">
        <ele>0.0</ele>
        <time>2014-01-11T20:42:44Z</time>
      </trkpt>
      <trkpt lat="42.124400" lon="1.578489">
        <ele>0.0</ele>
        <time>2014-01-11T20:43:04Z</time>
      </trkpt>
      <trkpt lat="42.124318" lon="1.578577">
        <ele>0.0</ele>
        <time>2014-01-11T20:43:24Z</time>
      </trkpt>
      <trkpt lat="42.124235" lon="1.578634">
        <ele>0.0</ele>
        <time>2014-01-11T20:43:44Z</time>
      </trkpt>
      <trkpt lat="42.124116" lon="1.578689">
        <ele>0.0</ele>
        <time>2014-01-11T20:44:04Z</time>
      </trkpt>
      <trkpt lat="42.124040" lon="1.578748">
        <ele>0.0</ele>
        <time>2014-01-11T20:44:24Z</time>
      </trkpt>
      <trkpt lat="42.123962" lon="1.578807">
        <ele>0.0</ele>
        <time>2014-01-11T20:44:44Z</time>
      </trkpt>
      <trkpt lat="42.123921" lon="1.578881">
        <ele>0.0</ele>
        <time>2014-01-11T20:45:04Z</time>
      </trkpt>
      <trkpt lat="42.123886" lon="1.578913">
        <ele>0.0</ele>
        <time>2014-01-11T20:45:24Z</time>
      </trkpt>
      <trkpt lat="42.123857" lon="1.578976">
        <ele>0.0</ele>
        <time>2014-01-11T20:45:44Z</time>
      </trkpt>
      <trkpt lat="42.123858" lon="1.578979">
        <ele>0.0</ele>
        <time>2014-01-11T20:46:04Z</time>
      </trkpt>
      <trkpt lat="42.123852" lon="1.578989">
        <ele>0.0</ele>
        <time>2014-01-11T20:46:24Z</time>
      </trkpt>
      <trkpt lat="42.123810" lon="1.579020">
        <ele>0.0</ele>
        <time>2014-01-11T20:46:44Z</time>
      </trkpt>
      <trkpt lat="42.123791" lon="1.579024">
        <ele>0.0</ele>
        <time>2014-01-11T20:47:04Z</time>
      </trkpt>
      <trkpt lat="42.123717" lon="1.579120">
        <ele>0.0</ele>
        <time>2014-01-11T20:47:24Z</time>
      </trkpt>
      <trkpt lat="42.123686" lon="1.579176">
        <ele>0.0</ele>
        <time>2014-01-11T20:47:44Z</time>
      </trkpt>
      <trkpt lat="42.123663" lon="1.579191">
        <ele>0.0</ele>
        <time>2014-01-11T20:48:04Z</time>
      </trkpt>
      <trkpt lat="42.123606" lon="1.579297">
        <ele>0.0</ele>
        <time>2014-01-11T20:48:24Z</time>
      </trkpt>
      <trkpt lat="42.123579" lon="1.579370">
        <ele>0.0</ele>
        <time>2014-01-11T20:48:44Z</time>
      </trkpt>
      <trkpt lat="42.123495" lon="1.579513">
        <ele>0.0</ele>
        <time>2014-01-11T20:49:04Z</time>
      </trkpt>
      <trkpt lat="42.123463" lon="1.579589">
        <ele>0.0</ele>
        <time>2014-01-11T20:49:24Z</time>
      </trkpt>
      <trkpt lat="42.123417" lon="1.579707">
        <ele>0.0</ele>
        <time>2014-01-11T20:49:44Z</time>
      </trkpt>
      <trkpt lat="42.123392" lon="1.579772">
        <ele>0.0</ele>
        <time>2014-01-11T20:50:04Z</time>
      </trkpt>
      <trkpt lat="42.123364" lon="1.579846">
        <ele>0.0</ele>
        <time>2014-01-11T20:50:24Z</time>
      </trkpt>
      <trkpt lat="42.123356" lon="1.579868">
        <ele>0.0</ele>
        <time>2014-01-11T20:50:44Z</time>
      </trkpt>
      <trkpt lat="42.123320" lon="1.579914">
        <ele>0.0</ele>
        <time>2014-01-11T20:51:04Z</time>
      </trkpt>
      <trkpt lat="42.123286" lon="1.579944">
        <ele>0.0</ele>
        <time>2014-01-11T20:51:24Z</time>
      </trkpt>
      <trkpt lat="42.123213" lon="1.580121">
        <ele>0.0</ele>
        <time>2014-01-11T20:51:44Z</time>
      </trkpt>
      <trkpt lat="42.123159" lon="1.580244">
        <ele>0.0</ele>
        <time>2014-01-11T20:52:04Z</time>
      </trkpt>
      <trkpt lat="42.123145" lon="1.580277">
        <ele>0.0</ele>
        <time>2014-01-11T20:52:24Z</time>
      </trkpt>
      <trkpt lat="42.123045" lon="1.580351">
        <ele>0.0</ele>
        <time>2014-01-11T20:52:44Z</time>
      </trkpt>
      <trkpt lat="42.122996" lon="1.580418">
        <ele>0.0</ele>
        <time>2014-01-11T20:53:04Z</time>
      </trkpt>
      <trkpt lat="42.122944" lon="1.580475">
        <ele>0.0</ele>
        <time>2014-01-11T20:53:24Z</time>
      </trkpt>
      <trkpt lat="42.122895" lon="1.580525">
        <ele>0.0</ele>
        <time>2014-01-11T20:53:44Z</time>
      </trkpt>
      <trkpt lat="42.122848" lon="1.580595">
        <ele>0.0</ele>
        <time>2014-01-11T20:54:04Z</time>
      </trkpt>
      <trkpt lat="42.122790" lon="1.580684">
        <ele>0.0</ele>
        <time>2014-01-11T20:54:24Z</time>
      </trkpt>
      <trkpt lat="42.122745" lon="1.580731">
        <ele>0.0</ele>
        <time>2014-01-11T20:54:44Z</time>
      </trkpt>
      <trkpt lat="42.122701" lon="1.580782">
        <ele>0.0</ele>
        <time>2014-01-11T20:55:04Z</time>
      </trkpt>
      <trkpt lat="42.122689" lon="1.580927">
        <ele>0.0</ele>
        <time>2014-01-11T20:55:24Z</time>
      </trkpt>
      <trkpt lat="42.122674" lon="1.581030">
        <ele>0.0</ele>
        <time>2014-01-11T20:55:44Z</time>
      </trkpt>
      <trkpt lat="42.122670" lon="1.581062">
        <ele>0.0</ele>
        <time>2014-01-11T20:56:04Z</time>
      </trkpt>
      <trkpt lat="42.122630" lon="1.581204">
        <ele>0.0</ele>
        <time>2014-01-11T20:56:24Z</time>
      </trkpt>
      <trkpt lat="42.122637" lon="1.581256">
        <ele>0.0</ele>
        <time>2014-01-11T20:56:44Z</time>
      </trkpt>
      <trkpt lat="42.122634" lon="1.581280">
        <ele>0.0</ele>
        <time>2014-01-11T20:57:04Z</time>
      </trkpt>
      <trkpt lat="42.122575" lon="1.581331">
        <ele>0.0</ele>
        <time>2014-01-11T20:57:24Z</time>
      </trkpt>
      <trkpt lat="42.122601" lon="1.581416">
        <ele>0.0</ele>
        <time>2014-01-11T20:57:44Z</time>
      </trkpt>
      <trkpt lat="42.122586" lon="1.581448">
        <ele>0.0</ele>
        <time>2014-01-11T20:58:04Z</time>
      </trkpt>
      <trkpt lat="42.122577" lon="1.581494">
        <ele>0.0</ele>
        <time>2014-01-11T20:58:24Z</time>
      </trkpt>
      <trkpt lat="42.122550" lon="1.581543">
        <ele>0.0</ele>
        <time>2014-01-11T20:58:44Z</time>
      </trkpt>
      <trkpt lat="42.122515" lon="1.581633">
        <ele>0.0</ele>
        <time>2014-01-11T20:59:04Z</time>
      </trkpt>
      <trkpt lat="42.122464" lon="1.581706">
        <ele>0.0</ele>
        <time>2014-01-11T20:59:24Z</time>
      </trkpt>
      <trkpt lat="42.122385" lon="1.581777">
        <ele>0.0</ele>
        <time>2014-01-11T20:59:44Z</time>
      </trkpt>
      <trkpt lat="42.122314" lon="1.581855">
        <ele>0.0</ele>
        <time>2014-01-11T21:00:04Z</time>
      </trkpt>
      <trkpt lat="42.122279" lon="1.581908">
        <ele>0.0</ele>
        <time>2014-01-11T21:00:24Z</time>
      </trkpt>
      <trkpt lat="42.122218" lon="1.581926">
        <ele>0.0</ele>
        <time>2014-01-11T21:00:44Z</time>
      </trkpt>
      <trkpt lat="42.122182" lon="1.581968">
        <ele>0.0</ele>
        <time>2014-01-11T21:01:04Z</time>
      </trkpt>
      <trkpt lat="42.122188" lon="1.581973">
        <ele>0.0</ele>
        <time>2014-01-11T21:01:24Z</time>
      </trkpt>
      <trkpt lat="42.122187" lon="1.581961">
        <ele>0.0</ele>
        <time>2014-01-11T21:01:44Z</time>
      </trkpt>
      <trkpt lat="42.122186" lon="1.581956">
        <ele>0.0</ele>
        <time>2014-01-11T21:02:04Z</time>
      </trkpt>
      <trkpt lat="42.122152" lon="1.581993">
        <ele>0.0</ele>
        <time>2014-01-11T21:02:24Z</time>
      </trkpt>
      <trkpt lat="42.122139" lon="1.582043">
        <ele>0.0</ele>
        <time>2014-01-11T21:02:44Z</time>
      </trkpt>
      <trkpt lat="42.122149" lon="1.582115">
        <ele>0.0</ele>
        <time>2014-01-11T21:03:04Z</time>
      </trkpt>
      <trkpt lat="42.122147" lon="1.582149">
        <ele>0.0</ele>
        <time>2014-01-11T21:03:24Z</time>
      </trkpt>
      <trkpt lat="42.122132" lon="1.582167">
        <ele>0.0</ele>
        <time>2014-01-11T21:03:44Z</time>
      </trkpt>
      <trkpt lat="42.122135" lon="1.582182">
        <ele>0.0</ele>
        <time>2014-01-11T21:04:04Z</time>
      </trkpt>
      <trkpt lat="42.122138" lon="1.582179">
        <ele>0.0</ele>
        <time>2014-01-11T21:04:24Z</time>
      </trkpt>
      <trkpt lat="42.122140" lon="1.582232">
        <ele>0.0</ele>
        <time>2014-01-11T21:04:44Z</time>
      </trkpt>
      <trkpt lat="42.122154" lon="1.582297">
        <ele>0.0</ele>
        <time>2014-01-11T21:05:04Z</time>
      </trkpt>
      <trkpt lat="42.122106" lon="1.582363">
        <ele>0.0</ele>
        <time>2014-01-11T21:05:24Z</time>
      </trkpt>
      <trkpt lat="42.122078" lon="1.582423">
        <ele>0.0</ele>
        <time>2014-01-11T21:05:44Z</time>
      </trkpt>
      <trkpt lat="42.121976" lon="1.582494">
        <ele>0.0</ele>
        <time>2014-01-11T21:06:04Z</time>
      </trkpt>
      <trkpt lat="42.121876" lon="1.582543">
        <ele>0.0</ele>
        <time>2014-01-11T21:06:24Z</time>
      </trkpt>
      <trkpt lat="42.121864" lon="1.582554">
        <ele>0.0</ele>
        <time>2014-01-11T21:06:44Z</time>
      </trkpt>
      <trkpt lat="42.121821" lon="1.582605">
        <ele>0.0</ele>
        <time>2014-01-11T21:07:04Z</time>
      </trkpt>
      <trkpt lat="42.121748" lon="1.582727">
        <ele>0.0</ele>
        <time>2014-01-11T21:07:24Z</time>
      </trkpt>
      <trkpt lat="42.121647" lon="1.582836">
        <ele>0.0</ele>
        <time>2014-01-11T21:07:44Z</time>
      </trkpt>
      <trkpt lat="42.121572" lon="1.582927">
        <ele>0.0</ele>
        <time>2014-01-11T21:08:04Z</time>
      </trkpt>
      <trkpt lat="42.121464" lon="1.583016">
        <ele>0.0</ele>
        <time>2014-01-11T21:08:24Z</time>
      </trkpt>
      <trkpt lat="42.121410" lon="1.583080">
        <ele>0.0</ele>
        <time>2014-01-11T21:08:44Z</time>
      </trkpt>
      <trkpt lat="42.121297" lon="1.583150">
        <ele>0.0</ele>
        <time>2014-01-11T21:09:04Z</time>
      </trkpt>
      <trkpt lat="42.121231" lon="1.583183">
        <ele>0.0</ele>
        <time>2014-01-11T21:09:24Z</time>
      </trkpt>
      <trkpt lat="42.121217" lon="1.583221">
        <ele>0.0</ele>
        <time>2014-01-11T21:09:44Z</time>
      </trkpt>
      <trkpt lat="42.121219" lon="1.583235">
        <ele>0.0</ele>
        <time>2014-01-11T21:10:04Z</time>
      </trkpt>
      <trkpt lat="42.121229" lon="1.583331">
        <ele>0.0</ele>
        <time>2014-01-11T21:10:24Z</time>
      </trkpt>
      <trkpt lat="42.121224" lon="1.583373">
        <ele>0.0</ele>
        <time>2014-01-11T21:10:44Z</time>
      </trkpt>
      <trkpt lat="42.121229" lon="1.583416">
        <ele>0.0</ele>
        <time>2014-01-11T21:11:04Z</time>
      </trkpt>
      <trkpt lat="42.121229" lon="1.583502">
        <ele>0.0</ele>
        <time>2014-01-11T21:11:24Z</time>
      </trkpt>
      <trkpt lat="42.121202" lon="1.583531">
        <ele>0.0</ele>
        <time>2014-01-11T21:11:44Z</time>
      </trkpt>
      <trkpt lat="42.121168" lon="1.583549">
        <ele>0.0</ele>
        <time>2014-01-11T21:12:04Z</time>
      </trkpt>
      <trkpt lat="42.121122" lon="1.583558">
        <ele>0.0</ele>
        <time>2014-01-11T21:12:24Z</time>
      </trkpt>
      <trkpt lat="42.121101" lon="1.583555">
        <ele>0.0</ele>
        <time>2014-01-11T21:12:44Z</time>
      </trkpt>
      <trkpt lat="42.121096" lon="1.583577">
        <ele>0.0</ele>
        <time>2014-01-11T21:13:04Z</time>
      </trkpt>
      <trkpt lat="42.121075" lon="1.583651">
        <ele>0.0</ele>
        <time>2014-01-11T21:13:24Z</time>
      </trkpt>
      <trkpt lat="42.121059" lon="1.583715">
        <ele>0.0</ele>
        <time>2014-01-11T21:13:44Z</time>
      </trkpt>
      <trkpt lat="42.121030" lon="1.583768">
        <ele>0.0</ele>
        <time>2014-01-11T21:14:04Z</time>
      </trkpt>
      <trkpt lat="42.121025" lon="1.583795">
        <ele>0.0</ele>
        <time>2014-01-11T21:14:24Z</time>
      </trkpt>
      <trkpt lat="42.120971" lon="1.583891">
        <ele>0.0</ele>
        <time>2014-01-11T21:14:44Z</time>
      </trkpt>
      <trkpt lat="42.120956" lon="1.583934">
        <ele>0.0</ele>
        <time>2014-01-11T21:15:04Z</time>
      </trkpt>
      <trkpt lat="42.120952" lon="1.583942">
        <ele>0.0</ele>
        <time>2014-01-11T21:15:24Z</time>
      </trkpt>
      <trkpt lat="42.120939" lon="1.583957">
        <ele>0.0</ele>
        <time>2014-01-11T21:15:44Z</time>
      </trkpt>
      <trkpt lat="42.120928" lon="1.583964">
        <ele>0.0</ele>
        <time>2014-01-11T21:16:04Z</time>
      </trkpt>
      <trkpt lat="42.120923" lon="1.583977">
        <ele>0.0</ele>
        <time>2014-01-11T21:16:24Z</time>
      </trkpt>
      <trkpt lat="42.120917" lon="1.583991">
        <ele>0.0</ele>
        <time>2014-01-11T21:16:44Z</time>
      </trkpt>
      <trkpt lat="42.120898" lon="1.584028">
        <ele>0.0</ele>
        <time>2014-01-11T21:17:04Z</time>
      </trkpt>
      <trkpt lat="42.120881" lon="1.584035">
        <ele>0.0</ele>
        <time>2014-01-11T21:17:24Z</time>
      </trkpt>
      <trkpt lat="42.120859" lon="1.584059">
        <ele>0.0</ele>
        <time>2014-01-11T21:17:44Z</time>
      </trkpt>
      <trkpt lat="42.120862" lon="1.584060">
        <ele>0.0</ele>
        <time>2014-01-11T21:18:04Z</time>
      </trkpt>
      <trkpt lat="42.120863" lon="1.584059">
        <ele>0.0</ele>
        <time>2014-01-11T21:18:24Z</time>
      </trkpt>
      <trkpt lat="42.120854" lon="1.584063">
        <ele>0.0</ele>
        <time>2014-01-11T21:18:44Z</time>
      </trkpt>
      <trkpt lat="42.120848" lon="1.584066">
        <ele>0.0</ele>
        <time>2014-01-11T21:19:04Z</time>
      </trkpt>
      <trkpt lat="42.120814" lon="1.584053">
        <ele>0.0</ele>
        <time>2014-01-11T21:19:24Z</time>
      </trkpt>
      <trkpt lat="42.120788" lon="1.583989">
        <ele>0.0</ele>
        <time>2014-01-11T21:19:44Z</time>
      </trkpt>
      <trkpt lat="42.120743" lon="1.583896">
        <ele>0.0</ele>
        <time>2014-01-11T21:20:04Z</time>
      </trkpt>
      <trkpt lat="42.120700" lon="1.583874">
        <ele>0.0</ele>
        <time>2014-01-11T21:20:24Z</time>
      </trkpt>
      <trkpt lat="42.120697" lon="1.583863">
        <ele>0.0</ele>
        <time>2014-01-11T21:20:44Z</time>
      </trkpt>
      <trkpt lat="42.120697" lon="1.583775">
        <ele>0.0</ele>
        <time>2014-01-11T21:21:04Z</time>
      </trkpt>
      <trkpt lat="42.120690" lon="1.583740">
        <ele>0.0</ele>
        <time>2014-01-11T21:21:24Z</time>
      </trkpt>
      <trkpt lat="42.120668" lon="1.583574">
        <ele>0.0</ele>
        <time>2014-01-11T21:21:44Z</time>
      </trkpt>
      <trkpt lat="42.120648" lon="1.583497">
        <ele>0.0</ele>
        <time>2014-01-11T21:22:04Z</time>
      </trkpt>
      <trkpt lat="42.120622" lon="1.583440">
        <ele>0.0</ele>
        <time>2014-01-11T21:22:24Z</time>
      </trkpt>
      <trkpt lat="42.120632" lon="1.583382">
        <ele>0.0</ele>
        <time>2014-01-11T21:22:44Z</time>
      </trkpt>
      <trkpt lat="42.120585" lon="1.583244">
        <ele>0.0</ele>
        <time>2014-01-11T21:23:04Z</time>
      </trkpt>
      <trkpt lat="42.120570" lon="1.583231">
        <ele>0.0</ele>
        <time>2014-01-11T21:23:24Z</time>
      </trkpt>
      <trkpt lat="42.120551" lon="1.583166">
        <ele>0.0</ele>
        <time>2014-01-11T21:23:44Z</time>
      </trkpt>
      <trkpt lat="42.120537" lon="1.583056">
        <ele>0.0</ele>
        <time>2014-01-11T21:24:04Z</time>
      </trkpt>
      <trkpt lat="42.120532" lon="1.583043">
        <ele>0.0</ele>
        <time>2014-01-11T21:24:24Z</time>
      </trkpt>
      <trkpt lat="42.120509" lon="1.582927">
        <ele>0.0</ele>
        <time>2014-01-11T21:24:44Z</time>
      </trkpt>
      <trkpt lat="42.120506" lon="1.582911">
        <ele>0.0</ele>
        <time>2014-01-11T21:25:04Z</time>
      </trkpt>
      <trkpt lat="42.120510" lon="1.582776">
        <ele>0.0</ele>
        <time>2014-01-11T21:25:24Z</time>
      </trkpt>
      <trkpt lat="42.120511" lon="1.582782">
        <ele>0.0</ele>
        <time>2014-01-11T21:25:44Z</time>
      </trkpt>
      <trkpt lat="42.120502" lon="1.582749">
        <ele>0.0</ele>
        <time>2014-01-11T21:26:04Z</time>
      </trkpt>
      <trkpt lat="42.120484" lon="1.582718">
        <ele>0.0</ele>
        <time>2014-01-11T21:26:24Z</time>
      </trkpt>
      <trkpt lat="42.120476" lon="1.582697">
        <ele>0.0</ele>
        <time>2014-01-11T21:26:44Z</time>
      </trkpt>
      <trkpt lat="42.120438" lon="1.582637">
        <ele>0.0</ele>
        <time>2014-01-11T21:27:04Z</time>
      </trkpt>
      <trkpt lat="42.120433" lon="1.582636">
        <ele>0.0</ele>
        <time>2014-01-11T21:27:24Z</time>
      </trkpt>
      <trkpt lat="42.120433" lon="1.582627">
        <ele>0.0</ele>
        <time>2014-01-11T21:27:44Z</time>
      </trkpt>
      <trkpt lat="42.120407" lon="1.582610">
        <ele>0.0</ele>
        <time>2014-01-11T21:28:04Z</time>
      </trkpt>
      <trkpt lat="42.120410" lon="1.582585">
        <ele>0.0</ele>
        <time>2014-01-11T21:28:24Z</time>
      </trkpt>
      <trkpt lat="42.120414" lon="1.582437">
        <ele>0.0</ele>
        <time>2014-01-11T21:28:44Z</time>
      </trkpt>
      <trkpt lat="42.120430" lon="1.582387">
        <ele>0.0</ele>
        <time>2014-01-11T21:29:04Z</time>
      </trkpt>
      <trkpt lat="42.120443" lon="1.582343">
        <ele>0.0</ele>
        <time>2014-01-11T21:29:24Z</time>
      </trkpt>
      <trkpt lat="42.120440" lon="1.582305">
        <ele>0.0</ele>
        <time>2014-01-11T21:29:44Z</time>
      </trkpt>
      <trkpt lat="42.120443" lon="1.582251">
        <ele>0.0</ele>
        <time>2014-01-11T21:30:04Z</time>
      </trkpt>
      <trkpt lat="42.120451" lon="1.582194">
        <ele>0.0</ele>
        <time>2014-01-11T21:30:24Z</time>
      </trkpt>
      <trkpt lat="42.120476" lon="1.582080">
        <ele>0.0</ele>
        <time>2014-01-11T21:30:44Z</time>
      </trkpt>
      <trkpt lat="42.120483" lon="1.582024">
        <ele>0.0</ele>
        <time>2014-01-11T21:31:04Z</time>
      </trkpt>
      <trkpt lat="42.120482" lon="1.581995">
        <ele>0.0</ele>
        <time>2014-01-11T21:31:24Z</time>
      </trkpt>
      <trkpt lat="42.120524" lon="1.581851">
        <ele>0.0</ele>
        <time>2014-01-11T21:31:44Z</time>
      </trkpt>
      <trkpt lat="42.120543" lon="1.581828">
        <ele>0.0</ele>
        <time>2014-01-11T21:32:04Z</time>
      </trkpt>
      <trkpt lat="42.120561" lon="1.581792">
        <ele>0.0</ele>
        <time>2014-01-11T21:32:24Z</time>
      </trkpt>
      <trkpt lat="42.120600" lon="1.581724">
        <ele>0.0</ele>
        <time>2014-01-11T21:32:44Z</time>
      </trkpt>
      <trkpt lat="42.120602" lon="1.581723">
        <ele>0.0</ele>
        <time>2014-01-11T21:33:04Z</time>
      </trkpt>
      <trkpt lat="42.120703" lon="1.581607">
        <ele>0.0</ele>
        <time>2014-01-11T21:33:24Z</time>
      </trkpt>
      <trkpt lat="42.120754" lon="1.581548">
        <ele>0.0</ele>
        <time>2014-01-11T21:33:44Z</time>
      </trkpt>
      <trkpt lat="42.120796" lon="1.581466">
        <ele>0.0</ele>
        <time>2014-01-11T21:34:04Z</time>
      </trkpt>
      <trkpt lat="42.120805" lon="1.581392">
        <ele>0.0</ele>
        <time>2014-01-11T21:34:24Z</time>
      </trkpt>
      <trkpt lat="42.120806" lon="1.581344">
        <ele>0.0</ele>
        <time>2014-01-11T21:34:44Z</time>
      </trkpt>
      <trkpt lat="42.120804" lon="1.581314">
        <ele>0.0</ele>
        <time>2014-01-11T21:35:04Z</time>
      </trkpt>
      <trkpt lat="42.120854" lon="1.581206">
        <ele>0.0</ele>
        <time>2014-01-11T21:35:24Z</time>
      </trkpt>
      <trkpt lat="42.120878" lon="1.581142">
        <ele>0.0</ele>
        <time>2014-01-11T21:35:44Z</time>
      </trkpt>
      <trkpt lat="42.120883" lon="1.581139">
        <ele>0.0</ele>
        <time>2014-01-11T21:36:04Z</time>
      </trkpt>
      <trkpt lat="42.120916" lon="1.581014">
        <ele>0.0</ele>
        <time>2014-01-11T21:36:24Z</time>
      </trkpt>
      <trkpt lat="42.120934" lon="1.580966">
        <ele>0.0</ele>
        <time>2014-01-11T21:36:44Z</time>
      </trkpt>
      <trkpt lat="42.120935" lon="1.580957">
        <ele>0.0</ele>
        <time>2014-01-11T21:37:04Z</time>
      </trkpt>
      <trkpt lat="42.120936" lon="1.580942">
        <ele>0.0</ele>
        <time>2014-01-11T21:37:24Z</time>
      </trkpt>
      <trkpt lat="42.120940" lon="1.580891">
        <ele>0.0</ele>
        <time>2014-01-11T21:37:44Z</time>
      </trkpt>
      <trkpt lat="42.120977" lon="1.580801">
        <ele>0.0</ele>
        <time>2014-01-11T21:38:04Z</time>
      </trkpt>
      <trkpt lat="42.120989" lon="1.580773">
        <ele>0.0</ele>
        <time>2014-01-11T21:38:24Z</time>
      </trkpt>
      <trkpt lat="42.121010" lon="1.580719">
        <ele>0.0</ele>
        <time>2014-01-11T21:38:44Z</time>
      </trkpt>
      <trkpt lat="42.121057" lon="1.580631">
        <ele>0.0</ele>
        <time>2014-01-11T21:39:04Z</time>
      </trkpt>
      <trkpt lat="42.121069" lon="1.580620">
        <ele>0.0</ele>
        <time>2014-01-11T21:39:24Z</time>
      </trkpt>
      <trkpt lat="42.121101" lon="1.580555">
        <ele>0.0</ele>
        <time>2014-01-11T21:39:44Z</time>
      </trkpt>
      <trkpt lat="42.121100" lon="1.580516">
        <ele>0.0</ele>
        <time>2014-01-11T21:40:04Z</time>
      </trkpt>
      <trkpt lat="42.121097" lon="1.580510">
        <ele>0.0</ele>
        <time>2014-01-11T21:40:24Z</time>
      </trkpt>
      <trkpt lat="42.121099" lon="1.580519">
        <ele>0.0</ele>
        <time>2014-01-11T21:40:44Z</time>
      </trkpt>
      <trkpt lat="42.121148" lon="1.580475">
        <ele>0.0</ele>
        <time>2014-01-11T21:41:04Z</time>
      </trkpt>
      <trkpt lat="42.121147" lon="1.580450">
        <ele>0.0</ele>
        <time>2014-01-11T21:41:24Z</time>
      </trkpt>
      <trkpt lat="42.121145" lon="1.580439">
        <ele>0.0</ele>
        <time>2014-01-11T21:41:44Z</time>
      </trkpt>
      <trkpt lat="42.121148" lon="1.580427">
        <ele>0.0</ele>
        <time>2014-01-11T21:42:04Z</time>
      </trkpt>
      <trkpt lat="42.121143" lon="1.580416">
        <ele>0.0</ele>
        <time>2014-01-11T21:42:24Z</time>
      </trkpt>
      <trkpt lat="42.121115" lon="1.580363">
        <ele>0.0</ele>
        <time>2014-01-11T21:42:44Z</time>
      </trkpt>
      <trkpt lat="42.121106" lon="1.580361">
        <ele>0.0</ele>
        <time>2014-01-11T21:43:04Z</time>
      </trkpt>
      <trkpt lat="42.121095" lon="1.580337">
        <ele>0.0</ele>
        <time>2014-01-11T21:43:24Z</time>
      </trkpt>
      <trkpt lat="42.121105" lon="1.580300">
        <ele>0.0</ele>
        <time>2014-01-11T21:43:44Z</time>
      </trkpt>
      <trkpt lat="42.121125" lon="1.580267">
        <ele>0.0</ele>
        <time>2014-01-11T21:44:04Z</time>
      </trkpt>
      <trkpt lat="42.121127" lon="1.580266">
        <ele>0.0</ele>
        <time>2014-01-11T21:44:24Z</time>
      </trkpt>
      <trkpt lat="42.121132" lon="1.580279">
        <ele>0.0</ele>
        <time>2014-01-11T21:44:44Z</time>
      </trkpt>
      <trkpt lat="42.121084" lon="1.580236">
        <ele>0.0</ele>
        <time>2014-01-11T21:45:04Z</time>
      </trkpt>
      <trkpt lat="42.121059" lon="1.580137">
        <ele>0.0</ele>
        <time>2014-01-11T21:45:24Z</time>
      </trkpt>
      <trkpt lat="42.121056" lon="1.580095">
        <ele>0.0</ele>
        <time>2014-01-11T21:45:44Z</time>
      </trkpt>
      <trkpt lat="42.121049" lon="1.580064">
        <ele>0.0</ele>
        <time>2014-01-11T21:46:04Z</time>
      </trkpt>
      <trkpt lat="42.121034" lon="1.580002">
        <ele>0.0</ele>
        <time>2014-01-11T21:46:24Z</time>
      </trkpt>
      <trkpt lat="42.121021" lon="1.579976">
        <ele>0.0</ele>
        <time>2014-01-11T21:46:44Z</time>
      </trkpt>
      <trkpt lat="42.121013" lon="1.579967">
        <ele>0.0</ele>
        <time>2014-01-11T21:47:04Z</time>
      </trkpt>
      <trkpt lat="42.121007" lon="1.579958">
        <ele>0.0</ele>
        <time>2014-01-11T21:47:24Z</time>
      </trkpt>
      <trkpt lat="42.121002" lon="1.579944">
        <ele>0.0</ele>
        <time>2014-01-11T21:47:44Z</time>
      </trkpt>
      <trkpt lat="42.120995" lon="1.579904">
        <ele>0.0</ele>
        <time>2014-01-11T21:48:04Z</time>
      </trkpt>
      <trkpt lat="42.120994" lon="1.579890">
        <ele>0.0</ele>
        <time>2014-01-11T21:48:24Z</time>
      </trkpt>
      <trkpt lat="42.120983" lon="1.579848">
        <ele>0.0</ele>
        <time>2014-01-11T21:48:44Z</time>
      </trkpt>
      <trkpt lat="42.120960" lon="1.579821">
        <ele>0.0</ele>
        <time>2014-01-11T21:49:04Z</time>
      </trkpt>
      <trkpt lat="42.120960" lon="1.579807">
        <ele>0.0</ele>
        <time>2014-01-11T21:49:24Z</time>
      </trkpt>
      <trkpt lat="42.120951" lon="1.579783">
        <ele>0.0</ele>
        <time>2014-01-11T21:49:44Z</time>
      </trkpt>
      <trkpt lat="42.120940" lon="1.579751">
        <ele>0.0</ele>
        <time>2014-01-11T21:50:04Z</time>
      </trkpt>
      <trkpt lat="42.120924" lon="1.579726">
        <ele>0.0</ele>
        <time>2014-01-11T21:50:24Z</time>
      </trkpt>
      <trkpt lat="42.120922" lon="1.579709">
        <ele>0.0</ele>
        <time>2014-01-11T21:50:44Z</time>
      </trkpt>
      <trkpt lat="42.120934" lon="1.579665">
        <ele>0.0</ele>
        <time>2014-01-11T21:51:04Z</time>
      </trkpt>
      <trkpt lat="42.120935" lon="1.579657">
        <ele>0.0</ele>
        <time>2014-01-11T21:51:24Z</time>
      </trkpt>
      <trkpt lat="42.120921" lon="1.579649">
        <ele>0.0</ele>
        <time>2014-01-11T21:51:44Z</time>
      </trkpt>
      <trkpt lat="42.120869" lon="1.579600">
        <ele>0.0</ele>
        <time>2014-01-11T21:52:04Z</time>
      </trkpt>
      <trkpt lat="42.120845" lon="1.579554">
        <ele>0.0</ele>
        <time>2014-01-11T21:52:24Z</time>
      </trkpt>
      <trkpt lat="42.120842" lon="1.579517">
        <ele>0.0</ele>
        <time>2014-01-11T21:52:44Z</time>
      </trkpt>
      <trkpt lat="42.120840" lon="1.579474">
        <ele>0.0</ele>
        <time>2014-01-11T21:53:04Z</time>
      </trkpt>
      <trkpt lat="42.120827" lon="1.579385">
        <ele>0.0</ele>
        <time>2014-01-11T21:53:24Z</time>
      </trkpt>
      <trkpt lat="42.120818" lon="1.579282">
        <ele>0.0</ele>
        <time>2014-01-11T21:53:44Z</time>
      </trkpt>
      <trkpt lat="42.120842" lon="1.579217">
        <ele>0.0</ele>
        <time>2014-01-11T21:54:04Z</time>
      </trkpt>
      <trkpt lat="42.120845" lon="1.579208">
        <ele>0.0</ele>
        <time>2014-01-11T21:54:24Z</time>
      </trkpt>
      <trkpt lat="42.120850" lon="1.579218">
        <ele>0.0</ele>
        <time>2014-01-11T21:54:44Z</time>
      </trkpt>
      <trkpt lat="42.120854" lon="1.579231">
        <ele>0.0</ele>
        <time>2014-01-11T21:55:04Z</time>
      </trkpt>
      <trkpt lat="42.120842" lon="1.579217">
        <ele>0.0</ele>
        <time>2014-01-11T21:55:24Z</time>
      </trkpt>
      <trkpt lat="42.120835" lon="1.579217">
        <ele>0.0</ele>
        <time>2014-01-11T21:55:44Z</time>
      </trkpt>
      <trkpt lat="42.120825" lon="1.579165">
        <ele>0.0</ele>
        <time>2014-01-11T21:56:04Z</time>
      </trkpt>
      <trkpt lat="42.120817" lon="1.579128">
        <ele>0.0</ele>
        <time>2014-01-11T21:56:24Z</time>
      </trkpt>
      <trkpt lat="42.120817" lon="1.579131">
        <ele>0.0</ele>
        <time>2014-01-11T21:56:44Z</time>
      </trkpt>
      <trkpt lat="42.120856" lon="1.579095">
        <ele>0.0</ele>
        <time>2014-01-11T21:57:04Z</time>
      </trkpt>
      <trkpt lat="42.120898" lon="1.579060">
        <ele>0.0</ele>
        <time>2014-01-11T21:57:24Z</time>
      </trkpt>
      <trkpt lat="42.120931" lon="1.579104">
        <ele>0.0</ele>
        <time>2014-01-11T21:57:44Z</time>
      </trkpt>
      <trkpt lat="42.120955" lon="1.579076">
        <ele>0.0</ele>
        <time>2014-01-11T21:58:04Z</time>
      </trkpt>
      <trkpt lat="42.120979" lon="1.579060">
        <ele>0.0</ele>
        <time>2014-01-11T21:58:24Z</time>
      </trkpt>
      <trkpt lat="42.121049" lon="1.579049">
        <ele>0.0</ele>
        <time>2014-01-11T21:58:44Z</time>
      </trkpt>
      <trkpt lat="42.121106" lon="1.579016">
        <ele>0.0</ele>
        <time>2014-01-11T21:59:04Z</time>
      </trkpt>
      <trkpt lat="42.121168" lon="1.579012">
        <ele>0.0</ele>
        <time>2014-01-11T21:59:24Z</time>
      </trkpt>
      <trkpt lat="42.121225" lon="1.578958">
        <ele>0.0</ele>
        <time>2014-01-11T21:59:44Z</time>
      </trkpt>
      <trkpt lat="42.121261" lon="1.578965">
        <ele>0.0</ele>
        <time>2014-01-11T22:00:04Z</time>
      </trkpt>
      <trkpt lat="42.121263" lon="1.578971">
        <ele>0.0</ele>
        <time>2014-01-11T22:00:24Z</time>
      </trkpt>
      <trkpt lat="42.121352" lon="1.578987">
        <ele>0.0</ele>
        <time>2014-01-11T22:00:44Z</time>
      </trkpt>
      <trkpt lat="42.121397" lon="1.578991">
        <ele>0.0</ele>
        <time>2014-01-11T22:01:04Z</time>
      </trkpt>
      <trkpt lat="42.121401" lon="1.578993">
        <ele>0.0</ele>
        <time>2014-01-11T22:01:24Z</time>
      </trkpt>
      <trkpt lat="42.121376" lon="1.578948">
        <ele>0.0</ele>
        <time>2014-01-11T22:01:44Z</time>
      </trkpt>
      <trkpt lat="42.121326" lon="1.578902">
        <ele>0.0</ele>
        <time>2014-01-11T22:02:04Z</time>
      </trkpt>
      <trkpt lat="42.121299" lon="1.578852">
        <ele>0.0</ele>
        <time>2014-01-11T22:02:24Z</time>
      </trkpt>
      <trkpt lat="42.121266" lon="1.578780">
        <ele>0.0</ele>
        <time>2014-01-11T22:02:44Z</time>
      </trkpt>
      <trkpt lat="42.121234" lon="1.578740">
        <ele>0.0</ele>
        <time>2014-01-11T22:03:04Z</time>
      </trkpt>
      <trkpt lat="42.121234" lon="1.578738">
        <ele>0.0</ele>
        <time>2014-01-11T22:03:24Z</time>
      </trkpt>
      <trkpt lat="42.121232" lon="1.578739">
        <ele>0.0</ele>
        <time>2014-01-11T22:03:44Z</time>
      </trkpt>
      <trkpt lat="42.121244" lon="1.578734">
        <ele>0.0</ele>
        <time>2014-01-11T22:04:04Z</time>
      </trkpt>
      <trkpt lat="42.121230" lon="1.578708">
        <ele>0.0</ele>
        <time>2014-01-11T22:04:24Z</time>
      </trkpt>
      <trkpt lat="42.121223" lon="1.578687">
        <ele>0.0</ele>
        <time>2014-01-11T22:04:44Z</time>
      </trkpt>
      <trkpt lat="42.121218" lon="1.578691">
        <ele>0.0</ele>
        <time>2014-01-11T22:05:04Z</time>
      </trkpt>
      <trkpt lat="42.121191" lon="1.578685">
        <ele>0.0</ele>
        <time>2014-01-11T22:05:24Z</time>
      </trkpt>
      <trkpt lat="42.121146" lon="1.578693">
        <ele>0.0</ele>
        <time>2014-01-11T22:05:44Z</time>
      </trkpt>
      <trkpt lat="42.121093" lon="1.578732">
        <ele>0.0</ele>
        <time>2014-01-11T22:06:04Z</time>
      </trkpt>
      <trkpt lat="42.121078" lon="1.578776">
        <ele>0.0</ele>
        <time>2014-01-11T22:06:24Z</time>
      </trkpt>
      <trkpt lat="42.121022" lon="1.578770">
        <ele>0.0</ele>
        <time>2014-01-11T22:06:44Z</time>
      </trkpt>
      <trkpt lat="42.121013" lon="1.578767">
        <ele>0.0</ele>
        <time>2014-01-11T22:07:04Z</time>
      </trkpt>
      <trkpt lat="42.120948" lon="1.578769">
        <ele>0.0</ele>
        <time>2014-01-11T22:07:24Z</time>
      </trkpt>
      <trkpt lat="42.120864" lon="1.578706">
        <ele>0.0</ele>
        <time>2014-01-11T22:07:44Z</time>
      </trkpt>
      <trkpt lat="42.120861" lon="1.578702">
        <ele>0.0</ele>
        <time>2014-01-11T22:08:04Z</time>
      </trkpt>
      <trkpt lat="42.120735" lon="1.578629">
        <ele>0.0</ele>
        <time>2014-01-11T22:08:24Z</time>
      </trkpt>
      <trkpt lat="42.120591" lon="1.578688">
        <ele>0.0</ele>
        <time>2014-01-11T22:08:44Z</time>
      </trkpt>
      <trkpt lat="42.120531" lon="1.578719">
        <ele>0.0</ele>
        <time>2014-01-11T22:09:04Z</time>
      </trkpt>
      <trkpt lat="42.120430" lon="1.578795">
        <ele>0.0</ele>
        <time>2014-01-11T22:09:24Z</time>
      </trkpt>
      <trkpt lat="42.120400" lon="1.578834">
        <ele>0.0</ele>
        <time>2014-01-11T22:09:44Z</time>
      </trkpt>
      <trkpt lat="42.120325" lon="1.578864">
        <ele>0.0</ele>
        <time>2014-01-11T22:10:04Z</time>
      </trkpt>
      <trkpt lat="42.120245" lon="1.578926">
        <ele>0.0</ele>
        <time>2014-01-11T22:10:24Z</time>
      </trkpt>
      <trkpt lat="42.120215" lon="1.578903">
        <ele>0.0</ele>
        <time>2014-01-11T22:10:44Z</time>
      </trkpt>
      <trkpt lat="42.120172" lon="1.578909">
        <ele>0.0</ele>
        <time>2014-01-11T22:11:04Z</time>
      </trkpt>
      <trkpt lat="42.120130" lon="1.578942">
        <ele>0.0</ele>
        <time>2014-01-11T22:11:24Z</time>
      </trkpt>
      <trkpt lat="42.120057" lon="1.579016">
        <ele>0.0</ele>
        <time>2014-01-11T22:11:44Z</time>
      </trkpt>
      <trkpt lat="42.119990" lon="1.579065">
        <ele>0.0</ele>
        <time>2014-01-11T22:12:04Z</time>
      </trkpt>
      <trkpt lat="42.119935" lon="1.579121">
        <ele>0.0</ele>
        <time>2014-01-11T22:12:24Z</time>
      </trkpt>
      <trkpt lat="42.119898" lon="1.579151">
        <ele>0.0</ele>
        <time>2014-01-11T22:12:44Z</time>
      </trkpt>
      <trkpt lat="42.119844" lon="1.579197">
        <ele>0.0</ele>
        <time>2014-01-11T22:13:04Z</time>
      </trkpt>
      <trkpt lat="42.119840" lon="1.579202">
        <ele>0.0</ele>
        <time>2014-01-11T22:13:24Z</time>
      </trkpt>
      <trkpt lat="42.119833" lon="1.579208">
        <ele>0.0</ele>
        <time>2014-01-11T22:13:44Z</time>
      </trkpt>
      <trkpt lat="42.119807" lon="1.579212">
        <ele>0.0</ele>
        <time>2014-01-11T22:14:04Z</time>
      </trkpt>
      <trkpt lat="42.119779" lon="1.579222">
        <ele>0.0</ele>
        <time>2014-01-11T22:14:24Z</time>
      </trkpt>
      <trkpt lat="42.119697" lon="1.579284">
        <ele>0.0</ele>
        <time>2014-01-11T22:14:44Z</time>
      </trkpt>
      <trkpt lat="42.119656" lon="1.579337">
        <ele>0.0</ele>
        <time>2014-01-11T22:15:04Z</time>
      </trkpt>
      <trkpt lat="42.119607" lon="1.579411">
        <ele>0.0</ele>
        <time>2014-01-11T22:15:24Z</time>
      </trkpt>
      <trkpt lat="42.119605" lon="1.579411">
        <ele>0.0</ele>
        <time>2014-01-11T22:15:44Z</time>
      </trkpt>
    </trkseg>
  </trk></gpx>